<?xml version="1.0" encoding="UTF-8" standalone="no" ?>
<gpx xmlns="http://www.topografix.com/GPX/1/1" xmlns:xsi="http://www.w3.org/2001/XMLSchema-instance" xsi:schemaLocation="http://www.topografix.com/GPX/1/1 http://www.topografix.com/GPX/1/1/gpx.xsd" version="1.1" creator="VisuGPX - https://www.visugpx.com">
  <metadata>
    <name>2024-12-11  Randonnée TwoNav</name>
    <desc><![CDATA[2024-12-11_111949.trk]]></desc>
  </metadata>
  <trk>
    <name><![CDATA[2024-12-11  Randonnée TwoNav_1]]></name>
    <trkseg>
      <trkpt lat="48.21981" lon="6.61099">
        <ele>360.2</ele>
        <time>2024-12-11T10:19:49Z</time>
      </trkpt>
      <trkpt lat="48.21975" lon="6.61097">
        <ele>360.2</ele>
        <time>2024-12-11T10:19:50Z</time>
      </trkpt>
      <trkpt lat="48.21969" lon="6.61094">
        <ele>360.1</ele>
        <time>2024-12-11T10:19:59Z</time>
      </trkpt>
      <trkpt lat="48.21964" lon="6.61091">
        <ele>360.1</ele>
        <time>2024-12-11T10:20:07Z</time>
      </trkpt>
      <trkpt lat="48.21958" lon="6.61088">
        <ele>360.1</ele>
        <time>2024-12-11T10:20:14Z</time>
      </trkpt>
      <trkpt lat="48.21953" lon="6.61086">
        <ele>360.1</ele>
        <time>2024-12-11T10:20:29Z</time>
      </trkpt>
      <trkpt lat="48.21947" lon="6.61083">
        <ele>360.1</ele>
        <time>2024-12-11T10:20:38Z</time>
      </trkpt>
      <trkpt lat="48.21942" lon="6.6108">
        <ele>360</ele>
        <time>2024-12-11T10:20:45Z</time>
      </trkpt>
      <trkpt lat="48.21936" lon="6.61077">
        <ele>360</ele>
        <time>2024-12-11T10:20:45Z</time>
      </trkpt>
      <trkpt lat="48.21932" lon="6.61065">
        <ele>360</ele>
        <time>2024-12-11T10:20:53Z</time>
      </trkpt>
      <trkpt lat="48.2193" lon="6.6105">
        <ele>360.3</ele>
        <time>2024-12-11T10:21:01Z</time>
      </trkpt>
      <trkpt lat="48.21923" lon="6.61041">
        <ele>360.8</ele>
        <time>2024-12-11T10:21:08Z</time>
      </trkpt>
      <trkpt lat="48.21914" lon="6.61041">
        <ele>361.4</ele>
        <time>2024-12-11T10:21:15Z</time>
      </trkpt>
      <trkpt lat="48.21904" lon="6.61043">
        <ele>361.9</ele>
        <time>2024-12-11T10:21:22Z</time>
      </trkpt>
      <trkpt lat="48.21896" lon="6.6105">
        <ele>362.1</ele>
        <time>2024-12-11T10:21:30Z</time>
      </trkpt>
      <trkpt lat="48.21888" lon="6.61059">
        <ele>362.3</ele>
        <time>2024-12-11T10:21:38Z</time>
      </trkpt>
      <trkpt lat="48.2188" lon="6.61065">
        <ele>362.4</ele>
        <time>2024-12-11T10:21:46Z</time>
      </trkpt>
      <trkpt lat="48.21871" lon="6.61072">
        <ele>362.6</ele>
        <time>2024-12-11T10:21:54Z</time>
      </trkpt>
      <trkpt lat="48.21863" lon="6.61079">
        <ele>362.8</ele>
        <time>2024-12-11T10:22:02Z</time>
      </trkpt>
      <trkpt lat="48.21855" lon="6.61086">
        <ele>363.1</ele>
        <time>2024-12-11T10:22:10Z</time>
      </trkpt>
      <trkpt lat="48.21846" lon="6.61093">
        <ele>363.4</ele>
        <time>2024-12-11T10:22:18Z</time>
      </trkpt>
      <trkpt lat="48.21838" lon="6.61101">
        <ele>363.8</ele>
        <time>2024-12-11T10:22:26Z</time>
      </trkpt>
      <trkpt lat="48.2183" lon="6.61108">
        <ele>364.2</ele>
        <time>2024-12-11T10:22:34Z</time>
      </trkpt>
      <trkpt lat="48.21822" lon="6.61114">
        <ele>364.6</ele>
        <time>2024-12-11T10:22:41Z</time>
      </trkpt>
      <trkpt lat="48.21813" lon="6.61118">
        <ele>365.1</ele>
        <time>2024-12-11T10:22:49Z</time>
      </trkpt>
      <trkpt lat="48.21803" lon="6.61121">
        <ele>365.5</ele>
        <time>2024-12-11T10:22:57Z</time>
      </trkpt>
      <trkpt lat="48.21794" lon="6.61125">
        <ele>365.8</ele>
        <time>2024-12-11T10:23:05Z</time>
      </trkpt>
      <trkpt lat="48.21786" lon="6.6113">
        <ele>366.1</ele>
        <time>2024-12-11T10:23:13Z</time>
      </trkpt>
      <trkpt lat="48.21778" lon="6.61136">
        <ele>366.4</ele>
        <time>2024-12-11T10:23:21Z</time>
      </trkpt>
      <trkpt lat="48.21769" lon="6.61142">
        <ele>366.7</ele>
        <time>2024-12-11T10:23:29Z</time>
      </trkpt>
      <trkpt lat="48.21761" lon="6.61148">
        <ele>367</ele>
        <time>2024-12-11T10:23:38Z</time>
      </trkpt>
      <trkpt lat="48.21753" lon="6.61157">
        <ele>367.3</ele>
        <time>2024-12-11T10:23:48Z</time>
      </trkpt>
      <trkpt lat="48.21744" lon="6.61164">
        <ele>367.7</ele>
        <time>2024-12-11T10:23:56Z</time>
      </trkpt>
      <trkpt lat="48.21736" lon="6.61169">
        <ele>368</ele>
        <time>2024-12-11T10:24:05Z</time>
      </trkpt>
      <trkpt lat="48.21727" lon="6.61174">
        <ele>368.3</ele>
        <time>2024-12-11T10:24:16Z</time>
      </trkpt>
      <trkpt lat="48.21718" lon="6.61181">
        <ele>368.7</ele>
        <time>2024-12-11T10:24:29Z</time>
      </trkpt>
      <trkpt lat="48.2171" lon="6.61188">
        <ele>369.1</ele>
        <time>2024-12-11T10:24:37Z</time>
      </trkpt>
      <trkpt lat="48.21701" lon="6.61194">
        <ele>369.6</ele>
        <time>2024-12-11T10:24:44Z</time>
      </trkpt>
      <trkpt lat="48.21692" lon="6.61197">
        <ele>370.3</ele>
        <time>2024-12-11T10:24:51Z</time>
      </trkpt>
      <trkpt lat="48.21684" lon="6.61202">
        <ele>371.1</ele>
        <time>2024-12-11T10:24:59Z</time>
      </trkpt>
      <trkpt lat="48.21674" lon="6.61203">
        <ele>372.3</ele>
        <time>2024-12-11T10:25:09Z</time>
      </trkpt>
      <trkpt lat="48.21664" lon="6.61203">
        <ele>373.5</ele>
        <time>2024-12-11T10:25:17Z</time>
      </trkpt>
      <trkpt lat="48.21653" lon="6.61204">
        <ele>375</ele>
        <time>2024-12-11T10:25:24Z</time>
      </trkpt>
      <trkpt lat="48.21644" lon="6.61205">
        <ele>376.3</ele>
        <time>2024-12-11T10:25:33Z</time>
      </trkpt>
      <trkpt lat="48.21634" lon="6.61206">
        <ele>377.6</ele>
        <time>2024-12-11T10:25:40Z</time>
      </trkpt>
      <trkpt lat="48.21625" lon="6.61208">
        <ele>378.9</ele>
        <time>2024-12-11T10:25:48Z</time>
      </trkpt>
      <trkpt lat="48.21615" lon="6.61212">
        <ele>380.2</ele>
        <time>2024-12-11T10:25:56Z</time>
      </trkpt>
      <trkpt lat="48.21605" lon="6.61216">
        <ele>381.3</ele>
        <time>2024-12-11T10:26:03Z</time>
      </trkpt>
      <trkpt lat="48.21596" lon="6.61219">
        <ele>382.4</ele>
        <time>2024-12-11T10:26:11Z</time>
      </trkpt>
      <trkpt lat="48.21586" lon="6.61221">
        <ele>383.3</ele>
        <time>2024-12-11T10:26:18Z</time>
      </trkpt>
      <trkpt lat="48.21577" lon="6.61228">
        <ele>384.2</ele>
        <time>2024-12-11T10:26:25Z</time>
      </trkpt>
      <trkpt lat="48.21568" lon="6.61234">
        <ele>384.9</ele>
        <time>2024-12-11T10:26:34Z</time>
      </trkpt>
      <trkpt lat="48.21559" lon="6.61236">
        <ele>385.6</ele>
        <time>2024-12-11T10:26:44Z</time>
      </trkpt>
      <trkpt lat="48.2155" lon="6.61238">
        <ele>386.3</ele>
        <time>2024-12-11T10:26:51Z</time>
      </trkpt>
      <trkpt lat="48.2154" lon="6.6124">
        <ele>387.1</ele>
        <time>2024-12-11T10:26:58Z</time>
      </trkpt>
      <trkpt lat="48.21529" lon="6.61242">
        <ele>387.9</ele>
        <time>2024-12-11T10:27:04Z</time>
      </trkpt>
      <trkpt lat="48.2152" lon="6.61246">
        <ele>388.7</ele>
        <time>2024-12-11T10:27:12Z</time>
      </trkpt>
      <trkpt lat="48.21511" lon="6.61249">
        <ele>389.3</ele>
        <time>2024-12-11T10:27:22Z</time>
      </trkpt>
      <trkpt lat="48.21502" lon="6.61248">
        <ele>390</ele>
        <time>2024-12-11T10:27:27Z</time>
      </trkpt>
      <trkpt lat="48.21493" lon="6.6125">
        <ele>390.6</ele>
        <time>2024-12-11T10:27:33Z</time>
      </trkpt>
      <trkpt lat="48.21483" lon="6.61255">
        <ele>391.4</ele>
        <time>2024-12-11T10:27:41Z</time>
      </trkpt>
      <trkpt lat="48.21474" lon="6.61256">
        <ele>392.1</ele>
        <time>2024-12-11T10:27:47Z</time>
      </trkpt>
      <trkpt lat="48.21465" lon="6.61253">
        <ele>392.8</ele>
        <time>2024-12-11T10:27:57Z</time>
      </trkpt>
      <trkpt lat="48.21456" lon="6.61249">
        <ele>393.5</ele>
        <time>2024-12-11T10:28:05Z</time>
      </trkpt>
      <trkpt lat="48.21446" lon="6.61247">
        <ele>394.2</ele>
        <time>2024-12-11T10:28:12Z</time>
      </trkpt>
      <trkpt lat="48.21438" lon="6.61243">
        <ele>394.7</ele>
        <time>2024-12-11T10:28:18Z</time>
      </trkpt>
      <trkpt lat="48.21428" lon="6.61238">
        <ele>395.2</ele>
        <time>2024-12-11T10:28:28Z</time>
      </trkpt>
      <trkpt lat="48.21418" lon="6.61234">
        <ele>395.6</ele>
        <time>2024-12-11T10:28:35Z</time>
      </trkpt>
      <trkpt lat="48.21408" lon="6.61236">
        <ele>395.9</ele>
        <time>2024-12-11T10:28:42Z</time>
      </trkpt>
      <trkpt lat="48.21399" lon="6.61237">
        <ele>396.1</ele>
        <time>2024-12-11T10:28:49Z</time>
      </trkpt>
      <trkpt lat="48.2139" lon="6.61239">
        <ele>396.4</ele>
        <time>2024-12-11T10:28:56Z</time>
      </trkpt>
      <trkpt lat="48.21381" lon="6.61242">
        <ele>396.7</ele>
        <time>2024-12-11T10:29:03Z</time>
      </trkpt>
      <trkpt lat="48.21371" lon="6.61244">
        <ele>396.9</ele>
        <time>2024-12-11T10:29:11Z</time>
      </trkpt>
      <trkpt lat="48.21361" lon="6.61246">
        <ele>397.2</ele>
        <time>2024-12-11T10:29:19Z</time>
      </trkpt>
      <trkpt lat="48.21352" lon="6.61248">
        <ele>397.5</ele>
        <time>2024-12-11T10:29:27Z</time>
      </trkpt>
      <trkpt lat="48.21342" lon="6.61251">
        <ele>397.7</ele>
        <time>2024-12-11T10:29:35Z</time>
      </trkpt>
      <trkpt lat="48.21333" lon="6.61256">
        <ele>397.9</ele>
        <time>2024-12-11T10:29:42Z</time>
      </trkpt>
      <trkpt lat="48.21323" lon="6.61259">
        <ele>398.2</ele>
        <time>2024-12-11T10:29:49Z</time>
      </trkpt>
      <trkpt lat="48.21315" lon="6.61264">
        <ele>398.4</ele>
        <time>2024-12-11T10:29:57Z</time>
      </trkpt>
      <trkpt lat="48.21306" lon="6.61269">
        <ele>398.6</ele>
        <time>2024-12-11T10:30:06Z</time>
      </trkpt>
      <trkpt lat="48.21297" lon="6.61272">
        <ele>398.8</ele>
        <time>2024-12-11T10:30:14Z</time>
      </trkpt>
      <trkpt lat="48.21287" lon="6.61275">
        <ele>398.9</ele>
        <time>2024-12-11T10:30:23Z</time>
      </trkpt>
      <trkpt lat="48.21277" lon="6.61273">
        <ele>399</ele>
        <time>2024-12-11T10:30:29Z</time>
      </trkpt>
      <trkpt lat="48.21268" lon="6.61272">
        <ele>399.2</ele>
        <time>2024-12-11T10:30:34Z</time>
      </trkpt>
      <trkpt lat="48.21258" lon="6.6127">
        <ele>399.4</ele>
        <time>2024-12-11T10:30:42Z</time>
      </trkpt>
      <trkpt lat="48.21249" lon="6.61267">
        <ele>399.6</ele>
        <time>2024-12-11T10:30:50Z</time>
      </trkpt>
      <trkpt lat="48.21239" lon="6.61269">
        <ele>399.8</ele>
        <time>2024-12-11T10:30:58Z</time>
      </trkpt>
      <trkpt lat="48.2123" lon="6.61274">
        <ele>399.9</ele>
        <time>2024-12-11T10:31:06Z</time>
      </trkpt>
      <trkpt lat="48.21221" lon="6.61276">
        <ele>400.1</ele>
        <time>2024-12-11T10:31:16Z</time>
      </trkpt>
      <trkpt lat="48.21212" lon="6.61275">
        <ele>400.3</ele>
        <time>2024-12-11T10:31:25Z</time>
      </trkpt>
      <trkpt lat="48.21202" lon="6.61274">
        <ele>400.5</ele>
        <time>2024-12-11T10:31:33Z</time>
      </trkpt>
      <trkpt lat="48.21192" lon="6.61274">
        <ele>400.7</ele>
        <time>2024-12-11T10:31:41Z</time>
      </trkpt>
      <trkpt lat="48.21183" lon="6.61274">
        <ele>400.9</ele>
        <time>2024-12-11T10:31:49Z</time>
      </trkpt>
      <trkpt lat="48.21174" lon="6.61271">
        <ele>401.2</ele>
        <time>2024-12-11T10:31:57Z</time>
      </trkpt>
      <trkpt lat="48.21165" lon="6.61269">
        <ele>401.4</ele>
        <time>2024-12-11T10:32:05Z</time>
      </trkpt>
      <trkpt lat="48.21157" lon="6.61263">
        <ele>401.6</ele>
        <time>2024-12-11T10:32:13Z</time>
      </trkpt>
      <trkpt lat="48.21148" lon="6.61262">
        <ele>401.9</ele>
        <time>2024-12-11T10:32:22Z</time>
      </trkpt>
      <trkpt lat="48.21138" lon="6.61259">
        <ele>402.3</ele>
        <time>2024-12-11T10:32:31Z</time>
      </trkpt>
      <trkpt lat="48.21129" lon="6.61255">
        <ele>402.7</ele>
        <time>2024-12-11T10:32:39Z</time>
      </trkpt>
      <trkpt lat="48.2112" lon="6.61254">
        <ele>403.1</ele>
        <time>2024-12-11T10:32:45Z</time>
      </trkpt>
      <trkpt lat="48.2111" lon="6.61252">
        <ele>403.6</ele>
        <time>2024-12-11T10:32:52Z</time>
      </trkpt>
      <trkpt lat="48.21101" lon="6.61252">
        <ele>404.1</ele>
        <time>2024-12-11T10:33:00Z</time>
      </trkpt>
      <trkpt lat="48.21091" lon="6.61251">
        <ele>404.8</ele>
        <time>2024-12-11T10:33:09Z</time>
      </trkpt>
      <trkpt lat="48.21082" lon="6.61248">
        <ele>405.3</ele>
        <time>2024-12-11T10:33:16Z</time>
      </trkpt>
      <trkpt lat="48.21072" lon="6.61245">
        <ele>405.9</ele>
        <time>2024-12-11T10:33:22Z</time>
      </trkpt>
      <trkpt lat="48.21062" lon="6.61243">
        <ele>406.3</ele>
        <time>2024-12-11T10:33:30Z</time>
      </trkpt>
      <trkpt lat="48.21053" lon="6.6124">
        <ele>406.7</ele>
        <time>2024-12-11T10:33:39Z</time>
      </trkpt>
      <trkpt lat="48.21044" lon="6.6124">
        <ele>407.1</ele>
        <time>2024-12-11T10:33:49Z</time>
      </trkpt>
      <trkpt lat="48.21035" lon="6.61237">
        <ele>407.5</ele>
        <time>2024-12-11T10:33:58Z</time>
      </trkpt>
      <trkpt lat="48.21025" lon="6.61233">
        <ele>407.9</ele>
        <time>2024-12-11T10:34:04Z</time>
      </trkpt>
      <trkpt lat="48.21015" lon="6.61232">
        <ele>408.4</ele>
        <time>2024-12-11T10:34:12Z</time>
      </trkpt>
      <trkpt lat="48.21006" lon="6.61228">
        <ele>408.8</ele>
        <time>2024-12-11T10:34:20Z</time>
      </trkpt>
      <trkpt lat="48.20996" lon="6.61226">
        <ele>409.2</ele>
        <time>2024-12-11T10:34:29Z</time>
      </trkpt>
      <trkpt lat="48.20987" lon="6.61222">
        <ele>409.7</ele>
        <time>2024-12-11T10:34:36Z</time>
      </trkpt>
      <trkpt lat="48.20979" lon="6.61215">
        <ele>410.2</ele>
        <time>2024-12-11T10:34:44Z</time>
      </trkpt>
      <trkpt lat="48.2097" lon="6.61209">
        <ele>410.7</ele>
        <time>2024-12-11T10:34:52Z</time>
      </trkpt>
      <trkpt lat="48.2096" lon="6.61212">
        <ele>411.4</ele>
        <time>2024-12-11T10:34:59Z</time>
      </trkpt>
      <trkpt lat="48.20951" lon="6.61214">
        <ele>412.1</ele>
        <time>2024-12-11T10:35:06Z</time>
      </trkpt>
      <trkpt lat="48.20942" lon="6.61216">
        <ele>412.9</ele>
        <time>2024-12-11T10:35:12Z</time>
      </trkpt>
      <trkpt lat="48.20933" lon="6.61219">
        <ele>413.7</ele>
        <time>2024-12-11T10:35:19Z</time>
      </trkpt>
      <trkpt lat="48.20924" lon="6.61221">
        <ele>414.5</ele>
        <time>2024-12-11T10:35:27Z</time>
      </trkpt>
      <trkpt lat="48.20914" lon="6.61222">
        <ele>415.3</ele>
        <time>2024-12-11T10:35:33Z</time>
      </trkpt>
      <trkpt lat="48.20904" lon="6.61223">
        <ele>416.1</ele>
        <time>2024-12-11T10:35:42Z</time>
      </trkpt>
      <trkpt lat="48.20895" lon="6.61226">
        <ele>416.8</ele>
        <time>2024-12-11T10:35:51Z</time>
      </trkpt>
      <trkpt lat="48.20886" lon="6.61224">
        <ele>417.5</ele>
        <time>2024-12-11T10:35:58Z</time>
      </trkpt>
      <trkpt lat="48.20876" lon="6.61228">
        <ele>418.3</ele>
        <time>2024-12-11T10:36:06Z</time>
      </trkpt>
      <trkpt lat="48.20867" lon="6.61234">
        <ele>419</ele>
        <time>2024-12-11T10:36:13Z</time>
      </trkpt>
      <trkpt lat="48.20859" lon="6.61241">
        <ele>419.7</ele>
        <time>2024-12-11T10:36:19Z</time>
      </trkpt>
      <trkpt lat="48.20851" lon="6.61249">
        <ele>420.3</ele>
        <time>2024-12-11T10:36:26Z</time>
      </trkpt>
      <trkpt lat="48.20843" lon="6.61257">
        <ele>421</ele>
        <time>2024-12-11T10:36:34Z</time>
      </trkpt>
      <trkpt lat="48.20834" lon="6.61263">
        <ele>421.6</ele>
        <time>2024-12-11T10:36:41Z</time>
      </trkpt>
      <trkpt lat="48.20826" lon="6.6127">
        <ele>422.1</ele>
        <time>2024-12-11T10:36:49Z</time>
      </trkpt>
      <trkpt lat="48.20818" lon="6.61278">
        <ele>422.6</ele>
        <time>2024-12-11T10:36:57Z</time>
      </trkpt>
      <trkpt lat="48.20808" lon="6.61285">
        <ele>423.2</ele>
        <time>2024-12-11T10:37:05Z</time>
      </trkpt>
      <trkpt lat="48.208" lon="6.61293">
        <ele>423.8</ele>
        <time>2024-12-11T10:37:13Z</time>
      </trkpt>
      <trkpt lat="48.20793" lon="6.61302">
        <ele>424.3</ele>
        <time>2024-12-11T10:37:20Z</time>
      </trkpt>
      <trkpt lat="48.20784" lon="6.61307">
        <ele>424.7</ele>
        <time>2024-12-11T10:37:28Z</time>
      </trkpt>
      <trkpt lat="48.20776" lon="6.61313">
        <ele>424.9</ele>
        <time>2024-12-11T10:37:35Z</time>
      </trkpt>
      <trkpt lat="48.20766" lon="6.61317">
        <ele>425.1</ele>
        <time>2024-12-11T10:37:42Z</time>
      </trkpt>
      <trkpt lat="48.20757" lon="6.61323">
        <ele>425.1</ele>
        <time>2024-12-11T10:37:50Z</time>
      </trkpt>
      <trkpt lat="48.20747" lon="6.61326">
        <ele>424.9</ele>
        <time>2024-12-11T10:37:58Z</time>
      </trkpt>
      <trkpt lat="48.20738" lon="6.6133">
        <ele>424.7</ele>
        <time>2024-12-11T10:38:06Z</time>
      </trkpt>
      <trkpt lat="48.2073" lon="6.61335">
        <ele>424.4</ele>
        <time>2024-12-11T10:38:14Z</time>
      </trkpt>
      <trkpt lat="48.20721" lon="6.61343">
        <ele>424</ele>
        <time>2024-12-11T10:38:23Z</time>
      </trkpt>
      <trkpt lat="48.20713" lon="6.61348">
        <ele>423.5</ele>
        <time>2024-12-11T10:38:30Z</time>
      </trkpt>
      <trkpt lat="48.20704" lon="6.61352">
        <ele>422.9</ele>
        <time>2024-12-11T10:38:37Z</time>
      </trkpt>
      <trkpt lat="48.20694" lon="6.61355">
        <ele>422.2</ele>
        <time>2024-12-11T10:38:45Z</time>
      </trkpt>
      <trkpt lat="48.20685" lon="6.61358">
        <ele>421.6</ele>
        <time>2024-12-11T10:38:51Z</time>
      </trkpt>
      <trkpt lat="48.20676" lon="6.61361">
        <ele>420.9</ele>
        <time>2024-12-11T10:38:59Z</time>
      </trkpt>
      <trkpt lat="48.20666" lon="6.61365">
        <ele>420.3</ele>
        <time>2024-12-11T10:39:07Z</time>
      </trkpt>
      <trkpt lat="48.20657" lon="6.6137">
        <ele>419.7</ele>
        <time>2024-12-11T10:39:15Z</time>
      </trkpt>
      <trkpt lat="48.20648" lon="6.61376">
        <ele>419.3</ele>
        <time>2024-12-11T10:39:24Z</time>
      </trkpt>
      <trkpt lat="48.20639" lon="6.61381">
        <ele>418.8</ele>
        <time>2024-12-11T10:39:32Z</time>
      </trkpt>
      <trkpt lat="48.2063" lon="6.61382">
        <ele>418.1</ele>
        <time>2024-12-11T10:39:39Z</time>
      </trkpt>
      <trkpt lat="48.2062" lon="6.61382">
        <ele>417.2</ele>
        <time>2024-12-11T10:39:46Z</time>
      </trkpt>
      <trkpt lat="48.2061" lon="6.61382">
        <ele>416.5</ele>
        <time>2024-12-11T10:39:53Z</time>
      </trkpt>
      <trkpt lat="48.20601" lon="6.61382">
        <ele>416</ele>
        <time>2024-12-11T10:40:01Z</time>
      </trkpt>
      <trkpt lat="48.20591" lon="6.61382">
        <ele>415.7</ele>
        <time>2024-12-11T10:40:08Z</time>
      </trkpt>
      <trkpt lat="48.2058" lon="6.61381">
        <ele>415.5</ele>
        <time>2024-12-11T10:40:15Z</time>
      </trkpt>
      <trkpt lat="48.20572" lon="6.61374">
        <ele>415.3</ele>
        <time>2024-12-11T10:40:29Z</time>
      </trkpt>
      <trkpt lat="48.20564" lon="6.61364">
        <ele>415.3</ele>
        <time>2024-12-11T10:40:39Z</time>
      </trkpt>
      <trkpt lat="48.20563" lon="6.6135">
        <ele>415.3</ele>
        <time>2024-12-11T10:40:48Z</time>
      </trkpt>
      <trkpt lat="48.20564" lon="6.61337">
        <ele>415.3</ele>
        <time>2024-12-11T10:40:56Z</time>
      </trkpt>
      <trkpt lat="48.20565" lon="6.61323">
        <ele>415.3</ele>
        <time>2024-12-11T10:41:03Z</time>
      </trkpt>
      <trkpt lat="48.20563" lon="6.61308">
        <ele>415.4</ele>
        <time>2024-12-11T10:41:12Z</time>
      </trkpt>
      <trkpt lat="48.20559" lon="6.61295">
        <ele>415.5</ele>
        <time>2024-12-11T10:41:21Z</time>
      </trkpt>
      <trkpt lat="48.20554" lon="6.61282">
        <ele>415.7</ele>
        <time>2024-12-11T10:41:29Z</time>
      </trkpt>
      <trkpt lat="48.20549" lon="6.61271">
        <ele>415.8</ele>
        <time>2024-12-11T10:41:36Z</time>
      </trkpt>
      <trkpt lat="48.20549" lon="6.6127">
        <ele>415.9</ele>
        <time>2024-12-11T10:41:41Z</time>
      </trkpt>
      <trkpt lat="48.20549" lon="6.6127">
        <ele>415.9</ele>
        <time>2024-12-11T10:41:42Z</time>
      </trkpt>
      <trkpt lat="48.20549" lon="6.6127">
        <ele>415.9</ele>
        <time>2024-12-11T10:41:43Z</time>
      </trkpt>
      <trkpt lat="48.20549" lon="6.6127">
        <ele>415.9</ele>
        <time>2024-12-11T10:41:51Z</time>
      </trkpt>
      <trkpt lat="48.20549" lon="6.61269">
        <ele>415.9</ele>
        <time>2024-12-11T10:41:52Z</time>
      </trkpt>
      <trkpt lat="48.20549" lon="6.61269">
        <ele>415.9</ele>
        <time>2024-12-11T10:41:53Z</time>
      </trkpt>
      <trkpt lat="48.20549" lon="6.61268">
        <ele>415.9</ele>
        <time>2024-12-11T10:41:54Z</time>
      </trkpt>
      <trkpt lat="48.20549" lon="6.61268">
        <ele>415.9</ele>
        <time>2024-12-11T10:41:55Z</time>
      </trkpt>
      <trkpt lat="48.20549" lon="6.61269">
        <ele>415.9</ele>
        <time>2024-12-11T10:41:58Z</time>
      </trkpt>
      <trkpt lat="48.20548" lon="6.61268">
        <ele>415.9</ele>
        <time>2024-12-11T10:41:59Z</time>
      </trkpt>
      <trkpt lat="48.20548" lon="6.61268">
        <ele>415.9</ele>
        <time>2024-12-11T10:42:00Z</time>
      </trkpt>
      <trkpt lat="48.20546" lon="6.61254">
        <ele>416.2</ele>
        <time>2024-12-11T10:42:16Z</time>
      </trkpt>
      <trkpt lat="48.20548" lon="6.61241">
        <ele>416.5</ele>
        <time>2024-12-11T10:42:26Z</time>
      </trkpt>
      <trkpt lat="48.20548" lon="6.6124">
        <ele>416.5</ele>
        <time>2024-12-11T10:42:28Z</time>
      </trkpt>
      <trkpt lat="48.20548" lon="6.6124">
        <ele>416.5</ele>
        <time>2024-12-11T10:42:29Z</time>
      </trkpt>
      <trkpt lat="48.20548" lon="6.6124">
        <ele>416.5</ele>
        <time>2024-12-11T10:42:30Z</time>
      </trkpt>
      <trkpt lat="48.20548" lon="6.6124">
        <ele>416.6</ele>
        <time>2024-12-11T10:42:33Z</time>
      </trkpt>
      <trkpt lat="48.20548" lon="6.61239">
        <ele>416.6</ele>
        <time>2024-12-11T10:42:34Z</time>
      </trkpt>
      <trkpt lat="48.20549" lon="6.61238">
        <ele>416.6</ele>
        <time>2024-12-11T10:42:35Z</time>
      </trkpt>
      <trkpt lat="48.20549" lon="6.61233">
        <ele>416.8</ele>
        <time>2024-12-11T10:42:43Z</time>
      </trkpt>
      <trkpt lat="48.20549" lon="6.61233">
        <ele>416.8</ele>
        <time>2024-12-11T10:42:44Z</time>
      </trkpt>
      <trkpt lat="48.20549" lon="6.61233">
        <ele>416.8</ele>
        <time>2024-12-11T10:42:45Z</time>
      </trkpt>
      <trkpt lat="48.20549" lon="6.61231">
        <ele>416.8</ele>
        <time>2024-12-11T10:42:49Z</time>
      </trkpt>
      <trkpt lat="48.2055" lon="6.6123">
        <ele>416.9</ele>
        <time>2024-12-11T10:42:50Z</time>
      </trkpt>
      <trkpt lat="48.20551" lon="6.61223">
        <ele>417.1</ele>
        <time>2024-12-11T10:43:01Z</time>
      </trkpt>
      <trkpt lat="48.20551" lon="6.61223">
        <ele>417.1</ele>
        <time>2024-12-11T10:43:02Z</time>
      </trkpt>
      <trkpt lat="48.20552" lon="6.61223">
        <ele>417.2</ele>
        <time>2024-12-11T10:43:03Z</time>
      </trkpt>
      <trkpt lat="48.20552" lon="6.61223">
        <ele>417.2</ele>
        <time>2024-12-11T10:43:04Z</time>
      </trkpt>
      <trkpt lat="48.20552" lon="6.61223">
        <ele>417.2</ele>
        <time>2024-12-11T10:43:05Z</time>
      </trkpt>
      <trkpt lat="48.20553" lon="6.61223">
        <ele>417.2</ele>
        <time>2024-12-11T10:43:06Z</time>
      </trkpt>
      <trkpt lat="48.20553" lon="6.61224">
        <ele>417.3</ele>
        <time>2024-12-11T10:43:11Z</time>
      </trkpt>
      <trkpt lat="48.20553" lon="6.61224">
        <ele>417.3</ele>
        <time>2024-12-11T10:43:12Z</time>
      </trkpt>
      <trkpt lat="48.20553" lon="6.61225">
        <ele>417.3</ele>
        <time>2024-12-11T10:43:26Z</time>
      </trkpt>
      <trkpt lat="48.20553" lon="6.61224">
        <ele>417.3</ele>
        <time>2024-12-11T10:43:27Z</time>
      </trkpt>
      <trkpt lat="48.20553" lon="6.61224">
        <ele>417.3</ele>
        <time>2024-12-11T10:43:28Z</time>
      </trkpt>
      <trkpt lat="48.20553" lon="6.61224">
        <ele>417.3</ele>
        <time>2024-12-11T10:43:31Z</time>
      </trkpt>
      <trkpt lat="48.20553" lon="6.61224">
        <ele>417.3</ele>
        <time>2024-12-11T10:43:32Z</time>
      </trkpt>
      <trkpt lat="48.20554" lon="6.61223">
        <ele>417.4</ele>
        <time>2024-12-11T10:44:57Z</time>
      </trkpt>
      <trkpt lat="48.20554" lon="6.61223">
        <ele>417.4</ele>
        <time>2024-12-11T10:44:58Z</time>
      </trkpt>
      <trkpt lat="48.20564" lon="6.61228">
        <ele>418</ele>
        <time>2024-12-11T10:45:09Z</time>
      </trkpt>
      <trkpt lat="48.20571" lon="6.61233">
        <ele>418.5</ele>
        <time>2024-12-11T10:45:23Z</time>
      </trkpt>
      <trkpt lat="48.20571" lon="6.61233">
        <ele>418.5</ele>
        <time>2024-12-11T10:45:24Z</time>
      </trkpt>
      <trkpt lat="48.20571" lon="6.61233">
        <ele>418.5</ele>
        <time>2024-12-11T10:45:25Z</time>
      </trkpt>
      <trkpt lat="48.20571" lon="6.61233">
        <ele>418.5</ele>
        <time>2024-12-11T10:45:26Z</time>
      </trkpt>
      <trkpt lat="48.20571" lon="6.61233">
        <ele>418.5</ele>
        <time>2024-12-11T10:45:27Z</time>
      </trkpt>
      <trkpt lat="48.20571" lon="6.61233">
        <ele>418.5</ele>
        <time>2024-12-11T10:45:28Z</time>
      </trkpt>
      <trkpt lat="48.20571" lon="6.61232">
        <ele>418.6</ele>
        <time>2024-12-11T10:45:29Z</time>
      </trkpt>
      <trkpt lat="48.20571" lon="6.61232">
        <ele>418.6</ele>
        <time>2024-12-11T10:45:30Z</time>
      </trkpt>
      <trkpt lat="48.2057" lon="6.61233">
        <ele>418.7</ele>
        <time>2024-12-11T10:45:33Z</time>
      </trkpt>
      <trkpt lat="48.20569" lon="6.61234">
        <ele>418.7</ele>
        <time>2024-12-11T10:45:34Z</time>
      </trkpt>
      <trkpt lat="48.20568" lon="6.61235">
        <ele>418.9</ele>
        <time>2024-12-11T10:45:35Z</time>
      </trkpt>
      <trkpt lat="48.20561" lon="6.61245">
        <ele>419.6</ele>
        <time>2024-12-11T10:45:43Z</time>
      </trkpt>
      <trkpt lat="48.20554" lon="6.61256">
        <ele>420.4</ele>
        <time>2024-12-11T10:45:51Z</time>
      </trkpt>
      <trkpt lat="48.20546" lon="6.61261">
        <ele>421.2</ele>
        <time>2024-12-11T10:45:59Z</time>
      </trkpt>
      <trkpt lat="48.2054" lon="6.6125">
        <ele>422.1</ele>
        <time>2024-12-11T10:46:08Z</time>
      </trkpt>
      <trkpt lat="48.20532" lon="6.6124">
        <ele>423</ele>
        <time>2024-12-11T10:46:17Z</time>
      </trkpt>
      <trkpt lat="48.20525" lon="6.61233">
        <ele>423.9</ele>
        <time>2024-12-11T10:46:25Z</time>
      </trkpt>
      <trkpt lat="48.20518" lon="6.61223">
        <ele>424.8</ele>
        <time>2024-12-11T10:46:33Z</time>
      </trkpt>
      <trkpt lat="48.2051" lon="6.61215">
        <ele>425.6</ele>
        <time>2024-12-11T10:46:41Z</time>
      </trkpt>
      <trkpt lat="48.20503" lon="6.61207">
        <ele>426.2</ele>
        <time>2024-12-11T10:46:49Z</time>
      </trkpt>
      <trkpt lat="48.20495" lon="6.61198">
        <ele>426.8</ele>
        <time>2024-12-11T10:46:57Z</time>
      </trkpt>
      <trkpt lat="48.20487" lon="6.6119">
        <ele>427.3</ele>
        <time>2024-12-11T10:47:05Z</time>
      </trkpt>
      <trkpt lat="48.20479" lon="6.6118">
        <ele>427.7</ele>
        <time>2024-12-11T10:47:14Z</time>
      </trkpt>
      <trkpt lat="48.20471" lon="6.6117">
        <ele>428</ele>
        <time>2024-12-11T10:47:23Z</time>
      </trkpt>
      <trkpt lat="48.20463" lon="6.61162">
        <ele>428.2</ele>
        <time>2024-12-11T10:47:32Z</time>
      </trkpt>
      <trkpt lat="48.20459" lon="6.6115">
        <ele>428.3</ele>
        <time>2024-12-11T10:47:40Z</time>
      </trkpt>
      <trkpt lat="48.20457" lon="6.61136">
        <ele>428.3</ele>
        <time>2024-12-11T10:47:47Z</time>
      </trkpt>
      <trkpt lat="48.20456" lon="6.61122">
        <ele>428.2</ele>
        <time>2024-12-11T10:47:54Z</time>
      </trkpt>
      <trkpt lat="48.20457" lon="6.61108">
        <ele>428.1</ele>
        <time>2024-12-11T10:48:01Z</time>
      </trkpt>
      <trkpt lat="48.20459" lon="6.61093">
        <ele>427.9</ele>
        <time>2024-12-11T10:48:09Z</time>
      </trkpt>
      <trkpt lat="48.20461" lon="6.6108">
        <ele>427.7</ele>
        <time>2024-12-11T10:48:17Z</time>
      </trkpt>
      <trkpt lat="48.20463" lon="6.61066">
        <ele>427.5</ele>
        <time>2024-12-11T10:48:24Z</time>
      </trkpt>
      <trkpt lat="48.20464" lon="6.61052">
        <ele>427.2</ele>
        <time>2024-12-11T10:48:31Z</time>
      </trkpt>
      <trkpt lat="48.20468" lon="6.61038">
        <ele>426.9</ele>
        <time>2024-12-11T10:48:39Z</time>
      </trkpt>
      <trkpt lat="48.2047" lon="6.61025">
        <ele>426.7</ele>
        <time>2024-12-11T10:48:47Z</time>
      </trkpt>
      <trkpt lat="48.20473" lon="6.61011">
        <ele>426.5</ele>
        <time>2024-12-11T10:48:55Z</time>
      </trkpt>
      <trkpt lat="48.20476" lon="6.60998">
        <ele>426.3</ele>
        <time>2024-12-11T10:49:03Z</time>
      </trkpt>
      <trkpt lat="48.20479" lon="6.60984">
        <ele>426.2</ele>
        <time>2024-12-11T10:49:11Z</time>
      </trkpt>
      <trkpt lat="48.20482" lon="6.60971">
        <ele>426.1</ele>
        <time>2024-12-11T10:49:19Z</time>
      </trkpt>
      <trkpt lat="48.20484" lon="6.60957">
        <ele>426.1</ele>
        <time>2024-12-11T10:49:27Z</time>
      </trkpt>
      <trkpt lat="48.20486" lon="6.60942">
        <ele>426.1</ele>
        <time>2024-12-11T10:49:35Z</time>
      </trkpt>
      <trkpt lat="48.20487" lon="6.60927">
        <ele>426.1</ele>
        <time>2024-12-11T10:49:43Z</time>
      </trkpt>
      <trkpt lat="48.20489" lon="6.60913">
        <ele>426.1</ele>
        <time>2024-12-11T10:49:51Z</time>
      </trkpt>
      <trkpt lat="48.20492" lon="6.60899">
        <ele>426.1</ele>
        <time>2024-12-11T10:49:59Z</time>
      </trkpt>
      <trkpt lat="48.20497" lon="6.60886">
        <ele>426.1</ele>
        <time>2024-12-11T10:50:07Z</time>
      </trkpt>
      <trkpt lat="48.20502" lon="6.60874">
        <ele>426.1</ele>
        <time>2024-12-11T10:50:15Z</time>
      </trkpt>
      <trkpt lat="48.20508" lon="6.60863">
        <ele>426.1</ele>
        <time>2024-12-11T10:50:23Z</time>
      </trkpt>
      <trkpt lat="48.20513" lon="6.60852">
        <ele>426</ele>
        <time>2024-12-11T10:50:30Z</time>
      </trkpt>
      <trkpt lat="48.20519" lon="6.60841">
        <ele>425.9</ele>
        <time>2024-12-11T10:50:37Z</time>
      </trkpt>
      <trkpt lat="48.20525" lon="6.6083">
        <ele>425.8</ele>
        <time>2024-12-11T10:50:44Z</time>
      </trkpt>
      <trkpt lat="48.20532" lon="6.60821">
        <ele>425.6</ele>
        <time>2024-12-11T10:50:52Z</time>
      </trkpt>
      <trkpt lat="48.20538" lon="6.6081">
        <ele>425.4</ele>
        <time>2024-12-11T10:51:00Z</time>
      </trkpt>
      <trkpt lat="48.20544" lon="6.60797">
        <ele>425.1</ele>
        <time>2024-12-11T10:51:08Z</time>
      </trkpt>
      <trkpt lat="48.2055" lon="6.60785">
        <ele>424.9</ele>
        <time>2024-12-11T10:51:16Z</time>
      </trkpt>
      <trkpt lat="48.20555" lon="6.60773">
        <ele>424.8</ele>
        <time>2024-12-11T10:51:24Z</time>
      </trkpt>
      <trkpt lat="48.2056" lon="6.6076">
        <ele>424.7</ele>
        <time>2024-12-11T10:51:32Z</time>
      </trkpt>
      <trkpt lat="48.20566" lon="6.60748">
        <ele>424.6</ele>
        <time>2024-12-11T10:51:40Z</time>
      </trkpt>
      <trkpt lat="48.20569" lon="6.60734">
        <ele>424.6</ele>
        <time>2024-12-11T10:51:48Z</time>
      </trkpt>
      <trkpt lat="48.20574" lon="6.60722">
        <ele>424.7</ele>
        <time>2024-12-11T10:51:55Z</time>
      </trkpt>
      <trkpt lat="48.20578" lon="6.60709">
        <ele>424.7</ele>
        <time>2024-12-11T10:52:02Z</time>
      </trkpt>
      <trkpt lat="48.20581" lon="6.60696">
        <ele>424.8</ele>
        <time>2024-12-11T10:52:09Z</time>
      </trkpt>
      <trkpt lat="48.20584" lon="6.60682">
        <ele>424.9</ele>
        <time>2024-12-11T10:52:17Z</time>
      </trkpt>
      <trkpt lat="48.20589" lon="6.6067">
        <ele>425</ele>
        <time>2024-12-11T10:52:25Z</time>
      </trkpt>
      <trkpt lat="48.20595" lon="6.60658">
        <ele>425.1</ele>
        <time>2024-12-11T10:52:33Z</time>
      </trkpt>
      <trkpt lat="48.20602" lon="6.60648">
        <ele>425.2</ele>
        <time>2024-12-11T10:52:40Z</time>
      </trkpt>
      <trkpt lat="48.20608" lon="6.60637">
        <ele>425.2</ele>
        <time>2024-12-11T10:52:47Z</time>
      </trkpt>
      <trkpt lat="48.20613" lon="6.60625">
        <ele>425.3</ele>
        <time>2024-12-11T10:52:55Z</time>
      </trkpt>
      <trkpt lat="48.20617" lon="6.60613">
        <ele>425.3</ele>
        <time>2024-12-11T10:53:03Z</time>
      </trkpt>
      <trkpt lat="48.20623" lon="6.60601">
        <ele>425.2</ele>
        <time>2024-12-11T10:53:12Z</time>
      </trkpt>
      <trkpt lat="48.20629" lon="6.60591">
        <ele>425.1</ele>
        <time>2024-12-11T10:53:20Z</time>
      </trkpt>
      <trkpt lat="48.20635" lon="6.60581">
        <ele>425</ele>
        <time>2024-12-11T10:53:29Z</time>
      </trkpt>
      <trkpt lat="48.20641" lon="6.60569">
        <ele>424.9</ele>
        <time>2024-12-11T10:53:37Z</time>
      </trkpt>
      <trkpt lat="48.20647" lon="6.60558">
        <ele>424.7</ele>
        <time>2024-12-11T10:53:45Z</time>
      </trkpt>
      <trkpt lat="48.20653" lon="6.60548">
        <ele>424.5</ele>
        <time>2024-12-11T10:53:52Z</time>
      </trkpt>
      <trkpt lat="48.20658" lon="6.60535">
        <ele>424.2</ele>
        <time>2024-12-11T10:54:00Z</time>
      </trkpt>
      <trkpt lat="48.20662" lon="6.60522">
        <ele>423.9</ele>
        <time>2024-12-11T10:54:07Z</time>
      </trkpt>
      <trkpt lat="48.20666" lon="6.60509">
        <ele>423.5</ele>
        <time>2024-12-11T10:54:15Z</time>
      </trkpt>
      <trkpt lat="48.20671" lon="6.60498">
        <ele>423.1</ele>
        <time>2024-12-11T10:54:22Z</time>
      </trkpt>
      <trkpt lat="48.20675" lon="6.60485">
        <ele>422.7</ele>
        <time>2024-12-11T10:54:30Z</time>
      </trkpt>
      <trkpt lat="48.20682" lon="6.60474">
        <ele>422.3</ele>
        <time>2024-12-11T10:54:38Z</time>
      </trkpt>
      <trkpt lat="48.20688" lon="6.60463">
        <ele>421.9</ele>
        <time>2024-12-11T10:54:46Z</time>
      </trkpt>
      <trkpt lat="48.20693" lon="6.60452">
        <ele>421.5</ele>
        <time>2024-12-11T10:54:54Z</time>
      </trkpt>
      <trkpt lat="48.20699" lon="6.6044">
        <ele>421</ele>
        <time>2024-12-11T10:55:02Z</time>
      </trkpt>
      <trkpt lat="48.20705" lon="6.60428">
        <ele>420.6</ele>
        <time>2024-12-11T10:55:10Z</time>
      </trkpt>
      <trkpt lat="48.2071" lon="6.60417">
        <ele>420.2</ele>
        <time>2024-12-11T10:55:17Z</time>
      </trkpt>
      <trkpt lat="48.20716" lon="6.60404">
        <ele>419.7</ele>
        <time>2024-12-11T10:55:25Z</time>
      </trkpt>
      <trkpt lat="48.20721" lon="6.60391">
        <ele>419.3</ele>
        <time>2024-12-11T10:55:33Z</time>
      </trkpt>
      <trkpt lat="48.20726" lon="6.60379">
        <ele>418.9</ele>
        <time>2024-12-11T10:55:41Z</time>
      </trkpt>
      <trkpt lat="48.2073" lon="6.60366">
        <ele>418.5</ele>
        <time>2024-12-11T10:55:48Z</time>
      </trkpt>
      <trkpt lat="48.20735" lon="6.60354">
        <ele>418.1</ele>
        <time>2024-12-11T10:55:55Z</time>
      </trkpt>
      <trkpt lat="48.20742" lon="6.60343">
        <ele>417.7</ele>
        <time>2024-12-11T10:56:03Z</time>
      </trkpt>
      <trkpt lat="48.20748" lon="6.60332">
        <ele>417.4</ele>
        <time>2024-12-11T10:56:10Z</time>
      </trkpt>
      <trkpt lat="48.20755" lon="6.60321">
        <ele>417</ele>
        <time>2024-12-11T10:56:18Z</time>
      </trkpt>
      <trkpt lat="48.20761" lon="6.60311">
        <ele>416.8</ele>
        <time>2024-12-11T10:56:25Z</time>
      </trkpt>
      <trkpt lat="48.20766" lon="6.60297">
        <ele>416.5</ele>
        <time>2024-12-11T10:56:34Z</time>
      </trkpt>
      <trkpt lat="48.2077" lon="6.60284">
        <ele>416.3</ele>
        <time>2024-12-11T10:56:42Z</time>
      </trkpt>
      <trkpt lat="48.20775" lon="6.60272">
        <ele>416.1</ele>
        <time>2024-12-11T10:56:50Z</time>
      </trkpt>
      <trkpt lat="48.2078" lon="6.6026">
        <ele>415.8</ele>
        <time>2024-12-11T10:56:57Z</time>
      </trkpt>
      <trkpt lat="48.20784" lon="6.60247">
        <ele>415.5</ele>
        <time>2024-12-11T10:57:05Z</time>
      </trkpt>
      <trkpt lat="48.20788" lon="6.60235">
        <ele>415.2</ele>
        <time>2024-12-11T10:57:13Z</time>
      </trkpt>
      <trkpt lat="48.20794" lon="6.60224">
        <ele>414.8</ele>
        <time>2024-12-11T10:57:21Z</time>
      </trkpt>
      <trkpt lat="48.208" lon="6.60213">
        <ele>414.5</ele>
        <time>2024-12-11T10:57:29Z</time>
      </trkpt>
      <trkpt lat="48.20806" lon="6.60201">
        <ele>414.1</ele>
        <time>2024-12-11T10:57:37Z</time>
      </trkpt>
      <trkpt lat="48.2081" lon="6.60189">
        <ele>413.7</ele>
        <time>2024-12-11T10:57:45Z</time>
      </trkpt>
      <trkpt lat="48.20813" lon="6.60175">
        <ele>413.3</ele>
        <time>2024-12-11T10:57:54Z</time>
      </trkpt>
      <trkpt lat="48.20819" lon="6.60163">
        <ele>413</ele>
        <time>2024-12-11T10:58:02Z</time>
      </trkpt>
      <trkpt lat="48.20823" lon="6.60152">
        <ele>412.6</ele>
        <time>2024-12-11T10:58:09Z</time>
      </trkpt>
      <trkpt lat="48.20829" lon="6.60139">
        <ele>412.3</ele>
        <time>2024-12-11T10:58:17Z</time>
      </trkpt>
      <trkpt lat="48.20832" lon="6.60125">
        <ele>411.9</ele>
        <time>2024-12-11T10:58:25Z</time>
      </trkpt>
      <trkpt lat="48.20836" lon="6.60111">
        <ele>411.6</ele>
        <time>2024-12-11T10:58:33Z</time>
      </trkpt>
      <trkpt lat="48.20841" lon="6.60099">
        <ele>411.2</ele>
        <time>2024-12-11T10:58:40Z</time>
      </trkpt>
      <trkpt lat="48.20846" lon="6.60086">
        <ele>410.8</ele>
        <time>2024-12-11T10:58:48Z</time>
      </trkpt>
      <trkpt lat="48.20851" lon="6.60075">
        <ele>410.5</ele>
        <time>2024-12-11T10:58:56Z</time>
      </trkpt>
      <trkpt lat="48.20858" lon="6.60065">
        <ele>410.2</ele>
        <time>2024-12-11T10:59:05Z</time>
      </trkpt>
      <trkpt lat="48.20863" lon="6.60053">
        <ele>409.9</ele>
        <time>2024-12-11T10:59:14Z</time>
      </trkpt>
      <trkpt lat="48.20868" lon="6.60042">
        <ele>409.6</ele>
        <time>2024-12-11T10:59:21Z</time>
      </trkpt>
      <trkpt lat="48.20872" lon="6.60029">
        <ele>409.4</ele>
        <time>2024-12-11T10:59:27Z</time>
      </trkpt>
      <trkpt lat="48.20875" lon="6.60016">
        <ele>409.2</ele>
        <time>2024-12-11T10:59:33Z</time>
      </trkpt>
      <trkpt lat="48.20879" lon="6.60003">
        <ele>408.9</ele>
        <time>2024-12-11T10:59:40Z</time>
      </trkpt>
      <trkpt lat="48.20876" lon="6.5999">
        <ele>408.8</ele>
        <time>2024-12-11T10:59:47Z</time>
      </trkpt>
      <trkpt lat="48.20877" lon="6.59975">
        <ele>408.7</ele>
        <time>2024-12-11T10:59:55Z</time>
      </trkpt>
      <trkpt lat="48.20883" lon="6.59964">
        <ele>408.6</ele>
        <time>2024-12-11T11:00:03Z</time>
      </trkpt>
      <trkpt lat="48.20889" lon="6.59954">
        <ele>408.6</ele>
        <time>2024-12-11T11:00:12Z</time>
      </trkpt>
      <trkpt lat="48.20899" lon="6.59949">
        <ele>408.6</ele>
        <time>2024-12-11T11:00:20Z</time>
      </trkpt>
      <trkpt lat="48.20907" lon="6.59942">
        <ele>408.5</ele>
        <time>2024-12-11T11:00:27Z</time>
      </trkpt>
      <trkpt lat="48.20916" lon="6.59936">
        <ele>408.4</ele>
        <time>2024-12-11T11:00:35Z</time>
      </trkpt>
      <trkpt lat="48.20925" lon="6.5993">
        <ele>408.2</ele>
        <time>2024-12-11T11:00:43Z</time>
      </trkpt>
      <trkpt lat="48.20933" lon="6.59924">
        <ele>408</ele>
        <time>2024-12-11T11:00:49Z</time>
      </trkpt>
      <trkpt lat="48.20942" lon="6.59918">
        <ele>407.8</ele>
        <time>2024-12-11T11:00:58Z</time>
      </trkpt>
      <trkpt lat="48.2095" lon="6.59911">
        <ele>407.4</ele>
        <time>2024-12-11T11:01:08Z</time>
      </trkpt>
      <trkpt lat="48.20959" lon="6.59904">
        <ele>407.1</ele>
        <time>2024-12-11T11:01:16Z</time>
      </trkpt>
      <trkpt lat="48.20966" lon="6.59895">
        <ele>406.7</ele>
        <time>2024-12-11T11:01:25Z</time>
      </trkpt>
      <trkpt lat="48.20975" lon="6.59889">
        <ele>406.3</ele>
        <time>2024-12-11T11:01:33Z</time>
      </trkpt>
      <trkpt lat="48.20985" lon="6.59885">
        <ele>405.9</ele>
        <time>2024-12-11T11:01:42Z</time>
      </trkpt>
      <trkpt lat="48.20994" lon="6.59883">
        <ele>405.4</ele>
        <time>2024-12-11T11:01:49Z</time>
      </trkpt>
      <trkpt lat="48.21003" lon="6.59879">
        <ele>404.9</ele>
        <time>2024-12-11T11:01:57Z</time>
      </trkpt>
      <trkpt lat="48.21012" lon="6.59878">
        <ele>404.4</ele>
        <time>2024-12-11T11:02:05Z</time>
      </trkpt>
      <trkpt lat="48.21022" lon="6.59877">
        <ele>403.9</ele>
        <time>2024-12-11T11:02:12Z</time>
      </trkpt>
      <trkpt lat="48.21031" lon="6.59875">
        <ele>403.4</ele>
        <time>2024-12-11T11:02:20Z</time>
      </trkpt>
      <trkpt lat="48.21041" lon="6.59873">
        <ele>403</ele>
        <time>2024-12-11T11:02:28Z</time>
      </trkpt>
      <trkpt lat="48.21051" lon="6.59871">
        <ele>402.6</ele>
        <time>2024-12-11T11:02:38Z</time>
      </trkpt>
      <trkpt lat="48.2106" lon="6.59869">
        <ele>402.2</ele>
        <time>2024-12-11T11:02:45Z</time>
      </trkpt>
      <trkpt lat="48.21069" lon="6.59861">
        <ele>401.9</ele>
        <time>2024-12-11T11:02:54Z</time>
      </trkpt>
      <trkpt lat="48.21078" lon="6.59855">
        <ele>401.6</ele>
        <time>2024-12-11T11:03:01Z</time>
      </trkpt>
      <trkpt lat="48.21086" lon="6.59849">
        <ele>401.4</ele>
        <time>2024-12-11T11:03:07Z</time>
      </trkpt>
      <trkpt lat="48.21093" lon="6.59838">
        <ele>401.1</ele>
        <time>2024-12-11T11:03:15Z</time>
      </trkpt>
      <trkpt lat="48.21102" lon="6.59831">
        <ele>401</ele>
        <time>2024-12-11T11:03:21Z</time>
      </trkpt>
      <trkpt lat="48.2111" lon="6.59823">
        <ele>400.8</ele>
        <time>2024-12-11T11:03:27Z</time>
      </trkpt>
      <trkpt lat="48.21118" lon="6.59815">
        <ele>400.6</ele>
        <time>2024-12-11T11:03:34Z</time>
      </trkpt>
      <trkpt lat="48.21125" lon="6.59805">
        <ele>400.5</ele>
        <time>2024-12-11T11:03:43Z</time>
      </trkpt>
      <trkpt lat="48.21132" lon="6.59796">
        <ele>400.4</ele>
        <time>2024-12-11T11:03:52Z</time>
      </trkpt>
      <trkpt lat="48.21139" lon="6.59787">
        <ele>400.2</ele>
        <time>2024-12-11T11:04:00Z</time>
      </trkpt>
      <trkpt lat="48.21147" lon="6.59777">
        <ele>400.1</ele>
        <time>2024-12-11T11:04:08Z</time>
      </trkpt>
      <trkpt lat="48.21155" lon="6.59768">
        <ele>399.9</ele>
        <time>2024-12-11T11:04:16Z</time>
      </trkpt>
      <trkpt lat="48.21162" lon="6.59758">
        <ele>399.7</ele>
        <time>2024-12-11T11:04:24Z</time>
      </trkpt>
      <trkpt lat="48.2117" lon="6.59748">
        <ele>399.5</ele>
        <time>2024-12-11T11:04:32Z</time>
      </trkpt>
      <trkpt lat="48.21177" lon="6.59739">
        <ele>399.3</ele>
        <time>2024-12-11T11:04:39Z</time>
      </trkpt>
      <trkpt lat="48.21185" lon="6.5973">
        <ele>399</ele>
        <time>2024-12-11T11:04:47Z</time>
      </trkpt>
      <trkpt lat="48.21193" lon="6.59721">
        <ele>398.8</ele>
        <time>2024-12-11T11:04:55Z</time>
      </trkpt>
      <trkpt lat="48.21201" lon="6.59712">
        <ele>398.6</ele>
        <time>2024-12-11T11:05:03Z</time>
      </trkpt>
      <trkpt lat="48.21209" lon="6.59703">
        <ele>398.3</ele>
        <time>2024-12-11T11:05:11Z</time>
      </trkpt>
      <trkpt lat="48.21217" lon="6.59696">
        <ele>398.1</ele>
        <time>2024-12-11T11:05:19Z</time>
      </trkpt>
      <trkpt lat="48.21225" lon="6.59687">
        <ele>397.9</ele>
        <time>2024-12-11T11:05:26Z</time>
      </trkpt>
      <trkpt lat="48.21233" lon="6.5968">
        <ele>397.6</ele>
        <time>2024-12-11T11:05:33Z</time>
      </trkpt>
      <trkpt lat="48.21241" lon="6.59673">
        <ele>397.3</ele>
        <time>2024-12-11T11:05:40Z</time>
      </trkpt>
      <trkpt lat="48.21249" lon="6.59666">
        <ele>397</ele>
        <time>2024-12-11T11:05:48Z</time>
      </trkpt>
      <trkpt lat="48.21257" lon="6.59658">
        <ele>396.7</ele>
        <time>2024-12-11T11:05:56Z</time>
      </trkpt>
      <trkpt lat="48.21265" lon="6.59651">
        <ele>396.3</ele>
        <time>2024-12-11T11:06:04Z</time>
      </trkpt>
      <trkpt lat="48.21274" lon="6.59643">
        <ele>396</ele>
        <time>2024-12-11T11:06:12Z</time>
      </trkpt>
      <trkpt lat="48.21282" lon="6.59636">
        <ele>395.6</ele>
        <time>2024-12-11T11:06:20Z</time>
      </trkpt>
      <trkpt lat="48.2129" lon="6.59628">
        <ele>395.2</ele>
        <time>2024-12-11T11:06:28Z</time>
      </trkpt>
      <trkpt lat="48.21299" lon="6.5962">
        <ele>394.9</ele>
        <time>2024-12-11T11:06:36Z</time>
      </trkpt>
      <trkpt lat="48.21307" lon="6.59611">
        <ele>394.5</ele>
        <time>2024-12-11T11:06:44Z</time>
      </trkpt>
      <trkpt lat="48.21314" lon="6.59602">
        <ele>394.2</ele>
        <time>2024-12-11T11:06:52Z</time>
      </trkpt>
      <trkpt lat="48.21321" lon="6.59591">
        <ele>393.8</ele>
        <time>2024-12-11T11:07:00Z</time>
      </trkpt>
      <trkpt lat="48.21328" lon="6.5958">
        <ele>393.5</ele>
        <time>2024-12-11T11:07:08Z</time>
      </trkpt>
      <trkpt lat="48.21333" lon="6.59568">
        <ele>393.2</ele>
        <time>2024-12-11T11:07:16Z</time>
      </trkpt>
      <trkpt lat="48.21339" lon="6.59556">
        <ele>393</ele>
        <time>2024-12-11T11:07:24Z</time>
      </trkpt>
      <trkpt lat="48.21345" lon="6.59543">
        <ele>392.8</ele>
        <time>2024-12-11T11:07:32Z</time>
      </trkpt>
      <trkpt lat="48.2135" lon="6.59531">
        <ele>392.6</ele>
        <time>2024-12-11T11:07:40Z</time>
      </trkpt>
      <trkpt lat="48.21356" lon="6.59518">
        <ele>392.4</ele>
        <time>2024-12-11T11:07:48Z</time>
      </trkpt>
      <trkpt lat="48.21361" lon="6.59505">
        <ele>392.2</ele>
        <time>2024-12-11T11:07:56Z</time>
      </trkpt>
      <trkpt lat="48.21365" lon="6.59492">
        <ele>392</ele>
        <time>2024-12-11T11:08:04Z</time>
      </trkpt>
      <trkpt lat="48.21371" lon="6.5948">
        <ele>391.9</ele>
        <time>2024-12-11T11:08:12Z</time>
      </trkpt>
      <trkpt lat="48.21376" lon="6.59469">
        <ele>391.7</ele>
        <time>2024-12-11T11:08:19Z</time>
      </trkpt>
      <trkpt lat="48.21382" lon="6.59457">
        <ele>391.5</ele>
        <time>2024-12-11T11:08:27Z</time>
      </trkpt>
      <trkpt lat="48.21388" lon="6.59446">
        <ele>391.3</ele>
        <time>2024-12-11T11:08:35Z</time>
      </trkpt>
      <trkpt lat="48.21395" lon="6.59434">
        <ele>391.1</ele>
        <time>2024-12-11T11:08:43Z</time>
      </trkpt>
      <trkpt lat="48.21402" lon="6.59423">
        <ele>390.9</ele>
        <time>2024-12-11T11:08:51Z</time>
      </trkpt>
      <trkpt lat="48.21409" lon="6.59412">
        <ele>390.7</ele>
        <time>2024-12-11T11:08:59Z</time>
      </trkpt>
      <trkpt lat="48.21415" lon="6.59401">
        <ele>390.4</ele>
        <time>2024-12-11T11:09:07Z</time>
      </trkpt>
      <trkpt lat="48.21423" lon="6.59391">
        <ele>390.1</ele>
        <time>2024-12-11T11:09:15Z</time>
      </trkpt>
      <trkpt lat="48.2143" lon="6.5938">
        <ele>389.8</ele>
        <time>2024-12-11T11:09:23Z</time>
      </trkpt>
      <trkpt lat="48.21437" lon="6.5937">
        <ele>389.5</ele>
        <time>2024-12-11T11:09:31Z</time>
      </trkpt>
      <trkpt lat="48.21445" lon="6.5936">
        <ele>389.1</ele>
        <time>2024-12-11T11:09:39Z</time>
      </trkpt>
      <trkpt lat="48.21452" lon="6.5935">
        <ele>388.8</ele>
        <time>2024-12-11T11:09:47Z</time>
      </trkpt>
      <trkpt lat="48.21459" lon="6.59339">
        <ele>388.5</ele>
        <time>2024-12-11T11:09:55Z</time>
      </trkpt>
      <trkpt lat="48.21466" lon="6.59329">
        <ele>388.1</ele>
        <time>2024-12-11T11:10:03Z</time>
      </trkpt>
      <trkpt lat="48.21473" lon="6.59318">
        <ele>387.8</ele>
        <time>2024-12-11T11:10:11Z</time>
      </trkpt>
      <trkpt lat="48.2148" lon="6.59308">
        <ele>387.5</ele>
        <time>2024-12-11T11:10:19Z</time>
      </trkpt>
      <trkpt lat="48.21488" lon="6.59298">
        <ele>387.1</ele>
        <time>2024-12-11T11:10:27Z</time>
      </trkpt>
      <trkpt lat="48.21496" lon="6.59288">
        <ele>386.7</ele>
        <time>2024-12-11T11:10:35Z</time>
      </trkpt>
      <trkpt lat="48.21504" lon="6.59279">
        <ele>386.3</ele>
        <time>2024-12-11T11:10:43Z</time>
      </trkpt>
      <trkpt lat="48.21512" lon="6.5927">
        <ele>385.9</ele>
        <time>2024-12-11T11:10:51Z</time>
      </trkpt>
      <trkpt lat="48.2152" lon="6.59262">
        <ele>385.5</ele>
        <time>2024-12-11T11:10:59Z</time>
      </trkpt>
      <trkpt lat="48.21528" lon="6.59253">
        <ele>385.1</ele>
        <time>2024-12-11T11:11:07Z</time>
      </trkpt>
      <trkpt lat="48.21536" lon="6.59245">
        <ele>384.7</ele>
        <time>2024-12-11T11:11:15Z</time>
      </trkpt>
      <trkpt lat="48.21544" lon="6.59235">
        <ele>384.3</ele>
        <time>2024-12-11T11:11:23Z</time>
      </trkpt>
      <trkpt lat="48.21552" lon="6.59226">
        <ele>383.8</ele>
        <time>2024-12-11T11:11:31Z</time>
      </trkpt>
      <trkpt lat="48.21559" lon="6.59216">
        <ele>383.2</ele>
        <time>2024-12-11T11:11:39Z</time>
      </trkpt>
      <trkpt lat="48.21567" lon="6.59206">
        <ele>382.5</ele>
        <time>2024-12-11T11:11:47Z</time>
      </trkpt>
      <trkpt lat="48.21574" lon="6.59197">
        <ele>381.8</ele>
        <time>2024-12-11T11:11:55Z</time>
      </trkpt>
      <trkpt lat="48.21581" lon="6.59186">
        <ele>381</ele>
        <time>2024-12-11T11:12:03Z</time>
      </trkpt>
      <trkpt lat="48.21586" lon="6.59175">
        <ele>380.3</ele>
        <time>2024-12-11T11:12:10Z</time>
      </trkpt>
      <trkpt lat="48.21593" lon="6.59166">
        <ele>379.5</ele>
        <time>2024-12-11T11:12:17Z</time>
      </trkpt>
      <trkpt lat="48.216" lon="6.59156">
        <ele>378.9</ele>
        <time>2024-12-11T11:12:24Z</time>
      </trkpt>
      <trkpt lat="48.21608" lon="6.59147">
        <ele>378.2</ele>
        <time>2024-12-11T11:12:32Z</time>
      </trkpt>
      <trkpt lat="48.21615" lon="6.59137">
        <ele>377</ele>
        <time>2024-12-11T11:12:40Z</time>
      </trkpt>
      <trkpt lat="48.21621" lon="6.59126">
        <ele>375.8</ele>
        <time>2024-12-11T11:12:48Z</time>
      </trkpt>
      <trkpt lat="48.21628" lon="6.59116">
        <ele>374.7</ele>
        <time>2024-12-11T11:12:56Z</time>
      </trkpt>
      <trkpt lat="48.21634" lon="6.59104">
        <ele>373.6</ele>
        <time>2024-12-11T11:13:04Z</time>
      </trkpt>
      <trkpt lat="48.2164" lon="6.59092">
        <ele>372.5</ele>
        <time>2024-12-11T11:13:12Z</time>
      </trkpt>
      <trkpt lat="48.21647" lon="6.59081">
        <ele>371.4</ele>
        <time>2024-12-11T11:13:20Z</time>
      </trkpt>
      <trkpt lat="48.21655" lon="6.59074">
        <ele>370.4</ele>
        <time>2024-12-11T11:13:28Z</time>
      </trkpt>
      <trkpt lat="48.21664" lon="6.59068">
        <ele>369.5</ele>
        <time>2024-12-11T11:13:35Z</time>
      </trkpt>
      <trkpt lat="48.21672" lon="6.59063">
        <ele>368.7</ele>
        <time>2024-12-11T11:13:42Z</time>
      </trkpt>
      <trkpt lat="48.21682" lon="6.59058">
        <ele>368</ele>
        <time>2024-12-11T11:13:50Z</time>
      </trkpt>
      <trkpt lat="48.21691" lon="6.59053">
        <ele>367.4</ele>
        <time>2024-12-11T11:13:57Z</time>
      </trkpt>
      <trkpt lat="48.21699" lon="6.59047">
        <ele>366.9</ele>
        <time>2024-12-11T11:14:04Z</time>
      </trkpt>
      <trkpt lat="48.21707" lon="6.59039">
        <ele>366.4</ele>
        <time>2024-12-11T11:14:12Z</time>
      </trkpt>
      <trkpt lat="48.21715" lon="6.59031">
        <ele>366</ele>
        <time>2024-12-11T11:14:20Z</time>
      </trkpt>
      <trkpt lat="48.21723" lon="6.59021">
        <ele>365.6</ele>
        <time>2024-12-11T11:14:28Z</time>
      </trkpt>
      <trkpt lat="48.2173" lon="6.59012">
        <ele>365.2</ele>
        <time>2024-12-11T11:14:35Z</time>
      </trkpt>
      <trkpt lat="48.21737" lon="6.59002">
        <ele>364.9</ele>
        <time>2024-12-11T11:14:42Z</time>
      </trkpt>
      <trkpt lat="48.21744" lon="6.58993">
        <ele>364.6</ele>
        <time>2024-12-11T11:14:49Z</time>
      </trkpt>
      <trkpt lat="48.2175" lon="6.58981">
        <ele>364.5</ele>
        <time>2024-12-11T11:14:57Z</time>
      </trkpt>
      <trkpt lat="48.21755" lon="6.58969">
        <ele>364.4</ele>
        <time>2024-12-11T11:15:05Z</time>
      </trkpt>
      <trkpt lat="48.21759" lon="6.58957">
        <ele>364.3</ele>
        <time>2024-12-11T11:15:12Z</time>
      </trkpt>
      <trkpt lat="48.21762" lon="6.58942">
        <ele>364.3</ele>
        <time>2024-12-11T11:15:20Z</time>
      </trkpt>
      <trkpt lat="48.21763" lon="6.58927">
        <ele>364.2</ele>
        <time>2024-12-11T11:15:28Z</time>
      </trkpt>
      <trkpt lat="48.21766" lon="6.58913">
        <ele>364.1</ele>
        <time>2024-12-11T11:15:36Z</time>
      </trkpt>
      <trkpt lat="48.21772" lon="6.58902">
        <ele>363.9</ele>
        <time>2024-12-11T11:15:44Z</time>
      </trkpt>
      <trkpt lat="48.21782" lon="6.58898">
        <ele>363.7</ele>
        <time>2024-12-11T11:15:52Z</time>
      </trkpt>
      <trkpt lat="48.21792" lon="6.589">
        <ele>363.4</ele>
        <time>2024-12-11T11:16:00Z</time>
      </trkpt>
      <trkpt lat="48.21802" lon="6.58905">
        <ele>363.1</ele>
        <time>2024-12-11T11:16:08Z</time>
      </trkpt>
      <trkpt lat="48.21811" lon="6.5891">
        <ele>362.8</ele>
        <time>2024-12-11T11:16:16Z</time>
      </trkpt>
      <trkpt lat="48.2182" lon="6.58916">
        <ele>362.5</ele>
        <time>2024-12-11T11:16:24Z</time>
      </trkpt>
      <trkpt lat="48.21827" lon="6.58919">
        <ele>362.3</ele>
        <time>2024-12-11T11:16:41Z</time>
      </trkpt>
      <trkpt lat="48.21827" lon="6.58919">
        <ele>362.3</ele>
        <time>2024-12-11T11:16:42Z</time>
      </trkpt>
      <trkpt lat="48.2183" lon="6.58922">
        <ele>362.2</ele>
        <time>2024-12-11T11:16:49Z</time>
      </trkpt>
      <trkpt lat="48.21831" lon="6.58923">
        <ele>362.2</ele>
        <time>2024-12-11T11:16:50Z</time>
      </trkpt>
      <trkpt lat="48.21831" lon="6.58923">
        <ele>362.2</ele>
        <time>2024-12-11T11:16:51Z</time>
      </trkpt>
      <trkpt lat="48.21832" lon="6.58924">
        <ele>362.2</ele>
        <time>2024-12-11T11:16:56Z</time>
      </trkpt>
      <trkpt lat="48.21831" lon="6.58924">
        <ele>362.2</ele>
        <time>2024-12-11T11:16:57Z</time>
      </trkpt>
      <trkpt lat="48.21831" lon="6.58924">
        <ele>362.1</ele>
        <time>2024-12-11T11:16:58Z</time>
      </trkpt>
      <trkpt lat="48.21832" lon="6.58925">
        <ele>362.1</ele>
        <time>2024-12-11T11:16:59Z</time>
      </trkpt>
      <trkpt lat="48.21832" lon="6.58927">
        <ele>362.1</ele>
        <time>2024-12-11T11:17:00Z</time>
      </trkpt>
      <trkpt lat="48.21833" lon="6.58928">
        <ele>362.1</ele>
        <time>2024-12-11T11:17:04Z</time>
      </trkpt>
      <trkpt lat="48.21833" lon="6.58928">
        <ele>362.1</ele>
        <time>2024-12-11T11:17:05Z</time>
      </trkpt>
      <trkpt lat="48.21833" lon="6.58928">
        <ele>362.1</ele>
        <time>2024-12-11T11:17:24Z</time>
      </trkpt>
      <trkpt lat="48.21833" lon="6.58928">
        <ele>362.1</ele>
        <time>2024-12-11T11:17:25Z</time>
      </trkpt>
      <trkpt lat="48.21833" lon="6.58928">
        <ele>362.1</ele>
        <time>2024-12-11T11:17:26Z</time>
      </trkpt>
      <trkpt lat="48.21833" lon="6.58928">
        <ele>362.1</ele>
        <time>2024-12-11T11:17:27Z</time>
      </trkpt>
      <trkpt lat="48.21833" lon="6.58928">
        <ele>362.1</ele>
        <time>2024-12-11T11:17:28Z</time>
      </trkpt>
      <trkpt lat="48.21831" lon="6.58922">
        <ele>362.2</ele>
        <time>2024-12-11T11:17:47Z</time>
      </trkpt>
      <trkpt lat="48.2183" lon="6.5892">
        <ele>362.2</ele>
        <time>2024-12-11T11:17:48Z</time>
      </trkpt>
      <trkpt lat="48.21827" lon="6.58908">
        <ele>362.4</ele>
        <time>2024-12-11T11:17:55Z</time>
      </trkpt>
      <trkpt lat="48.21826" lon="6.58894">
        <ele>362.6</ele>
        <time>2024-12-11T11:18:02Z</time>
      </trkpt>
      <trkpt lat="48.21824" lon="6.58881">
        <ele>362.8</ele>
        <time>2024-12-11T11:18:09Z</time>
      </trkpt>
      <trkpt lat="48.21822" lon="6.58866">
        <ele>363.1</ele>
        <time>2024-12-11T11:18:17Z</time>
      </trkpt>
      <trkpt lat="48.21821" lon="6.58851">
        <ele>363.6</ele>
        <time>2024-12-11T11:18:26Z</time>
      </trkpt>
      <trkpt lat="48.21822" lon="6.58837">
        <ele>363.7</ele>
        <time>2024-12-11T11:18:36Z</time>
      </trkpt>
      <trkpt lat="48.21821" lon="6.58831">
        <ele>363.8</ele>
        <time>2024-12-11T11:18:49Z</time>
      </trkpt>
      <trkpt lat="48.2182" lon="6.58831">
        <ele>363.8</ele>
        <time>2024-12-11T11:18:50Z</time>
      </trkpt>
      <trkpt lat="48.2182" lon="6.58832">
        <ele>363.8</ele>
        <time>2024-12-11T11:18:51Z</time>
      </trkpt>
      <trkpt lat="48.2182" lon="6.58832">
        <ele>363.8</ele>
        <time>2024-12-11T11:18:52Z</time>
      </trkpt>
      <trkpt lat="48.21817" lon="6.58834">
        <ele>363.9</ele>
        <time>2024-12-11T11:19:01Z</time>
      </trkpt>
      <trkpt lat="48.21817" lon="6.58834">
        <ele>363.9</ele>
        <time>2024-12-11T11:19:02Z</time>
      </trkpt>
      <trkpt lat="48.21817" lon="6.58835">
        <ele>363.9</ele>
        <time>2024-12-11T11:19:03Z</time>
      </trkpt>
      <trkpt lat="48.21813" lon="6.58834">
        <ele>363.9</ele>
        <time>2024-12-11T11:19:21Z</time>
      </trkpt>
      <trkpt lat="48.21811" lon="6.58834">
        <ele>364</ele>
        <time>2024-12-11T11:19:22Z</time>
      </trkpt>
      <trkpt lat="48.21809" lon="6.58834">
        <ele>364</ele>
        <time>2024-12-11T11:19:23Z</time>
      </trkpt>
      <trkpt lat="48.21808" lon="6.58834">
        <ele>364</ele>
        <time>2024-12-11T11:19:24Z</time>
      </trkpt>
      <trkpt lat="48.21806" lon="6.58833">
        <ele>364</ele>
        <time>2024-12-11T11:19:25Z</time>
      </trkpt>
      <trkpt lat="48.21805" lon="6.58834">
        <ele>364</ele>
        <time>2024-12-11T11:19:26Z</time>
      </trkpt>
      <trkpt lat="48.21805" lon="6.58835">
        <ele>364</ele>
        <time>2024-12-11T11:19:27Z</time>
      </trkpt>
      <trkpt lat="48.21802" lon="6.58836">
        <ele>364.1</ele>
        <time>2024-12-11T11:19:31Z</time>
      </trkpt>
      <trkpt lat="48.21802" lon="6.58836">
        <ele>364.1</ele>
        <time>2024-12-11T11:19:32Z</time>
      </trkpt>
      <trkpt lat="48.21802" lon="6.58836">
        <ele>364.1</ele>
        <time>2024-12-11T11:19:33Z</time>
      </trkpt>
      <trkpt lat="48.21811" lon="6.58839">
        <ele>364.2</ele>
        <time>2024-12-11T11:20:19Z</time>
      </trkpt>
      <trkpt lat="48.21811" lon="6.58838">
        <ele>364.2</ele>
        <time>2024-12-11T11:20:27Z</time>
      </trkpt>
      <trkpt lat="48.21809" lon="6.58839">
        <ele>364.3</ele>
        <time>2024-12-11T11:20:28Z</time>
      </trkpt>
      <trkpt lat="48.21808" lon="6.5884">
        <ele>364.3</ele>
        <time>2024-12-11T11:20:29Z</time>
      </trkpt>
      <trkpt lat="48.21809" lon="6.5884">
        <ele>364.3</ele>
        <time>2024-12-11T11:20:30Z</time>
      </trkpt>
      <trkpt lat="48.21808" lon="6.5884">
        <ele>364.3</ele>
        <time>2024-12-11T11:20:53Z</time>
      </trkpt>
      <trkpt lat="48.21808" lon="6.58839">
        <ele>364.3</ele>
        <time>2024-12-11T11:20:54Z</time>
      </trkpt>
      <trkpt lat="48.21809" lon="6.58839">
        <ele>364.3</ele>
        <time>2024-12-11T11:20:55Z</time>
      </trkpt>
      <trkpt lat="48.21811" lon="6.58836">
        <ele>364.4</ele>
        <time>2024-12-11T11:20:59Z</time>
      </trkpt>
      <trkpt lat="48.21811" lon="6.58836">
        <ele>364.4</ele>
        <time>2024-12-11T11:21:00Z</time>
      </trkpt>
      <trkpt lat="48.2182" lon="6.58834">
        <ele>364.5</ele>
        <time>2024-12-11T11:21:14Z</time>
      </trkpt>
      <trkpt lat="48.21816" lon="6.58838">
        <ele>364.6</ele>
        <time>2024-12-11T11:21:31Z</time>
      </trkpt>
      <trkpt lat="48.21815" lon="6.58839">
        <ele>364.6</ele>
        <time>2024-12-11T11:21:32Z</time>
      </trkpt>
      <trkpt lat="48.21816" lon="6.5884">
        <ele>364.6</ele>
        <time>2024-12-11T11:21:33Z</time>
      </trkpt>
      <trkpt lat="48.21816" lon="6.5884">
        <ele>364.6</ele>
        <time>2024-12-11T11:21:34Z</time>
      </trkpt>
      <trkpt lat="48.21815" lon="6.5884">
        <ele>364.6</ele>
        <time>2024-12-11T11:21:35Z</time>
      </trkpt>
      <trkpt lat="48.21812" lon="6.58844">
        <ele>364.7</ele>
        <time>2024-12-11T11:21:42Z</time>
      </trkpt>
      <trkpt lat="48.21812" lon="6.58844">
        <ele>364.7</ele>
        <time>2024-12-11T11:21:43Z</time>
      </trkpt>
      <trkpt lat="48.21813" lon="6.58844">
        <ele>364.7</ele>
        <time>2024-12-11T11:21:44Z</time>
      </trkpt>
      <trkpt lat="48.21813" lon="6.58845">
        <ele>364.7</ele>
        <time>2024-12-11T11:21:45Z</time>
      </trkpt>
      <trkpt lat="48.21822" lon="6.58842">
        <ele>364.9</ele>
        <time>2024-12-11T11:22:00Z</time>
      </trkpt>
      <trkpt lat="48.21821" lon="6.58834">
        <ele>365</ele>
        <time>2024-12-11T11:22:06Z</time>
      </trkpt>
      <trkpt lat="48.21819" lon="6.58834">
        <ele>365</ele>
        <time>2024-12-11T11:22:07Z</time>
      </trkpt>
      <trkpt lat="48.21819" lon="6.58835">
        <ele>365</ele>
        <time>2024-12-11T11:22:11Z</time>
      </trkpt>
      <trkpt lat="48.21819" lon="6.58836">
        <ele>365</ele>
        <time>2024-12-11T11:22:12Z</time>
      </trkpt>
      <trkpt lat="48.21813" lon="6.58838">
        <ele>365.1</ele>
        <time>2024-12-11T11:22:19Z</time>
      </trkpt>
      <trkpt lat="48.21813" lon="6.58838">
        <ele>365.1</ele>
        <time>2024-12-11T11:22:20Z</time>
      </trkpt>
      <trkpt lat="48.21812" lon="6.58838">
        <ele>365.1</ele>
        <time>2024-12-11T11:22:21Z</time>
      </trkpt>
      <trkpt lat="48.21811" lon="6.58838">
        <ele>365.1</ele>
        <time>2024-12-11T11:22:22Z</time>
      </trkpt>
      <trkpt lat="48.21811" lon="6.58838">
        <ele>365.1</ele>
        <time>2024-12-11T11:22:23Z</time>
      </trkpt>
      <trkpt lat="48.21818" lon="6.5884">
        <ele>365.3</ele>
        <time>2024-12-11T11:22:56Z</time>
      </trkpt>
      <trkpt lat="48.21816" lon="6.5884">
        <ele>365.3</ele>
        <time>2024-12-11T11:22:57Z</time>
      </trkpt>
      <trkpt lat="48.21815" lon="6.58826">
        <ele>365.4</ele>
        <time>2024-12-11T11:23:12Z</time>
      </trkpt>
      <trkpt lat="48.21809" lon="6.58815">
        <ele>365.6</ele>
        <time>2024-12-11T11:23:19Z</time>
      </trkpt>
      <trkpt lat="48.21801" lon="6.58807">
        <ele>367.2</ele>
        <time>2024-12-11T11:23:27Z</time>
      </trkpt>
      <trkpt lat="48.21791" lon="6.58811">
        <ele>368.5</ele>
        <time>2024-12-11T11:23:34Z</time>
      </trkpt>
      <trkpt lat="48.21782" lon="6.58818">
        <ele>369.6</ele>
        <time>2024-12-11T11:23:41Z</time>
      </trkpt>
      <trkpt lat="48.21773" lon="6.58823">
        <ele>370.6</ele>
        <time>2024-12-11T11:23:48Z</time>
      </trkpt>
      <trkpt lat="48.21763" lon="6.58826">
        <ele>371.5</ele>
        <time>2024-12-11T11:23:55Z</time>
      </trkpt>
      <trkpt lat="48.21754" lon="6.58829">
        <ele>372.3</ele>
        <time>2024-12-11T11:24:02Z</time>
      </trkpt>
      <trkpt lat="48.21744" lon="6.58831">
        <ele>373</ele>
        <time>2024-12-11T11:24:09Z</time>
      </trkpt>
      <trkpt lat="48.21734" lon="6.5883">
        <ele>373.7</ele>
        <time>2024-12-11T11:24:16Z</time>
      </trkpt>
      <trkpt lat="48.21725" lon="6.58827">
        <ele>374.5</ele>
        <time>2024-12-11T11:24:23Z</time>
      </trkpt>
      <trkpt lat="48.21716" lon="6.58824">
        <ele>375.2</ele>
        <time>2024-12-11T11:24:30Z</time>
      </trkpt>
      <trkpt lat="48.21707" lon="6.58821">
        <ele>376</ele>
        <time>2024-12-11T11:24:37Z</time>
      </trkpt>
      <trkpt lat="48.21698" lon="6.58821">
        <ele>376.7</ele>
        <time>2024-12-11T11:24:44Z</time>
      </trkpt>
      <trkpt lat="48.21689" lon="6.58822">
        <ele>377.3</ele>
        <time>2024-12-11T11:24:51Z</time>
      </trkpt>
      <trkpt lat="48.2168" lon="6.58819">
        <ele>377.8</ele>
        <time>2024-12-11T11:24:58Z</time>
      </trkpt>
      <trkpt lat="48.21671" lon="6.58814">
        <ele>378.3</ele>
        <time>2024-12-11T11:25:05Z</time>
      </trkpt>
      <trkpt lat="48.21663" lon="6.58809">
        <ele>378.9</ele>
        <time>2024-12-11T11:25:12Z</time>
      </trkpt>
      <trkpt lat="48.21654" lon="6.58803">
        <ele>379.5</ele>
        <time>2024-12-11T11:25:19Z</time>
      </trkpt>
      <trkpt lat="48.21646" lon="6.58795">
        <ele>380.1</ele>
        <time>2024-12-11T11:25:26Z</time>
      </trkpt>
      <trkpt lat="48.21637" lon="6.5879">
        <ele>380.8</ele>
        <time>2024-12-11T11:25:33Z</time>
      </trkpt>
      <trkpt lat="48.21629" lon="6.58784">
        <ele>381.1</ele>
        <time>2024-12-11T11:25:40Z</time>
      </trkpt>
      <trkpt lat="48.2162" lon="6.58778">
        <ele>381.4</ele>
        <time>2024-12-11T11:25:47Z</time>
      </trkpt>
      <trkpt lat="48.21611" lon="6.58773">
        <ele>381.6</ele>
        <time>2024-12-11T11:25:54Z</time>
      </trkpt>
      <trkpt lat="48.21602" lon="6.5877">
        <ele>381.7</ele>
        <time>2024-12-11T11:26:01Z</time>
      </trkpt>
      <trkpt lat="48.21592" lon="6.58766">
        <ele>382</ele>
        <time>2024-12-11T11:26:11Z</time>
      </trkpt>
      <trkpt lat="48.21583" lon="6.58766">
        <ele>382.3</ele>
        <time>2024-12-11T11:26:18Z</time>
      </trkpt>
      <trkpt lat="48.21573" lon="6.58762">
        <ele>382.7</ele>
        <time>2024-12-11T11:26:26Z</time>
      </trkpt>
      <trkpt lat="48.21564" lon="6.5876">
        <ele>383.3</ele>
        <time>2024-12-11T11:26:33Z</time>
      </trkpt>
      <trkpt lat="48.21554" lon="6.58758">
        <ele>383.8</ele>
        <time>2024-12-11T11:26:40Z</time>
      </trkpt>
      <trkpt lat="48.21544" lon="6.58759">
        <ele>384.3</ele>
        <time>2024-12-11T11:26:48Z</time>
      </trkpt>
      <trkpt lat="48.21535" lon="6.58761">
        <ele>384.7</ele>
        <time>2024-12-11T11:26:55Z</time>
      </trkpt>
      <trkpt lat="48.21526" lon="6.58762">
        <ele>385</ele>
        <time>2024-12-11T11:27:02Z</time>
      </trkpt>
      <trkpt lat="48.21517" lon="6.58765">
        <ele>385.3</ele>
        <time>2024-12-11T11:27:10Z</time>
      </trkpt>
      <trkpt lat="48.21507" lon="6.5877">
        <ele>385.6</ele>
        <time>2024-12-11T11:27:18Z</time>
      </trkpt>
      <trkpt lat="48.21499" lon="6.58779">
        <ele>385.9</ele>
        <time>2024-12-11T11:27:26Z</time>
      </trkpt>
      <trkpt lat="48.21491" lon="6.58785">
        <ele>386.3</ele>
        <time>2024-12-11T11:27:33Z</time>
      </trkpt>
      <trkpt lat="48.21481" lon="6.58788">
        <ele>386.7</ele>
        <time>2024-12-11T11:27:40Z</time>
      </trkpt>
      <trkpt lat="48.21471" lon="6.58791">
        <ele>387.1</ele>
        <time>2024-12-11T11:27:48Z</time>
      </trkpt>
      <trkpt lat="48.21462" lon="6.58794">
        <ele>387.6</ele>
        <time>2024-12-11T11:27:56Z</time>
      </trkpt>
      <trkpt lat="48.21452" lon="6.58799">
        <ele>388</ele>
        <time>2024-12-11T11:28:04Z</time>
      </trkpt>
      <trkpt lat="48.21443" lon="6.58801">
        <ele>388.4</ele>
        <time>2024-12-11T11:28:12Z</time>
      </trkpt>
      <trkpt lat="48.21433" lon="6.58804">
        <ele>388.8</ele>
        <time>2024-12-11T11:28:20Z</time>
      </trkpt>
      <trkpt lat="48.21423" lon="6.58807">
        <ele>389.2</ele>
        <time>2024-12-11T11:28:28Z</time>
      </trkpt>
      <trkpt lat="48.21413" lon="6.5881">
        <ele>389.6</ele>
        <time>2024-12-11T11:28:36Z</time>
      </trkpt>
      <trkpt lat="48.21404" lon="6.58813">
        <ele>390</ele>
        <time>2024-12-11T11:28:43Z</time>
      </trkpt>
      <trkpt lat="48.21395" lon="6.58815">
        <ele>390.3</ele>
        <time>2024-12-11T11:28:50Z</time>
      </trkpt>
      <trkpt lat="48.21385" lon="6.58816">
        <ele>390.8</ele>
        <time>2024-12-11T11:28:57Z</time>
      </trkpt>
      <trkpt lat="48.21376" lon="6.58818">
        <ele>391.3</ele>
        <time>2024-12-11T11:29:04Z</time>
      </trkpt>
      <trkpt lat="48.21367" lon="6.5882">
        <ele>391.7</ele>
        <time>2024-12-11T11:29:11Z</time>
      </trkpt>
      <trkpt lat="48.21358" lon="6.58823">
        <ele>392.2</ele>
        <time>2024-12-11T11:29:18Z</time>
      </trkpt>
      <trkpt lat="48.21349" lon="6.58825">
        <ele>392.8</ele>
        <time>2024-12-11T11:29:25Z</time>
      </trkpt>
      <trkpt lat="48.2134" lon="6.58829">
        <ele>393.4</ele>
        <time>2024-12-11T11:29:32Z</time>
      </trkpt>
      <trkpt lat="48.21331" lon="6.58833">
        <ele>394</ele>
        <time>2024-12-11T11:29:39Z</time>
      </trkpt>
      <trkpt lat="48.21323" lon="6.58839">
        <ele>394.5</ele>
        <time>2024-12-11T11:29:46Z</time>
      </trkpt>
      <trkpt lat="48.21314" lon="6.58845">
        <ele>395</ele>
        <time>2024-12-11T11:29:53Z</time>
      </trkpt>
      <trkpt lat="48.21305" lon="6.58851">
        <ele>395.6</ele>
        <time>2024-12-11T11:30:01Z</time>
      </trkpt>
      <trkpt lat="48.21296" lon="6.58857">
        <ele>396.2</ele>
        <time>2024-12-11T11:30:09Z</time>
      </trkpt>
      <trkpt lat="48.21287" lon="6.58862">
        <ele>396.9</ele>
        <time>2024-12-11T11:30:17Z</time>
      </trkpt>
      <trkpt lat="48.21277" lon="6.58866">
        <ele>397.5</ele>
        <time>2024-12-11T11:30:25Z</time>
      </trkpt>
      <trkpt lat="48.21268" lon="6.58869">
        <ele>398.1</ele>
        <time>2024-12-11T11:30:33Z</time>
      </trkpt>
      <trkpt lat="48.21259" lon="6.58872">
        <ele>398.7</ele>
        <time>2024-12-11T11:30:41Z</time>
      </trkpt>
      <trkpt lat="48.21249" lon="6.58874">
        <ele>399.3</ele>
        <time>2024-12-11T11:30:49Z</time>
      </trkpt>
      <trkpt lat="48.21239" lon="6.58875">
        <ele>399.7</ele>
        <time>2024-12-11T11:30:57Z</time>
      </trkpt>
      <trkpt lat="48.21229" lon="6.58876">
        <ele>400.1</ele>
        <time>2024-12-11T11:31:05Z</time>
      </trkpt>
      <trkpt lat="48.21219" lon="6.58877">
        <ele>400.5</ele>
        <time>2024-12-11T11:31:13Z</time>
      </trkpt>
      <trkpt lat="48.2121" lon="6.58879">
        <ele>400.8</ele>
        <time>2024-12-11T11:31:20Z</time>
      </trkpt>
      <trkpt lat="48.212" lon="6.5888">
        <ele>401.2</ele>
        <time>2024-12-11T11:31:28Z</time>
      </trkpt>
      <trkpt lat="48.2119" lon="6.58883">
        <ele>401.5</ele>
        <time>2024-12-11T11:31:36Z</time>
      </trkpt>
      <trkpt lat="48.2118" lon="6.58884">
        <ele>401.8</ele>
        <time>2024-12-11T11:31:44Z</time>
      </trkpt>
      <trkpt lat="48.2117" lon="6.58887">
        <ele>402.1</ele>
        <time>2024-12-11T11:31:52Z</time>
      </trkpt>
      <trkpt lat="48.21161" lon="6.58889">
        <ele>402.4</ele>
        <time>2024-12-11T11:31:59Z</time>
      </trkpt>
      <trkpt lat="48.21151" lon="6.58892">
        <ele>402.5</ele>
        <time>2024-12-11T11:32:07Z</time>
      </trkpt>
      <trkpt lat="48.21145" lon="6.58893">
        <ele>402.5</ele>
        <time>2024-12-11T11:32:16Z</time>
      </trkpt>
      <trkpt lat="48.21145" lon="6.58893">
        <ele>402.5</ele>
        <time>2024-12-11T11:32:17Z</time>
      </trkpt>
      <trkpt lat="48.21145" lon="6.58893">
        <ele>402.5</ele>
        <time>2024-12-11T11:32:18Z</time>
      </trkpt>
      <trkpt lat="48.21142" lon="6.58894">
        <ele>402.5</ele>
        <time>2024-12-11T11:32:34Z</time>
      </trkpt>
      <trkpt lat="48.21141" lon="6.58894">
        <ele>402.5</ele>
        <time>2024-12-11T11:32:35Z</time>
      </trkpt>
      <trkpt lat="48.21131" lon="6.58898">
        <ele>402.3</ele>
        <time>2024-12-11T11:32:43Z</time>
      </trkpt>
      <trkpt lat="48.21122" lon="6.58901">
        <ele>402.1</ele>
        <time>2024-12-11T11:32:51Z</time>
      </trkpt>
      <trkpt lat="48.21112" lon="6.58905">
        <ele>401.9</ele>
        <time>2024-12-11T11:32:59Z</time>
      </trkpt>
      <trkpt lat="48.21103" lon="6.58909">
        <ele>401.7</ele>
        <time>2024-12-11T11:33:07Z</time>
      </trkpt>
      <trkpt lat="48.21094" lon="6.58911">
        <ele>401.4</ele>
        <time>2024-12-11T11:33:15Z</time>
      </trkpt>
      <trkpt lat="48.21085" lon="6.58916">
        <ele>401.1</ele>
        <time>2024-12-11T11:33:23Z</time>
      </trkpt>
      <trkpt lat="48.21075" lon="6.58917">
        <ele>400.8</ele>
        <time>2024-12-11T11:33:31Z</time>
      </trkpt>
      <trkpt lat="48.21066" lon="6.58914">
        <ele>400.5</ele>
        <time>2024-12-11T11:33:39Z</time>
      </trkpt>
      <trkpt lat="48.21057" lon="6.58906">
        <ele>400</ele>
        <time>2024-12-11T11:33:47Z</time>
      </trkpt>
      <trkpt lat="48.21049" lon="6.58899">
        <ele>399.5</ele>
        <time>2024-12-11T11:33:56Z</time>
      </trkpt>
      <trkpt lat="48.21039" lon="6.58893">
        <ele>399.1</ele>
        <time>2024-12-11T11:34:03Z</time>
      </trkpt>
      <trkpt lat="48.2103" lon="6.58891">
        <ele>398.7</ele>
        <time>2024-12-11T11:34:10Z</time>
      </trkpt>
      <trkpt lat="48.2102" lon="6.58891">
        <ele>398.4</ele>
        <time>2024-12-11T11:34:17Z</time>
      </trkpt>
      <trkpt lat="48.21011" lon="6.58896">
        <ele>398</ele>
        <time>2024-12-11T11:34:25Z</time>
      </trkpt>
      <trkpt lat="48.21002" lon="6.58902">
        <ele>397.7</ele>
        <time>2024-12-11T11:34:32Z</time>
      </trkpt>
      <trkpt lat="48.20996" lon="6.58912">
        <ele>397.2</ele>
        <time>2024-12-11T11:34:39Z</time>
      </trkpt>
      <trkpt lat="48.20991" lon="6.58925">
        <ele>396.8</ele>
        <time>2024-12-11T11:34:46Z</time>
      </trkpt>
      <trkpt lat="48.20985" lon="6.58936">
        <ele>396.4</ele>
        <time>2024-12-11T11:34:53Z</time>
      </trkpt>
      <trkpt lat="48.20978" lon="6.58945">
        <ele>396.1</ele>
        <time>2024-12-11T11:35:01Z</time>
      </trkpt>
      <trkpt lat="48.2097" lon="6.58952">
        <ele>395.8</ele>
        <time>2024-12-11T11:35:09Z</time>
      </trkpt>
      <trkpt lat="48.20961" lon="6.58959">
        <ele>395.6</ele>
        <time>2024-12-11T11:35:17Z</time>
      </trkpt>
      <trkpt lat="48.20952" lon="6.58965">
        <ele>395.5</ele>
        <time>2024-12-11T11:35:24Z</time>
      </trkpt>
      <trkpt lat="48.20943" lon="6.5897">
        <ele>395.5</ele>
        <time>2024-12-11T11:35:30Z</time>
      </trkpt>
      <trkpt lat="48.2094" lon="6.58971">
        <ele>395.5</ele>
        <time>2024-12-11T11:35:36Z</time>
      </trkpt>
      <trkpt lat="48.2094" lon="6.58971">
        <ele>395.5</ele>
        <time>2024-12-11T11:35:37Z</time>
      </trkpt>
      <trkpt lat="48.2094" lon="6.58971">
        <ele>395.5</ele>
        <time>2024-12-11T11:35:38Z</time>
      </trkpt>
      <trkpt lat="48.20939" lon="6.58972">
        <ele>395.5</ele>
        <time>2024-12-11T11:35:39Z</time>
      </trkpt>
      <trkpt lat="48.20938" lon="6.58972">
        <ele>395.5</ele>
        <time>2024-12-11T11:35:40Z</time>
      </trkpt>
      <trkpt lat="48.20928" lon="6.58973">
        <ele>395.6</ele>
        <time>2024-12-11T11:35:48Z</time>
      </trkpt>
      <trkpt lat="48.20918" lon="6.58976">
        <ele>395.6</ele>
        <time>2024-12-11T11:35:56Z</time>
      </trkpt>
      <trkpt lat="48.20909" lon="6.58978">
        <ele>395.7</ele>
        <time>2024-12-11T11:36:02Z</time>
      </trkpt>
      <trkpt lat="48.209" lon="6.58983">
        <ele>395.8</ele>
        <time>2024-12-11T11:36:09Z</time>
      </trkpt>
      <trkpt lat="48.20892" lon="6.5899">
        <ele>396</ele>
        <time>2024-12-11T11:36:16Z</time>
      </trkpt>
      <trkpt lat="48.20884" lon="6.58999">
        <ele>396.2</ele>
        <time>2024-12-11T11:36:22Z</time>
      </trkpt>
      <trkpt lat="48.20877" lon="6.59008">
        <ele>396.4</ele>
        <time>2024-12-11T11:36:29Z</time>
      </trkpt>
      <trkpt lat="48.2087" lon="6.59019">
        <ele>396.7</ele>
        <time>2024-12-11T11:36:37Z</time>
      </trkpt>
      <trkpt lat="48.20864" lon="6.5903">
        <ele>397</ele>
        <time>2024-12-11T11:36:45Z</time>
      </trkpt>
      <trkpt lat="48.20858" lon="6.59041">
        <ele>397.3</ele>
        <time>2024-12-11T11:36:52Z</time>
      </trkpt>
      <trkpt lat="48.20851" lon="6.59053">
        <ele>397.7</ele>
        <time>2024-12-11T11:37:00Z</time>
      </trkpt>
      <trkpt lat="48.20843" lon="6.59063">
        <ele>398</ele>
        <time>2024-12-11T11:37:08Z</time>
      </trkpt>
      <trkpt lat="48.20835" lon="6.59072">
        <ele>398.2</ele>
        <time>2024-12-11T11:37:16Z</time>
      </trkpt>
      <trkpt lat="48.20828" lon="6.59082">
        <ele>398.4</ele>
        <time>2024-12-11T11:37:24Z</time>
      </trkpt>
      <trkpt lat="48.2082" lon="6.5909">
        <ele>398.5</ele>
        <time>2024-12-11T11:37:31Z</time>
      </trkpt>
      <trkpt lat="48.20813" lon="6.591">
        <ele>398.6</ele>
        <time>2024-12-11T11:37:38Z</time>
      </trkpt>
      <trkpt lat="48.20805" lon="6.59109">
        <ele>398.7</ele>
        <time>2024-12-11T11:37:45Z</time>
      </trkpt>
      <trkpt lat="48.20797" lon="6.59119">
        <ele>398.9</ele>
        <time>2024-12-11T11:37:53Z</time>
      </trkpt>
      <trkpt lat="48.20789" lon="6.59126">
        <ele>399.1</ele>
        <time>2024-12-11T11:38:01Z</time>
      </trkpt>
      <trkpt lat="48.2078" lon="6.59133">
        <ele>399.4</ele>
        <time>2024-12-11T11:38:08Z</time>
      </trkpt>
      <trkpt lat="48.20771" lon="6.59138">
        <ele>399.9</ele>
        <time>2024-12-11T11:38:16Z</time>
      </trkpt>
      <trkpt lat="48.20763" lon="6.59147">
        <ele>400.4</ele>
        <time>2024-12-11T11:38:24Z</time>
      </trkpt>
      <trkpt lat="48.20755" lon="6.59153">
        <ele>400.9</ele>
        <time>2024-12-11T11:38:31Z</time>
      </trkpt>
      <trkpt lat="48.20746" lon="6.59159">
        <ele>401.5</ele>
        <time>2024-12-11T11:38:38Z</time>
      </trkpt>
      <trkpt lat="48.20738" lon="6.59165">
        <ele>402</ele>
        <time>2024-12-11T11:38:45Z</time>
      </trkpt>
      <trkpt lat="48.20729" lon="6.5917">
        <ele>402.5</ele>
        <time>2024-12-11T11:38:52Z</time>
      </trkpt>
      <trkpt lat="48.2072" lon="6.59176">
        <ele>403.1</ele>
        <time>2024-12-11T11:39:00Z</time>
      </trkpt>
      <trkpt lat="48.20711" lon="6.5918">
        <ele>403.8</ele>
        <time>2024-12-11T11:39:08Z</time>
      </trkpt>
      <trkpt lat="48.20702" lon="6.59185">
        <ele>404.5</ele>
        <time>2024-12-11T11:39:16Z</time>
      </trkpt>
      <trkpt lat="48.20693" lon="6.59191">
        <ele>405.1</ele>
        <time>2024-12-11T11:39:24Z</time>
      </trkpt>
      <trkpt lat="48.20684" lon="6.59196">
        <ele>405.6</ele>
        <time>2024-12-11T11:39:31Z</time>
      </trkpt>
      <trkpt lat="48.20675" lon="6.592">
        <ele>406</ele>
        <time>2024-12-11T11:39:38Z</time>
      </trkpt>
      <trkpt lat="48.20666" lon="6.59204">
        <ele>406.4</ele>
        <time>2024-12-11T11:39:45Z</time>
      </trkpt>
      <trkpt lat="48.20658" lon="6.59209">
        <ele>406.9</ele>
        <time>2024-12-11T11:39:53Z</time>
      </trkpt>
      <trkpt lat="48.20649" lon="6.59214">
        <ele>407.4</ele>
        <time>2024-12-11T11:40:01Z</time>
      </trkpt>
      <trkpt lat="48.2064" lon="6.59218">
        <ele>408</ele>
        <time>2024-12-11T11:40:09Z</time>
      </trkpt>
      <trkpt lat="48.20631" lon="6.59223">
        <ele>408.4</ele>
        <time>2024-12-11T11:40:16Z</time>
      </trkpt>
      <trkpt lat="48.20622" lon="6.59227">
        <ele>408.8</ele>
        <time>2024-12-11T11:40:24Z</time>
      </trkpt>
      <trkpt lat="48.20613" lon="6.59232">
        <ele>409.2</ele>
        <time>2024-12-11T11:40:32Z</time>
      </trkpt>
      <trkpt lat="48.20604" lon="6.59238">
        <ele>409.5</ele>
        <time>2024-12-11T11:40:40Z</time>
      </trkpt>
      <trkpt lat="48.20595" lon="6.59244">
        <ele>409.8</ele>
        <time>2024-12-11T11:40:47Z</time>
      </trkpt>
      <trkpt lat="48.20586" lon="6.59251">
        <ele>410.1</ele>
        <time>2024-12-11T11:40:54Z</time>
      </trkpt>
      <trkpt lat="48.20578" lon="6.59257">
        <ele>410.3</ele>
        <time>2024-12-11T11:41:02Z</time>
      </trkpt>
      <trkpt lat="48.20569" lon="6.59263">
        <ele>410.5</ele>
        <time>2024-12-11T11:41:10Z</time>
      </trkpt>
      <trkpt lat="48.20559" lon="6.59268">
        <ele>410.7</ele>
        <time>2024-12-11T11:41:18Z</time>
      </trkpt>
      <trkpt lat="48.20551" lon="6.59272">
        <ele>410.8</ele>
        <time>2024-12-11T11:41:25Z</time>
      </trkpt>
      <trkpt lat="48.20542" lon="6.59276">
        <ele>410.9</ele>
        <time>2024-12-11T11:41:32Z</time>
      </trkpt>
      <trkpt lat="48.20533" lon="6.5928">
        <ele>411</ele>
        <time>2024-12-11T11:41:39Z</time>
      </trkpt>
      <trkpt lat="48.20523" lon="6.59283">
        <ele>411.1</ele>
        <time>2024-12-11T11:41:47Z</time>
      </trkpt>
      <trkpt lat="48.20513" lon="6.59285">
        <ele>411.1</ele>
        <time>2024-12-11T11:41:55Z</time>
      </trkpt>
      <trkpt lat="48.20503" lon="6.59287">
        <ele>411</ele>
        <time>2024-12-11T11:42:03Z</time>
      </trkpt>
      <trkpt lat="48.20493" lon="6.59291">
        <ele>410.9</ele>
        <time>2024-12-11T11:42:10Z</time>
      </trkpt>
      <trkpt lat="48.20484" lon="6.59295">
        <ele>410.8</ele>
        <time>2024-12-11T11:42:17Z</time>
      </trkpt>
      <trkpt lat="48.20474" lon="6.59296">
        <ele>410.7</ele>
        <time>2024-12-11T11:42:25Z</time>
      </trkpt>
      <trkpt lat="48.20464" lon="6.59297">
        <ele>410.6</ele>
        <time>2024-12-11T11:42:33Z</time>
      </trkpt>
      <trkpt lat="48.20455" lon="6.59299">
        <ele>410.5</ele>
        <time>2024-12-11T11:42:40Z</time>
      </trkpt>
      <trkpt lat="48.20446" lon="6.59304">
        <ele>410.4</ele>
        <time>2024-12-11T11:42:48Z</time>
      </trkpt>
      <trkpt lat="48.20436" lon="6.59309">
        <ele>410.3</ele>
        <time>2024-12-11T11:42:56Z</time>
      </trkpt>
      <trkpt lat="48.20427" lon="6.59313">
        <ele>410.4</ele>
        <time>2024-12-11T11:43:03Z</time>
      </trkpt>
      <trkpt lat="48.20419" lon="6.59318">
        <ele>410.6</ele>
        <time>2024-12-11T11:43:10Z</time>
      </trkpt>
      <trkpt lat="48.2041" lon="6.59322">
        <ele>410.9</ele>
        <time>2024-12-11T11:43:17Z</time>
      </trkpt>
      <trkpt lat="48.20401" lon="6.59327">
        <ele>411.4</ele>
        <time>2024-12-11T11:43:24Z</time>
      </trkpt>
      <trkpt lat="48.20392" lon="6.59331">
        <ele>412.1</ele>
        <time>2024-12-11T11:43:32Z</time>
      </trkpt>
      <trkpt lat="48.20382" lon="6.59334">
        <ele>412.8</ele>
        <time>2024-12-11T11:43:40Z</time>
      </trkpt>
      <trkpt lat="48.20372" lon="6.59338">
        <ele>413.7</ele>
        <time>2024-12-11T11:43:48Z</time>
      </trkpt>
      <trkpt lat="48.20364" lon="6.59345">
        <ele>414.6</ele>
        <time>2024-12-11T11:43:56Z</time>
      </trkpt>
      <trkpt lat="48.20356" lon="6.59353">
        <ele>415.6</ele>
        <time>2024-12-11T11:44:03Z</time>
      </trkpt>
      <trkpt lat="48.20349" lon="6.59361">
        <ele>416.5</ele>
        <time>2024-12-11T11:44:10Z</time>
      </trkpt>
      <trkpt lat="48.20342" lon="6.5937">
        <ele>417.3</ele>
        <time>2024-12-11T11:44:17Z</time>
      </trkpt>
      <trkpt lat="48.20335" lon="6.59381">
        <ele>418</ele>
        <time>2024-12-11T11:44:26Z</time>
      </trkpt>
      <trkpt lat="48.20326" lon="6.59389">
        <ele>418.8</ele>
        <time>2024-12-11T11:44:35Z</time>
      </trkpt>
      <trkpt lat="48.20318" lon="6.59396">
        <ele>419.4</ele>
        <time>2024-12-11T11:44:41Z</time>
      </trkpt>
      <trkpt lat="48.20309" lon="6.59402">
        <ele>419.9</ele>
        <time>2024-12-11T11:44:49Z</time>
      </trkpt>
      <trkpt lat="48.203" lon="6.59409">
        <ele>420.4</ele>
        <time>2024-12-11T11:44:57Z</time>
      </trkpt>
      <trkpt lat="48.20292" lon="6.59416">
        <ele>420.9</ele>
        <time>2024-12-11T11:45:04Z</time>
      </trkpt>
      <trkpt lat="48.20283" lon="6.59422">
        <ele>421.2</ele>
        <time>2024-12-11T11:45:11Z</time>
      </trkpt>
      <trkpt lat="48.20274" lon="6.59428">
        <ele>421.6</ele>
        <time>2024-12-11T11:45:19Z</time>
      </trkpt>
      <trkpt lat="48.20264" lon="6.59431">
        <ele>421.9</ele>
        <time>2024-12-11T11:45:28Z</time>
      </trkpt>
      <trkpt lat="48.20255" lon="6.59434">
        <ele>422.3</ele>
        <time>2024-12-11T11:45:36Z</time>
      </trkpt>
      <trkpt lat="48.20245" lon="6.5944">
        <ele>422.8</ele>
        <time>2024-12-11T11:45:44Z</time>
      </trkpt>
      <trkpt lat="48.20236" lon="6.59444">
        <ele>423.2</ele>
        <time>2024-12-11T11:45:51Z</time>
      </trkpt>
      <trkpt lat="48.20227" lon="6.59448">
        <ele>423.6</ele>
        <time>2024-12-11T11:45:58Z</time>
      </trkpt>
      <trkpt lat="48.20219" lon="6.59454">
        <ele>424</ele>
        <time>2024-12-11T11:46:06Z</time>
      </trkpt>
      <trkpt lat="48.2021" lon="6.5946">
        <ele>424.4</ele>
        <time>2024-12-11T11:46:14Z</time>
      </trkpt>
      <trkpt lat="48.20201" lon="6.59466">
        <ele>424.8</ele>
        <time>2024-12-11T11:46:22Z</time>
      </trkpt>
      <trkpt lat="48.20192" lon="6.59469">
        <ele>425.1</ele>
        <time>2024-12-11T11:46:30Z</time>
      </trkpt>
      <trkpt lat="48.20183" lon="6.59473">
        <ele>425.4</ele>
        <time>2024-12-11T11:46:37Z</time>
      </trkpt>
      <trkpt lat="48.20173" lon="6.59472">
        <ele>425.7</ele>
        <time>2024-12-11T11:46:46Z</time>
      </trkpt>
      <trkpt lat="48.20164" lon="6.59472">
        <ele>426</ele>
        <time>2024-12-11T11:46:55Z</time>
      </trkpt>
      <trkpt lat="48.20158" lon="6.5947">
        <ele>426.2</ele>
        <time>2024-12-11T11:47:04Z</time>
      </trkpt>
      <trkpt lat="48.20158" lon="6.5947">
        <ele>426.2</ele>
        <time>2024-12-11T11:47:05Z</time>
      </trkpt>
      <trkpt lat="48.20157" lon="6.5947">
        <ele>426.3</ele>
        <time>2024-12-11T11:47:18Z</time>
      </trkpt>
      <trkpt lat="48.20156" lon="6.5947">
        <ele>426.3</ele>
        <time>2024-12-11T11:47:19Z</time>
      </trkpt>
      <trkpt lat="48.20155" lon="6.5947">
        <ele>426.3</ele>
        <time>2024-12-11T11:47:20Z</time>
      </trkpt>
      <trkpt lat="48.20146" lon="6.5947">
        <ele>426.7</ele>
        <time>2024-12-11T11:47:28Z</time>
      </trkpt>
      <trkpt lat="48.20136" lon="6.59472">
        <ele>427.1</ele>
        <time>2024-12-11T11:47:36Z</time>
      </trkpt>
      <trkpt lat="48.20126" lon="6.59473">
        <ele>427.5</ele>
        <time>2024-12-11T11:47:44Z</time>
      </trkpt>
      <trkpt lat="48.20116" lon="6.59473">
        <ele>428</ele>
        <time>2024-12-11T11:47:52Z</time>
      </trkpt>
      <trkpt lat="48.20105" lon="6.59474">
        <ele>428.6</ele>
        <time>2024-12-11T11:48:00Z</time>
      </trkpt>
      <trkpt lat="48.20096" lon="6.59475">
        <ele>429</ele>
        <time>2024-12-11T11:48:06Z</time>
      </trkpt>
      <trkpt lat="48.20088" lon="6.59478">
        <ele>429.5</ele>
        <time>2024-12-11T11:48:13Z</time>
      </trkpt>
      <trkpt lat="48.20079" lon="6.59485">
        <ele>430.1</ele>
        <time>2024-12-11T11:48:20Z</time>
      </trkpt>
      <trkpt lat="48.2007" lon="6.59492">
        <ele>430.7</ele>
        <time>2024-12-11T11:48:26Z</time>
      </trkpt>
      <trkpt lat="48.20063" lon="6.59501">
        <ele>431.4</ele>
        <time>2024-12-11T11:48:33Z</time>
      </trkpt>
      <trkpt lat="48.20056" lon="6.59513">
        <ele>432</ele>
        <time>2024-12-11T11:48:41Z</time>
      </trkpt>
      <trkpt lat="48.20049" lon="6.59522">
        <ele>432.7</ele>
        <time>2024-12-11T11:48:48Z</time>
      </trkpt>
      <trkpt lat="48.20043" lon="6.59534">
        <ele>433.3</ele>
        <time>2024-12-11T11:48:56Z</time>
      </trkpt>
      <trkpt lat="48.20037" lon="6.59545">
        <ele>433.9</ele>
        <time>2024-12-11T11:49:03Z</time>
      </trkpt>
      <trkpt lat="48.20028" lon="6.59552">
        <ele>434.3</ele>
        <time>2024-12-11T11:49:11Z</time>
      </trkpt>
      <trkpt lat="48.20019" lon="6.59557">
        <ele>434.6</ele>
        <time>2024-12-11T11:49:19Z</time>
      </trkpt>
      <trkpt lat="48.2001" lon="6.59562">
        <ele>434.7</ele>
        <time>2024-12-11T11:49:26Z</time>
      </trkpt>
      <trkpt lat="48.20002" lon="6.59571">
        <ele>434.6</ele>
        <time>2024-12-11T11:49:33Z</time>
      </trkpt>
      <trkpt lat="48.19996" lon="6.59581">
        <ele>434.6</ele>
        <time>2024-12-11T11:49:40Z</time>
      </trkpt>
      <trkpt lat="48.1999" lon="6.59594">
        <ele>434.7</ele>
        <time>2024-12-11T11:49:47Z</time>
      </trkpt>
      <trkpt lat="48.19984" lon="6.59605">
        <ele>434.9</ele>
        <time>2024-12-11T11:49:54Z</time>
      </trkpt>
      <trkpt lat="48.19979" lon="6.59618">
        <ele>435.4</ele>
        <time>2024-12-11T11:50:02Z</time>
      </trkpt>
      <trkpt lat="48.19975" lon="6.59632">
        <ele>436</ele>
        <time>2024-12-11T11:50:10Z</time>
      </trkpt>
      <trkpt lat="48.1997" lon="6.59644">
        <ele>436.8</ele>
        <time>2024-12-11T11:50:18Z</time>
      </trkpt>
      <trkpt lat="48.19964" lon="6.59656">
        <ele>437.6</ele>
        <time>2024-12-11T11:50:25Z</time>
      </trkpt>
      <trkpt lat="48.19956" lon="6.59666">
        <ele>438.4</ele>
        <time>2024-12-11T11:50:32Z</time>
      </trkpt>
      <trkpt lat="48.1995" lon="6.59676">
        <ele>439.1</ele>
        <time>2024-12-11T11:50:39Z</time>
      </trkpt>
      <trkpt lat="48.19943" lon="6.59686">
        <ele>439.7</ele>
        <time>2024-12-11T11:50:46Z</time>
      </trkpt>
      <trkpt lat="48.19935" lon="6.59695">
        <ele>440.2</ele>
        <time>2024-12-11T11:50:53Z</time>
      </trkpt>
      <trkpt lat="48.19928" lon="6.59703">
        <ele>440.6</ele>
        <time>2024-12-11T11:51:00Z</time>
      </trkpt>
      <trkpt lat="48.19919" lon="6.59709">
        <ele>441</ele>
        <time>2024-12-11T11:51:08Z</time>
      </trkpt>
      <trkpt lat="48.1991" lon="6.59715">
        <ele>441.4</ele>
        <time>2024-12-11T11:51:16Z</time>
      </trkpt>
      <trkpt lat="48.199" lon="6.59718">
        <ele>441.9</ele>
        <time>2024-12-11T11:51:24Z</time>
      </trkpt>
      <trkpt lat="48.1989" lon="6.59722">
        <ele>442.4</ele>
        <time>2024-12-11T11:51:31Z</time>
      </trkpt>
      <trkpt lat="48.19881" lon="6.59725">
        <ele>442.8</ele>
        <time>2024-12-11T11:51:39Z</time>
      </trkpt>
      <trkpt lat="48.19872" lon="6.5973">
        <ele>443.3</ele>
        <time>2024-12-11T11:51:46Z</time>
      </trkpt>
      <trkpt lat="48.19863" lon="6.59734">
        <ele>443.8</ele>
        <time>2024-12-11T11:51:53Z</time>
      </trkpt>
      <trkpt lat="48.19855" lon="6.5974">
        <ele>444.3</ele>
        <time>2024-12-11T11:52:01Z</time>
      </trkpt>
      <trkpt lat="48.19846" lon="6.59746">
        <ele>444.8</ele>
        <time>2024-12-11T11:52:09Z</time>
      </trkpt>
      <trkpt lat="48.19836" lon="6.59751">
        <ele>445.3</ele>
        <time>2024-12-11T11:52:17Z</time>
      </trkpt>
      <trkpt lat="48.19828" lon="6.59755">
        <ele>445.6</ele>
        <time>2024-12-11T11:52:24Z</time>
      </trkpt>
      <trkpt lat="48.19818" lon="6.59756">
        <ele>445.9</ele>
        <time>2024-12-11T11:52:31Z</time>
      </trkpt>
      <trkpt lat="48.19808" lon="6.59755">
        <ele>446.2</ele>
        <time>2024-12-11T11:52:39Z</time>
      </trkpt>
      <trkpt lat="48.19799" lon="6.59753">
        <ele>446.5</ele>
        <time>2024-12-11T11:52:46Z</time>
      </trkpt>
      <trkpt lat="48.1979" lon="6.59752">
        <ele>446.8</ele>
        <time>2024-12-11T11:52:53Z</time>
      </trkpt>
      <trkpt lat="48.19781" lon="6.59751">
        <ele>447.1</ele>
        <time>2024-12-11T11:53:00Z</time>
      </trkpt>
      <trkpt lat="48.19771" lon="6.59748">
        <ele>447.4</ele>
        <time>2024-12-11T11:53:08Z</time>
      </trkpt>
      <trkpt lat="48.19761" lon="6.59748">
        <ele>447.7</ele>
        <time>2024-12-11T11:53:16Z</time>
      </trkpt>
      <trkpt lat="48.19752" lon="6.59752">
        <ele>447.9</ele>
        <time>2024-12-11T11:53:23Z</time>
      </trkpt>
      <trkpt lat="48.19744" lon="6.5976">
        <ele>448.1</ele>
        <time>2024-12-11T11:53:29Z</time>
      </trkpt>
      <trkpt lat="48.19737" lon="6.59769">
        <ele>448.3</ele>
        <time>2024-12-11T11:53:35Z</time>
      </trkpt>
      <trkpt lat="48.19733" lon="6.59781">
        <ele>448.6</ele>
        <time>2024-12-11T11:53:49Z</time>
      </trkpt>
      <trkpt lat="48.19725" lon="6.59788">
        <ele>448.8</ele>
        <time>2024-12-11T11:53:57Z</time>
      </trkpt>
      <trkpt lat="48.19716" lon="6.59792">
        <ele>449.1</ele>
        <time>2024-12-11T11:54:05Z</time>
      </trkpt>
      <trkpt lat="48.19707" lon="6.59797">
        <ele>449.3</ele>
        <time>2024-12-11T11:54:12Z</time>
      </trkpt>
      <trkpt lat="48.19698" lon="6.59801">
        <ele>449.5</ele>
        <time>2024-12-11T11:54:19Z</time>
      </trkpt>
      <trkpt lat="48.19689" lon="6.59805">
        <ele>449.6</ele>
        <time>2024-12-11T11:54:27Z</time>
      </trkpt>
      <trkpt lat="48.1968" lon="6.59809">
        <ele>449.9</ele>
        <time>2024-12-11T11:54:36Z</time>
      </trkpt>
      <trkpt lat="48.19672" lon="6.59816">
        <ele>450.3</ele>
        <time>2024-12-11T11:54:45Z</time>
      </trkpt>
      <trkpt lat="48.19662" lon="6.59822">
        <ele>450.8</ele>
        <time>2024-12-11T11:54:53Z</time>
      </trkpt>
      <trkpt lat="48.19653" lon="6.59824">
        <ele>451.4</ele>
        <time>2024-12-11T11:55:01Z</time>
      </trkpt>
      <trkpt lat="48.19643" lon="6.59825">
        <ele>452</ele>
        <time>2024-12-11T11:55:11Z</time>
      </trkpt>
      <trkpt lat="48.19634" lon="6.59825">
        <ele>452.6</ele>
        <time>2024-12-11T11:55:21Z</time>
      </trkpt>
      <trkpt lat="48.19625" lon="6.59825">
        <ele>453.2</ele>
        <time>2024-12-11T11:55:28Z</time>
      </trkpt>
      <trkpt lat="48.19616" lon="6.59827">
        <ele>453.8</ele>
        <time>2024-12-11T11:55:36Z</time>
      </trkpt>
      <trkpt lat="48.19608" lon="6.59832">
        <ele>454.5</ele>
        <time>2024-12-11T11:55:42Z</time>
      </trkpt>
      <trkpt lat="48.19599" lon="6.59838">
        <ele>455.1</ele>
        <time>2024-12-11T11:55:48Z</time>
      </trkpt>
      <trkpt lat="48.19593" lon="6.59849">
        <ele>455.7</ele>
        <time>2024-12-11T11:55:55Z</time>
      </trkpt>
      <trkpt lat="48.19591" lon="6.59863">
        <ele>456.3</ele>
        <time>2024-12-11T11:56:03Z</time>
      </trkpt>
      <trkpt lat="48.19595" lon="6.59876">
        <ele>456.9</ele>
        <time>2024-12-11T11:56:10Z</time>
      </trkpt>
      <trkpt lat="48.19601" lon="6.59887">
        <ele>457.1</ele>
        <time>2024-12-11T11:56:18Z</time>
      </trkpt>
      <trkpt lat="48.19608" lon="6.59897">
        <ele>457.2</ele>
        <time>2024-12-11T11:56:26Z</time>
      </trkpt>
      <trkpt lat="48.19614" lon="6.59908">
        <ele>457.5</ele>
        <time>2024-12-11T11:56:34Z</time>
      </trkpt>
      <trkpt lat="48.19614" lon="6.59923">
        <ele>458</ele>
        <time>2024-12-11T11:56:43Z</time>
      </trkpt>
      <trkpt lat="48.1961" lon="6.59936">
        <ele>458.9</ele>
        <time>2024-12-11T11:56:53Z</time>
      </trkpt>
      <trkpt lat="48.19604" lon="6.59948">
        <ele>459.9</ele>
        <time>2024-12-11T11:57:02Z</time>
      </trkpt>
      <trkpt lat="48.19598" lon="6.59958">
        <ele>461.1</ele>
        <time>2024-12-11T11:57:10Z</time>
      </trkpt>
      <trkpt lat="48.1959" lon="6.59967">
        <ele>462.4</ele>
        <time>2024-12-11T11:57:19Z</time>
      </trkpt>
      <trkpt lat="48.19582" lon="6.59973">
        <ele>463.7</ele>
        <time>2024-12-11T11:57:28Z</time>
      </trkpt>
      <trkpt lat="48.19575" lon="6.59978">
        <ele>464.7</ele>
        <time>2024-12-11T11:57:38Z</time>
      </trkpt>
      <trkpt lat="48.19575" lon="6.59978">
        <ele>464.7</ele>
        <time>2024-12-11T11:57:39Z</time>
      </trkpt>
      <trkpt lat="48.19575" lon="6.59978">
        <ele>464.7</ele>
        <time>2024-12-11T11:57:40Z</time>
      </trkpt>
      <trkpt lat="48.19574" lon="6.59978">
        <ele>464.8</ele>
        <time>2024-12-11T11:57:51Z</time>
      </trkpt>
      <trkpt lat="48.19573" lon="6.59979">
        <ele>464.9</ele>
        <time>2024-12-11T11:57:52Z</time>
      </trkpt>
      <trkpt lat="48.19572" lon="6.59979">
        <ele>465.1</ele>
        <time>2024-12-11T11:57:53Z</time>
      </trkpt>
      <trkpt lat="48.19565" lon="6.59987">
        <ele>466.3</ele>
        <time>2024-12-11T11:58:02Z</time>
      </trkpt>
      <trkpt lat="48.19557" lon="6.59996">
        <ele>467.7</ele>
        <time>2024-12-11T11:58:11Z</time>
      </trkpt>
      <trkpt lat="48.19549" lon="6.60004">
        <ele>469.1</ele>
        <time>2024-12-11T11:58:19Z</time>
      </trkpt>
      <trkpt lat="48.19539" lon="6.60009">
        <ele>470.6</ele>
        <time>2024-12-11T11:58:28Z</time>
      </trkpt>
      <trkpt lat="48.1953" lon="6.60012">
        <ele>471.9</ele>
        <time>2024-12-11T11:58:37Z</time>
      </trkpt>
      <trkpt lat="48.19521" lon="6.60015">
        <ele>473.2</ele>
        <time>2024-12-11T11:58:45Z</time>
      </trkpt>
      <trkpt lat="48.19512" lon="6.60019">
        <ele>474.4</ele>
        <time>2024-12-11T11:58:52Z</time>
      </trkpt>
      <trkpt lat="48.19503" lon="6.60022">
        <ele>475.6</ele>
        <time>2024-12-11T11:59:00Z</time>
      </trkpt>
      <trkpt lat="48.19494" lon="6.60027">
        <ele>476.7</ele>
        <time>2024-12-11T11:59:08Z</time>
      </trkpt>
      <trkpt lat="48.19485" lon="6.60031">
        <ele>477.8</ele>
        <time>2024-12-11T11:59:17Z</time>
      </trkpt>
      <trkpt lat="48.19475" lon="6.60033">
        <ele>478.7</ele>
        <time>2024-12-11T11:59:25Z</time>
      </trkpt>
      <trkpt lat="48.19466" lon="6.60033">
        <ele>479.5</ele>
        <time>2024-12-11T11:59:32Z</time>
      </trkpt>
      <trkpt lat="48.19458" lon="6.60035">
        <ele>480.1</ele>
        <time>2024-12-11T11:59:43Z</time>
      </trkpt>
      <trkpt lat="48.19458" lon="6.60035">
        <ele>480.1</ele>
        <time>2024-12-11T11:59:44Z</time>
      </trkpt>
      <trkpt lat="48.19458" lon="6.60035">
        <ele>480.1</ele>
        <time>2024-12-11T11:59:45Z</time>
      </trkpt>
      <trkpt lat="48.19458" lon="6.60036">
        <ele>480.1</ele>
        <time>2024-12-11T12:00:38Z</time>
      </trkpt>
      <trkpt lat="48.19457" lon="6.60036">
        <ele>480.2</ele>
        <time>2024-12-11T12:00:39Z</time>
      </trkpt>
      <trkpt lat="48.19456" lon="6.60036">
        <ele>480.2</ele>
        <time>2024-12-11T12:00:40Z</time>
      </trkpt>
      <trkpt lat="48.19447" lon="6.60035">
        <ele>480.9</ele>
        <time>2024-12-11T12:00:52Z</time>
      </trkpt>
      <trkpt lat="48.19438" lon="6.60037">
        <ele>481.6</ele>
        <time>2024-12-11T12:01:01Z</time>
      </trkpt>
      <trkpt lat="48.1943" lon="6.60046">
        <ele>482.3</ele>
        <time>2024-12-11T12:01:09Z</time>
      </trkpt>
      <trkpt lat="48.1943" lon="6.60059">
        <ele>482.9</ele>
        <time>2024-12-11T12:01:16Z</time>
      </trkpt>
      <trkpt lat="48.19432" lon="6.60073">
        <ele>483.2</ele>
        <time>2024-12-11T12:01:23Z</time>
      </trkpt>
      <trkpt lat="48.19435" lon="6.60088">
        <ele>483.3</ele>
        <time>2024-12-11T12:01:32Z</time>
      </trkpt>
      <trkpt lat="48.19436" lon="6.60092">
        <ele>483.3</ele>
        <time>2024-12-11T12:01:39Z</time>
      </trkpt>
      <trkpt lat="48.19436" lon="6.60092">
        <ele>483.3</ele>
        <time>2024-12-11T12:01:40Z</time>
      </trkpt>
      <trkpt lat="48.19436" lon="6.60092">
        <ele>483.3</ele>
        <time>2024-12-11T12:01:41Z</time>
      </trkpt>
      <trkpt lat="48.19436" lon="6.60093">
        <ele>483.3</ele>
        <time>2024-12-11T12:02:07Z</time>
      </trkpt>
      <trkpt lat="48.19436" lon="6.60095">
        <ele>483.3</ele>
        <time>2024-12-11T12:02:08Z</time>
      </trkpt>
      <trkpt lat="48.19427" lon="6.60101">
        <ele>483.9</ele>
        <time>2024-12-11T12:02:17Z</time>
      </trkpt>
      <trkpt lat="48.19418" lon="6.60096">
        <ele>484.1</ele>
        <time>2024-12-11T12:02:25Z</time>
      </trkpt>
      <trkpt lat="48.1941" lon="6.60091">
        <ele>484.4</ele>
        <time>2024-12-11T12:02:33Z</time>
      </trkpt>
      <trkpt lat="48.194" lon="6.60087">
        <ele>484.6</ele>
        <time>2024-12-11T12:02:41Z</time>
      </trkpt>
      <trkpt lat="48.19391" lon="6.60084">
        <ele>484.9</ele>
        <time>2024-12-11T12:02:49Z</time>
      </trkpt>
      <trkpt lat="48.19382" lon="6.60081">
        <ele>485.1</ele>
        <time>2024-12-11T12:02:57Z</time>
      </trkpt>
      <trkpt lat="48.19372" lon="6.60077">
        <ele>485.4</ele>
        <time>2024-12-11T12:03:06Z</time>
      </trkpt>
      <trkpt lat="48.19363" lon="6.60076">
        <ele>485.6</ele>
        <time>2024-12-11T12:03:12Z</time>
      </trkpt>
      <trkpt lat="48.19353" lon="6.60074">
        <ele>485.9</ele>
        <time>2024-12-11T12:03:20Z</time>
      </trkpt>
      <trkpt lat="48.19344" lon="6.60074">
        <ele>486.2</ele>
        <time>2024-12-11T12:03:28Z</time>
      </trkpt>
      <trkpt lat="48.19339" lon="6.60072">
        <ele>486.3</ele>
        <time>2024-12-11T12:03:36Z</time>
      </trkpt>
      <trkpt lat="48.19339" lon="6.60072">
        <ele>486.3</ele>
        <time>2024-12-11T12:03:37Z</time>
      </trkpt>
      <trkpt lat="48.19339" lon="6.60072">
        <ele>486.3</ele>
        <time>2024-12-11T12:03:38Z</time>
      </trkpt>
      <trkpt lat="48.19338" lon="6.60072">
        <ele>486.4</ele>
        <time>2024-12-11T12:04:26Z</time>
      </trkpt>
      <trkpt lat="48.19337" lon="6.60072">
        <ele>486.4</ele>
        <time>2024-12-11T12:04:27Z</time>
      </trkpt>
      <trkpt lat="48.19328" lon="6.60069">
        <ele>486.7</ele>
        <time>2024-12-11T12:04:34Z</time>
      </trkpt>
      <trkpt lat="48.19318" lon="6.60066">
        <ele>487.1</ele>
        <time>2024-12-11T12:04:41Z</time>
      </trkpt>
      <trkpt lat="48.19309" lon="6.60063">
        <ele>487.4</ele>
        <time>2024-12-11T12:04:47Z</time>
      </trkpt>
      <trkpt lat="48.19299" lon="6.6006">
        <ele>487.7</ele>
        <time>2024-12-11T12:04:54Z</time>
      </trkpt>
      <trkpt lat="48.1929" lon="6.60058">
        <ele>488</ele>
        <time>2024-12-11T12:05:01Z</time>
      </trkpt>
      <trkpt lat="48.19281" lon="6.60058">
        <ele>488.4</ele>
        <time>2024-12-11T12:05:09Z</time>
      </trkpt>
      <trkpt lat="48.19272" lon="6.60056">
        <ele>488.7</ele>
        <time>2024-12-11T12:05:17Z</time>
      </trkpt>
      <trkpt lat="48.19262" lon="6.60054">
        <ele>489.1</ele>
        <time>2024-12-11T12:05:25Z</time>
      </trkpt>
      <trkpt lat="48.19253" lon="6.60052">
        <ele>489.5</ele>
        <time>2024-12-11T12:05:32Z</time>
      </trkpt>
      <trkpt lat="48.19243" lon="6.6005">
        <ele>489.8</ele>
        <time>2024-12-11T12:05:40Z</time>
      </trkpt>
      <trkpt lat="48.19234" lon="6.60047">
        <ele>490.1</ele>
        <time>2024-12-11T12:05:48Z</time>
      </trkpt>
      <trkpt lat="48.19224" lon="6.60047">
        <ele>490.3</ele>
        <time>2024-12-11T12:05:56Z</time>
      </trkpt>
      <trkpt lat="48.19214" lon="6.60048">
        <ele>490.4</ele>
        <time>2024-12-11T12:06:04Z</time>
      </trkpt>
      <trkpt lat="48.19205" lon="6.60052">
        <ele>490.5</ele>
        <time>2024-12-11T12:06:11Z</time>
      </trkpt>
      <trkpt lat="48.19196" lon="6.60055">
        <ele>490.6</ele>
        <time>2024-12-11T12:06:18Z</time>
      </trkpt>
      <trkpt lat="48.19188" lon="6.60064">
        <ele>490.7</ele>
        <time>2024-12-11T12:06:26Z</time>
      </trkpt>
      <trkpt lat="48.19181" lon="6.60073">
        <ele>490.9</ele>
        <time>2024-12-11T12:06:33Z</time>
      </trkpt>
      <trkpt lat="48.19174" lon="6.60085">
        <ele>491.1</ele>
        <time>2024-12-11T12:06:42Z</time>
      </trkpt>
      <trkpt lat="48.19167" lon="6.60096">
        <ele>491.4</ele>
        <time>2024-12-11T12:06:50Z</time>
      </trkpt>
      <trkpt lat="48.19161" lon="6.60105">
        <ele>491.7</ele>
        <time>2024-12-11T12:06:57Z</time>
      </trkpt>
      <trkpt lat="48.19155" lon="6.60118">
        <ele>492</ele>
        <time>2024-12-11T12:07:06Z</time>
      </trkpt>
      <trkpt lat="48.19152" lon="6.60124">
        <ele>492.2</ele>
        <time>2024-12-11T12:07:13Z</time>
      </trkpt>
      <trkpt lat="48.19152" lon="6.60124">
        <ele>492.2</ele>
        <time>2024-12-11T12:07:14Z</time>
      </trkpt>
      <trkpt lat="48.19152" lon="6.60124">
        <ele>492.2</ele>
        <time>2024-12-11T12:07:15Z</time>
      </trkpt>
      <trkpt lat="48.19151" lon="6.60128">
        <ele>492.3</ele>
        <time>2024-12-11T12:07:23Z</time>
      </trkpt>
      <trkpt lat="48.19151" lon="6.60128">
        <ele>492.3</ele>
        <time>2024-12-11T12:07:24Z</time>
      </trkpt>
      <trkpt lat="48.19151" lon="6.60129">
        <ele>492.3</ele>
        <time>2024-12-11T12:07:25Z</time>
      </trkpt>
      <trkpt lat="48.19145" lon="6.60141">
        <ele>492.7</ele>
        <time>2024-12-11T12:07:34Z</time>
      </trkpt>
      <trkpt lat="48.19138" lon="6.60151">
        <ele>493.1</ele>
        <time>2024-12-11T12:07:44Z</time>
      </trkpt>
      <trkpt lat="48.19132" lon="6.60161">
        <ele>493.4</ele>
        <time>2024-12-11T12:07:53Z</time>
      </trkpt>
      <trkpt lat="48.19123" lon="6.60169">
        <ele>493.8</ele>
        <time>2024-12-11T12:08:02Z</time>
      </trkpt>
      <trkpt lat="48.19116" lon="6.6018">
        <ele>494.2</ele>
        <time>2024-12-11T12:08:10Z</time>
      </trkpt>
      <trkpt lat="48.19109" lon="6.60188">
        <ele>494.5</ele>
        <time>2024-12-11T12:08:18Z</time>
      </trkpt>
      <trkpt lat="48.19102" lon="6.60198">
        <ele>495</ele>
        <time>2024-12-11T12:08:25Z</time>
      </trkpt>
      <trkpt lat="48.19095" lon="6.60207">
        <ele>495.5</ele>
        <time>2024-12-11T12:08:33Z</time>
      </trkpt>
      <trkpt lat="48.19088" lon="6.60217">
        <ele>496</ele>
        <time>2024-12-11T12:08:41Z</time>
      </trkpt>
      <trkpt lat="48.19081" lon="6.60227">
        <ele>496.4</ele>
        <time>2024-12-11T12:08:49Z</time>
      </trkpt>
      <trkpt lat="48.19074" lon="6.60236">
        <ele>496.8</ele>
        <time>2024-12-11T12:08:56Z</time>
      </trkpt>
      <trkpt lat="48.19068" lon="6.60247">
        <ele>497.2</ele>
        <time>2024-12-11T12:09:05Z</time>
      </trkpt>
      <trkpt lat="48.1906" lon="6.60256">
        <ele>497.6</ele>
        <time>2024-12-11T12:09:13Z</time>
      </trkpt>
      <trkpt lat="48.19059" lon="6.60257">
        <ele>497.7</ele>
        <time>2024-12-11T12:09:18Z</time>
      </trkpt>
      <trkpt lat="48.19059" lon="6.60257">
        <ele>497.7</ele>
        <time>2024-12-11T12:09:19Z</time>
      </trkpt>
      <trkpt lat="48.19059" lon="6.60257">
        <ele>497.7</ele>
        <time>2024-12-11T12:09:20Z</time>
      </trkpt>
      <trkpt lat="48.19059" lon="6.60257">
        <ele>497.7</ele>
        <time>2024-12-11T12:09:24Z</time>
      </trkpt>
      <trkpt lat="48.19059" lon="6.60257">
        <ele>497.7</ele>
        <time>2024-12-11T12:09:25Z</time>
      </trkpt>
      <trkpt lat="48.19059" lon="6.60257">
        <ele>497.7</ele>
        <time>2024-12-11T12:09:31Z</time>
      </trkpt>
      <trkpt lat="48.19059" lon="6.60257">
        <ele>497.7</ele>
        <time>2024-12-11T12:09:32Z</time>
      </trkpt>
      <trkpt lat="48.19059" lon="6.60258">
        <ele>497.8</ele>
        <time>2024-12-11T12:09:41Z</time>
      </trkpt>
      <trkpt lat="48.19059" lon="6.60258">
        <ele>497.8</ele>
        <time>2024-12-11T12:09:42Z</time>
      </trkpt>
      <trkpt lat="48.19059" lon="6.60258">
        <ele>497.8</ele>
        <time>2024-12-11T12:09:43Z</time>
      </trkpt>
      <trkpt lat="48.19059" lon="6.60258">
        <ele>497.8</ele>
        <time>2024-12-11T12:09:44Z</time>
      </trkpt>
      <trkpt lat="48.19059" lon="6.60258">
        <ele>497.8</ele>
        <time>2024-12-11T12:09:45Z</time>
      </trkpt>
      <trkpt lat="48.19059" lon="6.60258">
        <ele>497.8</ele>
        <time>2024-12-11T12:09:46Z</time>
      </trkpt>
      <trkpt lat="48.19059" lon="6.6026">
        <ele>497.8</ele>
        <time>2024-12-11T12:09:51Z</time>
      </trkpt>
      <trkpt lat="48.19058" lon="6.6026">
        <ele>497.8</ele>
        <time>2024-12-11T12:09:52Z</time>
      </trkpt>
      <trkpt lat="48.19053" lon="6.60273">
        <ele>498.3</ele>
        <time>2024-12-11T12:10:02Z</time>
      </trkpt>
      <trkpt lat="48.19052" lon="6.60274">
        <ele>498.3</ele>
        <time>2024-12-11T12:10:06Z</time>
      </trkpt>
      <trkpt lat="48.19052" lon="6.60274">
        <ele>498.3</ele>
        <time>2024-12-11T12:10:07Z</time>
      </trkpt>
      <trkpt lat="48.19051" lon="6.60276">
        <ele>498.4</ele>
        <time>2024-12-11T12:10:39Z</time>
      </trkpt>
      <trkpt lat="48.19051" lon="6.60275">
        <ele>498.4</ele>
        <time>2024-12-11T12:10:40Z</time>
      </trkpt>
      <trkpt lat="48.19051" lon="6.60275">
        <ele>498.4</ele>
        <time>2024-12-11T12:10:41Z</time>
      </trkpt>
      <trkpt lat="48.19051" lon="6.60275">
        <ele>498.4</ele>
        <time>2024-12-11T12:10:42Z</time>
      </trkpt>
      <trkpt lat="48.19051" lon="6.60275">
        <ele>498.4</ele>
        <time>2024-12-11T12:10:43Z</time>
      </trkpt>
      <trkpt lat="48.1905" lon="6.60276">
        <ele>498.5</ele>
        <time>2024-12-11T12:10:53Z</time>
      </trkpt>
      <trkpt lat="48.19049" lon="6.60277">
        <ele>498.5</ele>
        <time>2024-12-11T12:10:54Z</time>
      </trkpt>
      <trkpt lat="48.19048" lon="6.60277">
        <ele>498.6</ele>
        <time>2024-12-11T12:10:55Z</time>
      </trkpt>
      <trkpt lat="48.19042" lon="6.60288">
        <ele>499</ele>
        <time>2024-12-11T12:11:04Z</time>
      </trkpt>
      <trkpt lat="48.19034" lon="6.60298">
        <ele>499.5</ele>
        <time>2024-12-11T12:11:12Z</time>
      </trkpt>
      <trkpt lat="48.19029" lon="6.60302">
        <ele>499.7</ele>
        <time>2024-12-11T12:11:22Z</time>
      </trkpt>
      <trkpt lat="48.19029" lon="6.60302">
        <ele>499.7</ele>
        <time>2024-12-11T12:11:23Z</time>
      </trkpt>
      <trkpt lat="48.19029" lon="6.60308">
        <ele>499.9</ele>
        <time>2024-12-11T12:11:58Z</time>
      </trkpt>
      <trkpt lat="48.19029" lon="6.60308">
        <ele>499.9</ele>
        <time>2024-12-11T12:11:59Z</time>
      </trkpt>
      <trkpt lat="48.19029" lon="6.60308">
        <ele>499.9</ele>
        <time>2024-12-11T12:12:00Z</time>
      </trkpt>
      <trkpt lat="48.19029" lon="6.60308">
        <ele>499.9</ele>
        <time>2024-12-11T12:12:01Z</time>
      </trkpt>
      <trkpt lat="48.19029" lon="6.60308">
        <ele>499.9</ele>
        <time>2024-12-11T12:12:02Z</time>
      </trkpt>
      <trkpt lat="48.19029" lon="6.60308">
        <ele>499.9</ele>
        <time>2024-12-11T12:12:03Z</time>
      </trkpt>
      <trkpt lat="48.19029" lon="6.60308">
        <ele>499.9</ele>
        <time>2024-12-11T12:12:04Z</time>
      </trkpt>
      <trkpt lat="48.19029" lon="6.60308">
        <ele>499.9</ele>
        <time>2024-12-11T12:12:05Z</time>
      </trkpt>
      <trkpt lat="48.19029" lon="6.60308">
        <ele>499.9</ele>
        <time>2024-12-11T12:12:06Z</time>
      </trkpt>
      <trkpt lat="48.19029" lon="6.60308">
        <ele>499.9</ele>
        <time>2024-12-11T12:12:07Z</time>
      </trkpt>
      <trkpt lat="48.19029" lon="6.60308">
        <ele>499.9</ele>
        <time>2024-12-11T12:12:08Z</time>
      </trkpt>
      <trkpt lat="48.19029" lon="6.60308">
        <ele>499.9</ele>
        <time>2024-12-11T12:12:09Z</time>
      </trkpt>
      <trkpt lat="48.19029" lon="6.60308">
        <ele>499.9</ele>
        <time>2024-12-11T12:12:10Z</time>
      </trkpt>
      <trkpt lat="48.19029" lon="6.60308">
        <ele>499.9</ele>
        <time>2024-12-11T12:12:11Z</time>
      </trkpt>
      <trkpt lat="48.19029" lon="6.60308">
        <ele>499.9</ele>
        <time>2024-12-11T12:12:12Z</time>
      </trkpt>
      <trkpt lat="48.19029" lon="6.60308">
        <ele>499.9</ele>
        <time>2024-12-11T12:12:51Z</time>
      </trkpt>
      <trkpt lat="48.19029" lon="6.60308">
        <ele>499.9</ele>
        <time>2024-12-11T12:12:52Z</time>
      </trkpt>
      <trkpt lat="48.19029" lon="6.60308">
        <ele>499.9</ele>
        <time>2024-12-11T12:12:53Z</time>
      </trkpt>
      <trkpt lat="48.19029" lon="6.60308">
        <ele>499.9</ele>
        <time>2024-12-11T12:12:54Z</time>
      </trkpt>
      <trkpt lat="48.19029" lon="6.60308">
        <ele>499.9</ele>
        <time>2024-12-11T12:12:55Z</time>
      </trkpt>
      <trkpt lat="48.19029" lon="6.60309">
        <ele>499.9</ele>
        <time>2024-12-11T12:17:16Z</time>
      </trkpt>
      <trkpt lat="48.19029" lon="6.60309">
        <ele>499.9</ele>
        <time>2024-12-11T12:17:17Z</time>
      </trkpt>
      <trkpt lat="48.19022" lon="6.6032">
        <ele>500.2</ele>
        <time>2024-12-11T12:17:27Z</time>
      </trkpt>
      <trkpt lat="48.19014" lon="6.60328">
        <ele>500.6</ele>
        <time>2024-12-11T12:17:36Z</time>
      </trkpt>
      <trkpt lat="48.19006" lon="6.60335">
        <ele>500.9</ele>
        <time>2024-12-11T12:17:43Z</time>
      </trkpt>
      <trkpt lat="48.19" lon="6.60345">
        <ele>501.2</ele>
        <time>2024-12-11T12:17:50Z</time>
      </trkpt>
      <trkpt lat="48.18993" lon="6.60356">
        <ele>501.5</ele>
        <time>2024-12-11T12:17:58Z</time>
      </trkpt>
      <trkpt lat="48.18986" lon="6.60366">
        <ele>501.8</ele>
        <time>2024-12-11T12:18:06Z</time>
      </trkpt>
      <trkpt lat="48.18979" lon="6.60377">
        <ele>502</ele>
        <time>2024-12-11T12:18:14Z</time>
      </trkpt>
      <trkpt lat="48.18972" lon="6.60385">
        <ele>502.3</ele>
        <time>2024-12-11T12:18:22Z</time>
      </trkpt>
      <trkpt lat="48.18964" lon="6.60394">
        <ele>502.6</ele>
        <time>2024-12-11T12:18:30Z</time>
      </trkpt>
      <trkpt lat="48.18957" lon="6.60404">
        <ele>502.8</ele>
        <time>2024-12-11T12:18:38Z</time>
      </trkpt>
      <trkpt lat="48.18951" lon="6.60414">
        <ele>503.1</ele>
        <time>2024-12-11T12:18:46Z</time>
      </trkpt>
      <trkpt lat="48.18944" lon="6.60425">
        <ele>503.4</ele>
        <time>2024-12-11T12:18:54Z</time>
      </trkpt>
      <trkpt lat="48.18937" lon="6.60436">
        <ele>503.8</ele>
        <time>2024-12-11T12:19:03Z</time>
      </trkpt>
      <trkpt lat="48.18931" lon="6.60446">
        <ele>504.1</ele>
        <time>2024-12-11T12:19:11Z</time>
      </trkpt>
      <trkpt lat="48.18926" lon="6.60457">
        <ele>504.4</ele>
        <time>2024-12-11T12:19:19Z</time>
      </trkpt>
      <trkpt lat="48.1892" lon="6.60469">
        <ele>504.7</ele>
        <time>2024-12-11T12:19:26Z</time>
      </trkpt>
      <trkpt lat="48.18917" lon="6.60482">
        <ele>505.1</ele>
        <time>2024-12-11T12:19:34Z</time>
      </trkpt>
      <trkpt lat="48.18912" lon="6.60495">
        <ele>505.4</ele>
        <time>2024-12-11T12:19:41Z</time>
      </trkpt>
      <trkpt lat="48.18907" lon="6.60508">
        <ele>505.9</ele>
        <time>2024-12-11T12:19:49Z</time>
      </trkpt>
      <trkpt lat="48.18902" lon="6.60519">
        <ele>506.3</ele>
        <time>2024-12-11T12:19:57Z</time>
      </trkpt>
      <trkpt lat="48.18897" lon="6.60532">
        <ele>506.8</ele>
        <time>2024-12-11T12:20:06Z</time>
      </trkpt>
      <trkpt lat="48.18892" lon="6.60544">
        <ele>507.3</ele>
        <time>2024-12-11T12:20:14Z</time>
      </trkpt>
      <trkpt lat="48.18886" lon="6.60556">
        <ele>507.8</ele>
        <time>2024-12-11T12:20:23Z</time>
      </trkpt>
      <trkpt lat="48.18881" lon="6.60568">
        <ele>508.3</ele>
        <time>2024-12-11T12:20:31Z</time>
      </trkpt>
      <trkpt lat="48.18876" lon="6.6058">
        <ele>508.7</ele>
        <time>2024-12-11T12:20:39Z</time>
      </trkpt>
      <trkpt lat="48.18871" lon="6.60592">
        <ele>509.2</ele>
        <time>2024-12-11T12:20:47Z</time>
      </trkpt>
      <trkpt lat="48.18865" lon="6.60605">
        <ele>509.5</ele>
        <time>2024-12-11T12:20:55Z</time>
      </trkpt>
      <trkpt lat="48.18859" lon="6.60617">
        <ele>509.8</ele>
        <time>2024-12-11T12:21:03Z</time>
      </trkpt>
      <trkpt lat="48.18856" lon="6.60629">
        <ele>509.9</ele>
        <time>2024-12-11T12:21:10Z</time>
      </trkpt>
      <trkpt lat="48.1885" lon="6.60641">
        <ele>510</ele>
        <time>2024-12-11T12:21:18Z</time>
      </trkpt>
      <trkpt lat="48.18846" lon="6.60654">
        <ele>510.2</ele>
        <time>2024-12-11T12:21:26Z</time>
      </trkpt>
      <trkpt lat="48.18846" lon="6.60655">
        <ele>510.2</ele>
        <time>2024-12-11T12:21:31Z</time>
      </trkpt>
      <trkpt lat="48.18846" lon="6.60655">
        <ele>510.2</ele>
        <time>2024-12-11T12:21:32Z</time>
      </trkpt>
      <trkpt lat="48.18845" lon="6.60657">
        <ele>510.2</ele>
        <time>2024-12-11T12:21:41Z</time>
      </trkpt>
      <trkpt lat="48.18845" lon="6.60659">
        <ele>510.2</ele>
        <time>2024-12-11T12:21:42Z</time>
      </trkpt>
      <trkpt lat="48.18843" lon="6.60665">
        <ele>510.2</ele>
        <time>2024-12-11T12:21:49Z</time>
      </trkpt>
      <trkpt lat="48.18843" lon="6.60665">
        <ele>510.2</ele>
        <time>2024-12-11T12:21:50Z</time>
      </trkpt>
      <trkpt lat="48.18843" lon="6.60665">
        <ele>510.2</ele>
        <time>2024-12-11T12:21:51Z</time>
      </trkpt>
      <trkpt lat="48.18844" lon="6.60668">
        <ele>510.2</ele>
        <time>2024-12-11T12:23:31Z</time>
      </trkpt>
      <trkpt lat="48.18844" lon="6.60669">
        <ele>510.2</ele>
        <time>2024-12-11T12:23:32Z</time>
      </trkpt>
      <trkpt lat="48.18842" lon="6.60684">
        <ele>510.2</ele>
        <time>2024-12-11T12:23:40Z</time>
      </trkpt>
      <trkpt lat="48.18842" lon="6.60699">
        <ele>510.3</ele>
        <time>2024-12-11T12:23:49Z</time>
      </trkpt>
      <trkpt lat="48.18839" lon="6.60708">
        <ele>510.3</ele>
        <time>2024-12-11T12:23:59Z</time>
      </trkpt>
      <trkpt lat="48.18839" lon="6.60708">
        <ele>510.3</ele>
        <time>2024-12-11T12:24:00Z</time>
      </trkpt>
      <trkpt lat="48.18839" lon="6.60709">
        <ele>510.3</ele>
        <time>2024-12-11T12:24:43Z</time>
      </trkpt>
      <trkpt lat="48.18839" lon="6.60711">
        <ele>510.3</ele>
        <time>2024-12-11T12:24:44Z</time>
      </trkpt>
      <trkpt lat="48.18838" lon="6.60713">
        <ele>510.3</ele>
        <time>2024-12-11T12:24:45Z</time>
      </trkpt>
      <trkpt lat="48.18839" lon="6.60727">
        <ele>510.3</ele>
        <time>2024-12-11T12:24:54Z</time>
      </trkpt>
      <trkpt lat="48.18839" lon="6.60731">
        <ele>510.3</ele>
        <time>2024-12-11T12:25:01Z</time>
      </trkpt>
      <trkpt lat="48.18839" lon="6.60731">
        <ele>510.3</ele>
        <time>2024-12-11T12:25:02Z</time>
      </trkpt>
      <trkpt lat="48.18839" lon="6.60731">
        <ele>510.3</ele>
        <time>2024-12-11T12:25:03Z</time>
      </trkpt>
      <trkpt lat="48.18839" lon="6.60734">
        <ele>510.3</ele>
        <time>2024-12-11T12:27:09Z</time>
      </trkpt>
      <trkpt lat="48.18839" lon="6.60735">
        <ele>510.3</ele>
        <time>2024-12-11T12:27:10Z</time>
      </trkpt>
      <trkpt lat="48.18839" lon="6.6075">
        <ele>510.3</ele>
        <time>2024-12-11T12:27:20Z</time>
      </trkpt>
      <trkpt lat="48.18837" lon="6.60764">
        <ele>510.4</ele>
        <time>2024-12-11T12:27:28Z</time>
      </trkpt>
      <trkpt lat="48.18836" lon="6.60778">
        <ele>510.4</ele>
        <time>2024-12-11T12:27:36Z</time>
      </trkpt>
      <trkpt lat="48.18835" lon="6.60783">
        <ele>510.5</ele>
        <time>2024-12-11T12:27:43Z</time>
      </trkpt>
      <trkpt lat="48.18835" lon="6.60783">
        <ele>510.5</ele>
        <time>2024-12-11T12:27:44Z</time>
      </trkpt>
      <trkpt lat="48.18835" lon="6.60783">
        <ele>510.5</ele>
        <time>2024-12-11T12:27:45Z</time>
      </trkpt>
      <trkpt lat="48.18833" lon="6.60786">
        <ele>510.5</ele>
        <time>2024-12-11T12:28:56Z</time>
      </trkpt>
      <trkpt lat="48.18833" lon="6.60788">
        <ele>510.5</ele>
        <time>2024-12-11T12:28:57Z</time>
      </trkpt>
      <trkpt lat="48.1883" lon="6.60799">
        <ele>510.5</ele>
        <time>2024-12-11T12:29:11Z</time>
      </trkpt>
      <trkpt lat="48.1883" lon="6.60799">
        <ele>510.5</ele>
        <time>2024-12-11T12:29:12Z</time>
      </trkpt>
      <trkpt lat="48.1883" lon="6.608">
        <ele>510.5</ele>
        <time>2024-12-11T12:29:22Z</time>
      </trkpt>
      <trkpt lat="48.1883" lon="6.60801">
        <ele>510.6</ele>
        <time>2024-12-11T12:29:23Z</time>
      </trkpt>
      <trkpt lat="48.1883" lon="6.60803">
        <ele>510.6</ele>
        <time>2024-12-11T12:29:29Z</time>
      </trkpt>
      <trkpt lat="48.1883" lon="6.60803">
        <ele>510.6</ele>
        <time>2024-12-11T12:29:30Z</time>
      </trkpt>
      <trkpt lat="48.1883" lon="6.60803">
        <ele>510.6</ele>
        <time>2024-12-11T12:29:31Z</time>
      </trkpt>
      <trkpt lat="48.18828" lon="6.60804">
        <ele>510.6</ele>
        <time>2024-12-11T12:30:13Z</time>
      </trkpt>
      <trkpt lat="48.18828" lon="6.60804">
        <ele>510.6</ele>
        <time>2024-12-11T12:30:14Z</time>
      </trkpt>
      <trkpt lat="48.18828" lon="6.60804">
        <ele>510.6</ele>
        <time>2024-12-11T12:30:15Z</time>
      </trkpt>
      <trkpt lat="48.18828" lon="6.60804">
        <ele>510.6</ele>
        <time>2024-12-11T12:30:16Z</time>
      </trkpt>
      <trkpt lat="48.18828" lon="6.60804">
        <ele>510.6</ele>
        <time>2024-12-11T12:30:17Z</time>
      </trkpt>
      <trkpt lat="48.18828" lon="6.60804">
        <ele>510.6</ele>
        <time>2024-12-11T12:30:18Z</time>
      </trkpt>
      <trkpt lat="48.18827" lon="6.60806">
        <ele>510.6</ele>
        <time>2024-12-11T12:30:24Z</time>
      </trkpt>
      <trkpt lat="48.18827" lon="6.60807">
        <ele>510.6</ele>
        <time>2024-12-11T12:30:25Z</time>
      </trkpt>
      <trkpt lat="48.18822" lon="6.60821">
        <ele>510.7</ele>
        <time>2024-12-11T12:30:32Z</time>
      </trkpt>
      <trkpt lat="48.1882" lon="6.60825">
        <ele>510.8</ele>
        <time>2024-12-11T12:30:38Z</time>
      </trkpt>
      <trkpt lat="48.1882" lon="6.60825">
        <ele>510.8</ele>
        <time>2024-12-11T12:30:39Z</time>
      </trkpt>
      <trkpt lat="48.1882" lon="6.60825">
        <ele>510.8</ele>
        <time>2024-12-11T12:30:40Z</time>
      </trkpt>
      <trkpt lat="48.1882" lon="6.60825">
        <ele>510.8</ele>
        <time>2024-12-11T12:30:46Z</time>
      </trkpt>
      <trkpt lat="48.1882" lon="6.60825">
        <ele>510.8</ele>
        <time>2024-12-11T12:30:47Z</time>
      </trkpt>
      <trkpt lat="48.1882" lon="6.60825">
        <ele>510.8</ele>
        <time>2024-12-11T12:30:48Z</time>
      </trkpt>
      <trkpt lat="48.1882" lon="6.60825">
        <ele>510.8</ele>
        <time>2024-12-11T12:30:49Z</time>
      </trkpt>
      <trkpt lat="48.1882" lon="6.60825">
        <ele>510.8</ele>
        <time>2024-12-11T12:30:50Z</time>
      </trkpt>
      <trkpt lat="48.1882" lon="6.60825">
        <ele>510.8</ele>
        <time>2024-12-11T12:30:51Z</time>
      </trkpt>
      <trkpt lat="48.18818" lon="6.60828">
        <ele>510.8</ele>
        <time>2024-12-11T12:31:09Z</time>
      </trkpt>
      <trkpt lat="48.18818" lon="6.60829">
        <ele>510.8</ele>
        <time>2024-12-11T12:31:10Z</time>
      </trkpt>
      <trkpt lat="48.1881" lon="6.60838">
        <ele>510.9</ele>
        <time>2024-12-11T12:31:19Z</time>
      </trkpt>
      <trkpt lat="48.18802" lon="6.60844">
        <ele>511</ele>
        <time>2024-12-11T12:31:28Z</time>
      </trkpt>
      <trkpt lat="48.18792" lon="6.60846">
        <ele>511.1</ele>
        <time>2024-12-11T12:31:37Z</time>
      </trkpt>
      <trkpt lat="48.18792" lon="6.60846">
        <ele>511.1</ele>
        <time>2024-12-11T12:31:42Z</time>
      </trkpt>
      <trkpt lat="48.18792" lon="6.60846">
        <ele>511.1</ele>
        <time>2024-12-11T12:31:43Z</time>
      </trkpt>
      <trkpt lat="48.18791" lon="6.60846">
        <ele>511.1</ele>
        <time>2024-12-11T12:31:54Z</time>
      </trkpt>
      <trkpt lat="48.1879" lon="6.60846">
        <ele>511.1</ele>
        <time>2024-12-11T12:31:55Z</time>
      </trkpt>
      <trkpt lat="48.18789" lon="6.60846">
        <ele>511.1</ele>
        <time>2024-12-11T12:31:56Z</time>
      </trkpt>
      <trkpt lat="48.1878" lon="6.60842">
        <ele>511.1</ele>
        <time>2024-12-11T12:32:07Z</time>
      </trkpt>
      <trkpt lat="48.18772" lon="6.60834">
        <ele>511</ele>
        <time>2024-12-11T12:32:16Z</time>
      </trkpt>
      <trkpt lat="48.18768" lon="6.60831">
        <ele>511</ele>
        <time>2024-12-11T12:32:26Z</time>
      </trkpt>
      <trkpt lat="48.18768" lon="6.60831">
        <ele>511</ele>
        <time>2024-12-11T12:32:27Z</time>
      </trkpt>
      <trkpt lat="48.18767" lon="6.6083">
        <ele>511</ele>
        <time>2024-12-11T12:32:33Z</time>
      </trkpt>
      <trkpt lat="48.18767" lon="6.6083">
        <ele>511</ele>
        <time>2024-12-11T12:32:34Z</time>
      </trkpt>
      <trkpt lat="48.18766" lon="6.60829">
        <ele>511</ele>
        <time>2024-12-11T12:32:35Z</time>
      </trkpt>
      <trkpt lat="48.18757" lon="6.60821">
        <ele>511</ele>
        <time>2024-12-11T12:32:44Z</time>
      </trkpt>
      <trkpt lat="48.1875" lon="6.60814">
        <ele>511</ele>
        <time>2024-12-11T12:32:51Z</time>
      </trkpt>
      <trkpt lat="48.18742" lon="6.60806">
        <ele>511</ele>
        <time>2024-12-11T12:32:58Z</time>
      </trkpt>
      <trkpt lat="48.18739" lon="6.60804">
        <ele>511</ele>
        <time>2024-12-11T12:33:07Z</time>
      </trkpt>
      <trkpt lat="48.18739" lon="6.60804">
        <ele>511</ele>
        <time>2024-12-11T12:33:08Z</time>
      </trkpt>
      <trkpt lat="48.18739" lon="6.60804">
        <ele>511</ele>
        <time>2024-12-11T12:33:26Z</time>
      </trkpt>
      <trkpt lat="48.18738" lon="6.60803">
        <ele>511</ele>
        <time>2024-12-11T12:33:27Z</time>
      </trkpt>
      <trkpt lat="48.1873" lon="6.60795">
        <ele>511.1</ele>
        <time>2024-12-11T12:33:35Z</time>
      </trkpt>
      <trkpt lat="48.18723" lon="6.60785">
        <ele>511.1</ele>
        <time>2024-12-11T12:33:43Z</time>
      </trkpt>
      <trkpt lat="48.18717" lon="6.60774">
        <ele>511.3</ele>
        <time>2024-12-11T12:33:51Z</time>
      </trkpt>
      <trkpt lat="48.18708" lon="6.60765">
        <ele>511.4</ele>
        <time>2024-12-11T12:33:59Z</time>
      </trkpt>
      <trkpt lat="48.18701" lon="6.60756">
        <ele>511.6</ele>
        <time>2024-12-11T12:34:06Z</time>
      </trkpt>
      <trkpt lat="48.18693" lon="6.60747">
        <ele>511.7</ele>
        <time>2024-12-11T12:34:14Z</time>
      </trkpt>
      <trkpt lat="48.18685" lon="6.60741">
        <ele>511.9</ele>
        <time>2024-12-11T12:34:21Z</time>
      </trkpt>
      <trkpt lat="48.18675" lon="6.60735">
        <ele>512.1</ele>
        <time>2024-12-11T12:34:29Z</time>
      </trkpt>
      <trkpt lat="48.18667" lon="6.60728">
        <ele>512.3</ele>
        <time>2024-12-11T12:34:37Z</time>
      </trkpt>
      <trkpt lat="48.18657" lon="6.60724">
        <ele>512.5</ele>
        <time>2024-12-11T12:34:45Z</time>
      </trkpt>
      <trkpt lat="48.18648" lon="6.6072">
        <ele>512.6</ele>
        <time>2024-12-11T12:34:54Z</time>
      </trkpt>
      <trkpt lat="48.18639" lon="6.60716">
        <ele>512.7</ele>
        <time>2024-12-11T12:35:01Z</time>
      </trkpt>
      <trkpt lat="48.18631" lon="6.60711">
        <ele>512.8</ele>
        <time>2024-12-11T12:35:08Z</time>
      </trkpt>
      <trkpt lat="48.18622" lon="6.60706">
        <ele>512.9</ele>
        <time>2024-12-11T12:35:16Z</time>
      </trkpt>
      <trkpt lat="48.18613" lon="6.60702">
        <ele>513</ele>
        <time>2024-12-11T12:35:24Z</time>
      </trkpt>
      <trkpt lat="48.18604" lon="6.607">
        <ele>513.2</ele>
        <time>2024-12-11T12:35:31Z</time>
      </trkpt>
      <trkpt lat="48.18595" lon="6.60697">
        <ele>513.5</ele>
        <time>2024-12-11T12:35:39Z</time>
      </trkpt>
      <trkpt lat="48.1859" lon="6.60695">
        <ele>513.6</ele>
        <time>2024-12-11T12:35:46Z</time>
      </trkpt>
      <trkpt lat="48.1859" lon="6.60695">
        <ele>513.6</ele>
        <time>2024-12-11T12:35:47Z</time>
      </trkpt>
      <trkpt lat="48.1859" lon="6.60695">
        <ele>513.6</ele>
        <time>2024-12-11T12:35:48Z</time>
      </trkpt>
      <trkpt lat="48.18589" lon="6.60694">
        <ele>513.6</ele>
        <time>2024-12-11T12:35:53Z</time>
      </trkpt>
      <trkpt lat="48.18589" lon="6.60694">
        <ele>513.6</ele>
        <time>2024-12-11T12:35:54Z</time>
      </trkpt>
      <trkpt lat="48.1859" lon="6.60694">
        <ele>513.6</ele>
        <time>2024-12-11T12:35:55Z</time>
      </trkpt>
      <trkpt lat="48.1859" lon="6.60694">
        <ele>513.6</ele>
        <time>2024-12-11T12:35:56Z</time>
      </trkpt>
      <trkpt lat="48.1859" lon="6.60694">
        <ele>513.6</ele>
        <time>2024-12-11T12:35:57Z</time>
      </trkpt>
      <trkpt lat="48.18588" lon="6.60692">
        <ele>513.7</ele>
        <time>2024-12-11T12:36:07Z</time>
      </trkpt>
      <trkpt lat="48.18587" lon="6.60691">
        <ele>513.7</ele>
        <time>2024-12-11T12:36:08Z</time>
      </trkpt>
      <trkpt lat="48.18584" lon="6.60692">
        <ele>513.8</ele>
        <time>2024-12-11T12:36:16Z</time>
      </trkpt>
      <trkpt lat="48.18584" lon="6.60692">
        <ele>513.8</ele>
        <time>2024-12-11T12:36:17Z</time>
      </trkpt>
      <trkpt lat="48.18584" lon="6.60692">
        <ele>513.8</ele>
        <time>2024-12-11T12:36:18Z</time>
      </trkpt>
      <trkpt lat="48.18582" lon="6.60692">
        <ele>513.8</ele>
        <time>2024-12-11T12:36:26Z</time>
      </trkpt>
      <trkpt lat="48.1858" lon="6.60691">
        <ele>513.9</ele>
        <time>2024-12-11T12:36:27Z</time>
      </trkpt>
      <trkpt lat="48.18574" lon="6.60685">
        <ele>514.1</ele>
        <time>2024-12-11T12:36:36Z</time>
      </trkpt>
      <trkpt lat="48.18574" lon="6.60685">
        <ele>514.1</ele>
        <time>2024-12-11T12:36:37Z</time>
      </trkpt>
      <trkpt lat="48.18572" lon="6.60684">
        <ele>514.1</ele>
        <time>2024-12-11T12:36:44Z</time>
      </trkpt>
      <trkpt lat="48.18571" lon="6.60684">
        <ele>514.2</ele>
        <time>2024-12-11T12:36:45Z</time>
      </trkpt>
      <trkpt lat="48.18562" lon="6.60681">
        <ele>514.4</ele>
        <time>2024-12-11T12:36:51Z</time>
      </trkpt>
      <trkpt lat="48.18552" lon="6.60679">
        <ele>514.5</ele>
        <time>2024-12-11T12:36:58Z</time>
      </trkpt>
      <trkpt lat="48.18551" lon="6.6068">
        <ele>514.5</ele>
        <time>2024-12-11T12:37:02Z</time>
      </trkpt>
      <trkpt lat="48.18551" lon="6.6068">
        <ele>514.5</ele>
        <time>2024-12-11T12:37:03Z</time>
      </trkpt>
      <trkpt lat="48.18548" lon="6.60682">
        <ele>514.6</ele>
        <time>2024-12-11T12:37:23Z</time>
      </trkpt>
      <trkpt lat="48.18547" lon="6.60683">
        <ele>514.6</ele>
        <time>2024-12-11T12:37:24Z</time>
      </trkpt>
      <trkpt lat="48.18547" lon="6.60684">
        <ele>514.6</ele>
        <time>2024-12-11T12:37:25Z</time>
      </trkpt>
      <trkpt lat="48.18546" lon="6.60684">
        <ele>514.6</ele>
        <time>2024-12-11T12:37:31Z</time>
      </trkpt>
      <trkpt lat="48.18546" lon="6.60684">
        <ele>514.6</ele>
        <time>2024-12-11T12:37:32Z</time>
      </trkpt>
      <trkpt lat="48.18545" lon="6.60685">
        <ele>514.6</ele>
        <time>2024-12-11T12:37:33Z</time>
      </trkpt>
      <trkpt lat="48.18544" lon="6.60685">
        <ele>514.6</ele>
        <time>2024-12-11T12:37:34Z</time>
      </trkpt>
      <trkpt lat="48.18544" lon="6.60687">
        <ele>514.6</ele>
        <time>2024-12-11T12:37:35Z</time>
      </trkpt>
      <trkpt lat="48.18543" lon="6.60687">
        <ele>514.6</ele>
        <time>2024-12-11T12:37:42Z</time>
      </trkpt>
      <trkpt lat="48.18543" lon="6.60687">
        <ele>514.6</ele>
        <time>2024-12-11T12:37:43Z</time>
      </trkpt>
      <trkpt lat="48.18543" lon="6.60689">
        <ele>514.6</ele>
        <time>2024-12-11T12:37:56Z</time>
      </trkpt>
      <trkpt lat="48.18542" lon="6.6069">
        <ele>514.6</ele>
        <time>2024-12-11T12:37:57Z</time>
      </trkpt>
      <trkpt lat="48.18545" lon="6.60705">
        <ele>514.8</ele>
        <time>2024-12-11T12:38:05Z</time>
      </trkpt>
      <trkpt lat="48.18548" lon="6.60719">
        <ele>514.9</ele>
        <time>2024-12-11T12:38:12Z</time>
      </trkpt>
      <trkpt lat="48.18552" lon="6.60725">
        <ele>515</ele>
        <time>2024-12-11T12:38:18Z</time>
      </trkpt>
      <trkpt lat="48.18552" lon="6.60725">
        <ele>515</ele>
        <time>2024-12-11T12:38:19Z</time>
      </trkpt>
      <trkpt lat="48.18552" lon="6.60725">
        <ele>515</ele>
        <time>2024-12-11T12:38:20Z</time>
      </trkpt>
      <trkpt lat="48.18552" lon="6.60726">
        <ele>515</ele>
        <time>2024-12-11T12:38:26Z</time>
      </trkpt>
      <trkpt lat="48.18552" lon="6.60726">
        <ele>515</ele>
        <time>2024-12-11T12:38:27Z</time>
      </trkpt>
      <trkpt lat="48.18552" lon="6.60726">
        <ele>515</ele>
        <time>2024-12-11T12:38:31Z</time>
      </trkpt>
      <trkpt lat="48.18552" lon="6.60726">
        <ele>515</ele>
        <time>2024-12-11T12:38:32Z</time>
      </trkpt>
      <trkpt lat="48.18553" lon="6.60727">
        <ele>515</ele>
        <time>2024-12-11T12:38:36Z</time>
      </trkpt>
      <trkpt lat="48.18553" lon="6.60729">
        <ele>515</ele>
        <time>2024-12-11T12:38:37Z</time>
      </trkpt>
      <trkpt lat="48.18554" lon="6.60731">
        <ele>515</ele>
        <time>2024-12-11T12:38:38Z</time>
      </trkpt>
      <trkpt lat="48.18559" lon="6.60743">
        <ele>515.2</ele>
        <time>2024-12-11T12:38:45Z</time>
      </trkpt>
      <trkpt lat="48.18566" lon="6.60755">
        <ele>515.4</ele>
        <time>2024-12-11T12:38:52Z</time>
      </trkpt>
      <trkpt lat="48.18571" lon="6.60767">
        <ele>515.6</ele>
        <time>2024-12-11T12:38:59Z</time>
      </trkpt>
      <trkpt lat="48.18577" lon="6.60779">
        <ele>515.8</ele>
        <time>2024-12-11T12:39:06Z</time>
      </trkpt>
      <trkpt lat="48.18583" lon="6.6079">
        <ele>516</ele>
        <time>2024-12-11T12:39:13Z</time>
      </trkpt>
      <trkpt lat="48.18589" lon="6.60802">
        <ele>516.2</ele>
        <time>2024-12-11T12:39:21Z</time>
      </trkpt>
      <trkpt lat="48.18594" lon="6.60813">
        <ele>516.5</ele>
        <time>2024-12-11T12:39:29Z</time>
      </trkpt>
      <trkpt lat="48.18597" lon="6.60826">
        <ele>516.7</ele>
        <time>2024-12-11T12:39:36Z</time>
      </trkpt>
      <trkpt lat="48.18602" lon="6.6084">
        <ele>517</ele>
        <time>2024-12-11T12:39:43Z</time>
      </trkpt>
      <trkpt lat="48.18607" lon="6.60852">
        <ele>517.3</ele>
        <time>2024-12-11T12:39:50Z</time>
      </trkpt>
      <trkpt lat="48.18612" lon="6.60865">
        <ele>517.6</ele>
        <time>2024-12-11T12:39:58Z</time>
      </trkpt>
      <trkpt lat="48.18617" lon="6.60877">
        <ele>518</ele>
        <time>2024-12-11T12:40:06Z</time>
      </trkpt>
      <trkpt lat="48.18621" lon="6.6089">
        <ele>518.3</ele>
        <time>2024-12-11T12:40:14Z</time>
      </trkpt>
      <trkpt lat="48.18626" lon="6.60903">
        <ele>518.6</ele>
        <time>2024-12-11T12:40:22Z</time>
      </trkpt>
      <trkpt lat="48.1863" lon="6.60916">
        <ele>518.8</ele>
        <time>2024-12-11T12:40:30Z</time>
      </trkpt>
      <trkpt lat="48.18636" lon="6.60928">
        <ele>519.1</ele>
        <time>2024-12-11T12:40:38Z</time>
      </trkpt>
      <trkpt lat="48.1864" lon="6.6094">
        <ele>519.3</ele>
        <time>2024-12-11T12:40:46Z</time>
      </trkpt>
      <trkpt lat="48.18641" lon="6.60955">
        <ele>519.5</ele>
        <time>2024-12-11T12:40:53Z</time>
      </trkpt>
      <trkpt lat="48.18642" lon="6.60969">
        <ele>519.7</ele>
        <time>2024-12-11T12:41:00Z</time>
      </trkpt>
      <trkpt lat="48.18645" lon="6.60983">
        <ele>519.9</ele>
        <time>2024-12-11T12:41:07Z</time>
      </trkpt>
      <trkpt lat="48.18648" lon="6.60995">
        <ele>520.1</ele>
        <time>2024-12-11T12:41:14Z</time>
      </trkpt>
      <trkpt lat="48.1865" lon="6.6101">
        <ele>520.4</ele>
        <time>2024-12-11T12:41:23Z</time>
      </trkpt>
      <trkpt lat="48.18654" lon="6.61023">
        <ele>520.8</ele>
        <time>2024-12-11T12:41:30Z</time>
      </trkpt>
      <trkpt lat="48.18656" lon="6.61036">
        <ele>521.2</ele>
        <time>2024-12-11T12:41:38Z</time>
      </trkpt>
      <trkpt lat="48.1866" lon="6.6105">
        <ele>521.6</ele>
        <time>2024-12-11T12:41:45Z</time>
      </trkpt>
      <trkpt lat="48.18666" lon="6.61063">
        <ele>522</ele>
        <time>2024-12-11T12:41:52Z</time>
      </trkpt>
      <trkpt lat="48.18671" lon="6.61074">
        <ele>522.4</ele>
        <time>2024-12-11T12:41:59Z</time>
      </trkpt>
      <trkpt lat="48.18676" lon="6.61087">
        <ele>522.7</ele>
        <time>2024-12-11T12:42:07Z</time>
      </trkpt>
      <trkpt lat="48.18679" lon="6.611">
        <ele>522.9</ele>
        <time>2024-12-11T12:42:15Z</time>
      </trkpt>
      <trkpt lat="48.18683" lon="6.61113">
        <ele>523.2</ele>
        <time>2024-12-11T12:42:23Z</time>
      </trkpt>
      <trkpt lat="48.18685" lon="6.61127">
        <ele>523.5</ele>
        <time>2024-12-11T12:42:31Z</time>
      </trkpt>
      <trkpt lat="48.18685" lon="6.61141">
        <ele>523.8</ele>
        <time>2024-12-11T12:42:38Z</time>
      </trkpt>
      <trkpt lat="48.18688" lon="6.61154">
        <ele>524.1</ele>
        <time>2024-12-11T12:42:46Z</time>
      </trkpt>
      <trkpt lat="48.18692" lon="6.61168">
        <ele>524.6</ele>
        <time>2024-12-11T12:42:55Z</time>
      </trkpt>
      <trkpt lat="48.18695" lon="6.6118">
        <ele>524.9</ele>
        <time>2024-12-11T12:43:02Z</time>
      </trkpt>
      <trkpt lat="48.18699" lon="6.61195">
        <ele>525.3</ele>
        <time>2024-12-11T12:43:09Z</time>
      </trkpt>
      <trkpt lat="48.18703" lon="6.61209">
        <ele>525.7</ele>
        <time>2024-12-11T12:43:17Z</time>
      </trkpt>
      <trkpt lat="48.18707" lon="6.61222">
        <ele>526</ele>
        <time>2024-12-11T12:43:25Z</time>
      </trkpt>
      <trkpt lat="48.18711" lon="6.61236">
        <ele>526.4</ele>
        <time>2024-12-11T12:43:33Z</time>
      </trkpt>
      <trkpt lat="48.1871" lon="6.61249">
        <ele>526.7</ele>
        <time>2024-12-11T12:43:42Z</time>
      </trkpt>
      <trkpt lat="48.18708" lon="6.61263">
        <ele>526.9</ele>
        <time>2024-12-11T12:43:52Z</time>
      </trkpt>
      <trkpt lat="48.18708" lon="6.61277">
        <ele>527.1</ele>
        <time>2024-12-11T12:43:59Z</time>
      </trkpt>
      <trkpt lat="48.18707" lon="6.61291">
        <ele>527.2</ele>
        <time>2024-12-11T12:44:08Z</time>
      </trkpt>
      <trkpt lat="48.18706" lon="6.61305">
        <ele>527.4</ele>
        <time>2024-12-11T12:44:16Z</time>
      </trkpt>
      <trkpt lat="48.18708" lon="6.6132">
        <ele>527.5</ele>
        <time>2024-12-11T12:44:23Z</time>
      </trkpt>
      <trkpt lat="48.1871" lon="6.61336">
        <ele>527.8</ele>
        <time>2024-12-11T12:44:31Z</time>
      </trkpt>
      <trkpt lat="48.18711" lon="6.6135">
        <ele>528.1</ele>
        <time>2024-12-11T12:44:39Z</time>
      </trkpt>
      <trkpt lat="48.18714" lon="6.61363">
        <ele>528.4</ele>
        <time>2024-12-11T12:44:47Z</time>
      </trkpt>
      <trkpt lat="48.18717" lon="6.61378">
        <ele>528.8</ele>
        <time>2024-12-11T12:44:55Z</time>
      </trkpt>
      <trkpt lat="48.18719" lon="6.61392">
        <ele>529.2</ele>
        <time>2024-12-11T12:45:02Z</time>
      </trkpt>
      <trkpt lat="48.18721" lon="6.61406">
        <ele>529.5</ele>
        <time>2024-12-11T12:45:09Z</time>
      </trkpt>
      <trkpt lat="48.18722" lon="6.61421">
        <ele>529.8</ele>
        <time>2024-12-11T12:45:17Z</time>
      </trkpt>
      <trkpt lat="48.18725" lon="6.61436">
        <ele>530.1</ele>
        <time>2024-12-11T12:45:25Z</time>
      </trkpt>
      <trkpt lat="48.18723" lon="6.6145">
        <ele>530.5</ele>
        <time>2024-12-11T12:45:32Z</time>
      </trkpt>
      <trkpt lat="48.1872" lon="6.61463">
        <ele>530.8</ele>
        <time>2024-12-11T12:45:41Z</time>
      </trkpt>
      <trkpt lat="48.18723" lon="6.61478">
        <ele>531.2</ele>
        <time>2024-12-11T12:45:48Z</time>
      </trkpt>
      <trkpt lat="48.18723" lon="6.61485">
        <ele>531.4</ele>
        <time>2024-12-11T12:45:56Z</time>
      </trkpt>
      <trkpt lat="48.18723" lon="6.61485">
        <ele>531.4</ele>
        <time>2024-12-11T12:45:57Z</time>
      </trkpt>
      <trkpt lat="48.18723" lon="6.61485">
        <ele>531.4</ele>
        <time>2024-12-11T12:45:58Z</time>
      </trkpt>
      <trkpt lat="48.18723" lon="6.61485">
        <ele>531.4</ele>
        <time>2024-12-11T12:45:59Z</time>
      </trkpt>
      <trkpt lat="48.18723" lon="6.61485">
        <ele>531.4</ele>
        <time>2024-12-11T12:46:00Z</time>
      </trkpt>
      <trkpt lat="48.18723" lon="6.61485">
        <ele>531.4</ele>
        <time>2024-12-11T12:46:01Z</time>
      </trkpt>
      <trkpt lat="48.18723" lon="6.61485">
        <ele>531.4</ele>
        <time>2024-12-11T12:46:02Z</time>
      </trkpt>
      <trkpt lat="48.18723" lon="6.61485">
        <ele>531.4</ele>
        <time>2024-12-11T12:46:03Z</time>
      </trkpt>
      <trkpt lat="48.18725" lon="6.61487">
        <ele>531.5</ele>
        <time>2024-12-11T12:46:06Z</time>
      </trkpt>
      <trkpt lat="48.18725" lon="6.61487">
        <ele>531.5</ele>
        <time>2024-12-11T12:46:07Z</time>
      </trkpt>
      <trkpt lat="48.18726" lon="6.61486">
        <ele>531.5</ele>
        <time>2024-12-11T12:46:08Z</time>
      </trkpt>
      <trkpt lat="48.18726" lon="6.61486">
        <ele>531.5</ele>
        <time>2024-12-11T12:46:12Z</time>
      </trkpt>
      <trkpt lat="48.18726" lon="6.61486">
        <ele>531.5</ele>
        <time>2024-12-11T12:46:13Z</time>
      </trkpt>
      <trkpt lat="48.18723" lon="6.6149">
        <ele>531.7</ele>
        <time>2024-12-11T12:47:51Z</time>
      </trkpt>
      <trkpt lat="48.18723" lon="6.61491">
        <ele>531.7</ele>
        <time>2024-12-11T12:47:52Z</time>
      </trkpt>
      <trkpt lat="48.18723" lon="6.61492">
        <ele>531.7</ele>
        <time>2024-12-11T12:47:53Z</time>
      </trkpt>
      <trkpt lat="48.18721" lon="6.61502">
        <ele>531.9</ele>
        <time>2024-12-11T12:48:02Z</time>
      </trkpt>
      <trkpt lat="48.18721" lon="6.61502">
        <ele>531.9</ele>
        <time>2024-12-11T12:48:03Z</time>
      </trkpt>
      <trkpt lat="48.18721" lon="6.61503">
        <ele>531.9</ele>
        <time>2024-12-11T12:48:04Z</time>
      </trkpt>
      <trkpt lat="48.1872" lon="6.61517">
        <ele>532.2</ele>
        <time>2024-12-11T12:48:12Z</time>
      </trkpt>
      <trkpt lat="48.18722" lon="6.61531">
        <ele>532.5</ele>
        <time>2024-12-11T12:48:20Z</time>
      </trkpt>
      <trkpt lat="48.18724" lon="6.61545">
        <ele>532.8</ele>
        <time>2024-12-11T12:48:28Z</time>
      </trkpt>
      <trkpt lat="48.18726" lon="6.61559">
        <ele>533.1</ele>
        <time>2024-12-11T12:48:36Z</time>
      </trkpt>
      <trkpt lat="48.18729" lon="6.61572">
        <ele>533.4</ele>
        <time>2024-12-11T12:48:43Z</time>
      </trkpt>
      <trkpt lat="48.18732" lon="6.61586">
        <ele>533.6</ele>
        <time>2024-12-11T12:48:51Z</time>
      </trkpt>
      <trkpt lat="48.18735" lon="6.616">
        <ele>533.8</ele>
        <time>2024-12-11T12:48:59Z</time>
      </trkpt>
      <trkpt lat="48.18737" lon="6.61614">
        <ele>534</ele>
        <time>2024-12-11T12:49:06Z</time>
      </trkpt>
      <trkpt lat="48.18743" lon="6.61626">
        <ele>534.3</ele>
        <time>2024-12-11T12:49:13Z</time>
      </trkpt>
      <trkpt lat="48.18748" lon="6.61638">
        <ele>534.7</ele>
        <time>2024-12-11T12:49:20Z</time>
      </trkpt>
      <trkpt lat="48.18752" lon="6.61651">
        <ele>535</ele>
        <time>2024-12-11T12:49:27Z</time>
      </trkpt>
      <trkpt lat="48.18758" lon="6.61663">
        <ele>535.4</ele>
        <time>2024-12-11T12:49:35Z</time>
      </trkpt>
      <trkpt lat="48.18762" lon="6.61676">
        <ele>535.7</ele>
        <time>2024-12-11T12:49:43Z</time>
      </trkpt>
      <trkpt lat="48.18766" lon="6.61689">
        <ele>536</ele>
        <time>2024-12-11T12:49:51Z</time>
      </trkpt>
      <trkpt lat="48.18768" lon="6.61702">
        <ele>536.2</ele>
        <time>2024-12-11T12:49:59Z</time>
      </trkpt>
      <trkpt lat="48.18768" lon="6.61708">
        <ele>536.3</ele>
        <time>2024-12-11T12:50:06Z</time>
      </trkpt>
      <trkpt lat="48.18768" lon="6.61708">
        <ele>536.3</ele>
        <time>2024-12-11T12:50:07Z</time>
      </trkpt>
      <trkpt lat="48.18768" lon="6.61709">
        <ele>536.3</ele>
        <time>2024-12-11T12:50:11Z</time>
      </trkpt>
      <trkpt lat="48.18768" lon="6.6171">
        <ele>536.3</ele>
        <time>2024-12-11T12:50:12Z</time>
      </trkpt>
      <trkpt lat="48.18767" lon="6.61712">
        <ele>536.3</ele>
        <time>2024-12-11T12:50:13Z</time>
      </trkpt>
      <trkpt lat="48.18769" lon="6.61726">
        <ele>536.4</ele>
        <time>2024-12-11T12:50:21Z</time>
      </trkpt>
      <trkpt lat="48.18769" lon="6.61727">
        <ele>536.4</ele>
        <time>2024-12-11T12:50:26Z</time>
      </trkpt>
      <trkpt lat="48.1877" lon="6.61727">
        <ele>536.4</ele>
        <time>2024-12-11T12:50:27Z</time>
      </trkpt>
      <trkpt lat="48.1877" lon="6.61728">
        <ele>536.4</ele>
        <time>2024-12-11T12:50:28Z</time>
      </trkpt>
      <trkpt lat="48.18771" lon="6.61729">
        <ele>536.4</ele>
        <time>2024-12-11T12:50:29Z</time>
      </trkpt>
      <trkpt lat="48.18772" lon="6.61731">
        <ele>536.4</ele>
        <time>2024-12-11T12:50:30Z</time>
      </trkpt>
      <trkpt lat="48.18772" lon="6.61733">
        <ele>536.4</ele>
        <time>2024-12-11T12:50:31Z</time>
      </trkpt>
      <trkpt lat="48.18776" lon="6.61746">
        <ele>536.3</ele>
        <time>2024-12-11T12:50:38Z</time>
      </trkpt>
      <trkpt lat="48.1878" lon="6.61759">
        <ele>536.2</ele>
        <time>2024-12-11T12:50:46Z</time>
      </trkpt>
      <trkpt lat="48.18782" lon="6.61774">
        <ele>536.1</ele>
        <time>2024-12-11T12:50:53Z</time>
      </trkpt>
      <trkpt lat="48.18783" lon="6.61788">
        <ele>536</ele>
        <time>2024-12-11T12:51:00Z</time>
      </trkpt>
      <trkpt lat="48.1878" lon="6.61801">
        <ele>535.8</ele>
        <time>2024-12-11T12:51:08Z</time>
      </trkpt>
      <trkpt lat="48.18777" lon="6.61815">
        <ele>535.7</ele>
        <time>2024-12-11T12:51:15Z</time>
      </trkpt>
      <trkpt lat="48.18774" lon="6.61829">
        <ele>535.7</ele>
        <time>2024-12-11T12:51:22Z</time>
      </trkpt>
      <trkpt lat="48.18773" lon="6.61843">
        <ele>535.7</ele>
        <time>2024-12-11T12:51:29Z</time>
      </trkpt>
      <trkpt lat="48.18775" lon="6.61858">
        <ele>535.6</ele>
        <time>2024-12-11T12:51:35Z</time>
      </trkpt>
      <trkpt lat="48.18776" lon="6.61872">
        <ele>535.6</ele>
        <time>2024-12-11T12:51:42Z</time>
      </trkpt>
      <trkpt lat="48.18775" lon="6.61887">
        <ele>535.6</ele>
        <time>2024-12-11T12:51:50Z</time>
      </trkpt>
      <trkpt lat="48.18768" lon="6.61896">
        <ele>535.5</ele>
        <time>2024-12-11T12:51:58Z</time>
      </trkpt>
      <trkpt lat="48.18766" lon="6.6191">
        <ele>535.5</ele>
        <time>2024-12-11T12:52:06Z</time>
      </trkpt>
      <trkpt lat="48.18769" lon="6.61923">
        <ele>535.4</ele>
        <time>2024-12-11T12:52:12Z</time>
      </trkpt>
      <trkpt lat="48.1877" lon="6.61937">
        <ele>535.4</ele>
        <time>2024-12-11T12:52:19Z</time>
      </trkpt>
      <trkpt lat="48.18769" lon="6.61952">
        <ele>535.5</ele>
        <time>2024-12-11T12:52:27Z</time>
      </trkpt>
      <trkpt lat="48.18771" lon="6.61968">
        <ele>535.5</ele>
        <time>2024-12-11T12:52:34Z</time>
      </trkpt>
      <trkpt lat="48.18771" lon="6.61982">
        <ele>535.6</ele>
        <time>2024-12-11T12:52:42Z</time>
      </trkpt>
      <trkpt lat="48.1877" lon="6.61996">
        <ele>535.9</ele>
        <time>2024-12-11T12:52:51Z</time>
      </trkpt>
      <trkpt lat="48.18769" lon="6.6201">
        <ele>536.2</ele>
        <time>2024-12-11T12:52:57Z</time>
      </trkpt>
      <trkpt lat="48.18768" lon="6.62024">
        <ele>536.5</ele>
        <time>2024-12-11T12:53:03Z</time>
      </trkpt>
      <trkpt lat="48.18769" lon="6.62039">
        <ele>536.9</ele>
        <time>2024-12-11T12:53:10Z</time>
      </trkpt>
      <trkpt lat="48.18775" lon="6.62051">
        <ele>537.3</ele>
        <time>2024-12-11T12:53:18Z</time>
      </trkpt>
      <trkpt lat="48.18781" lon="6.62063">
        <ele>537.7</ele>
        <time>2024-12-11T12:53:25Z</time>
      </trkpt>
      <trkpt lat="48.18787" lon="6.62075">
        <ele>538</ele>
        <time>2024-12-11T12:53:32Z</time>
      </trkpt>
      <trkpt lat="48.18793" lon="6.62086">
        <ele>538.3</ele>
        <time>2024-12-11T12:53:40Z</time>
      </trkpt>
      <trkpt lat="48.18798" lon="6.62099">
        <ele>538.7</ele>
        <time>2024-12-11T12:53:48Z</time>
      </trkpt>
      <trkpt lat="48.18802" lon="6.62111">
        <ele>539</ele>
        <time>2024-12-11T12:53:56Z</time>
      </trkpt>
      <trkpt lat="48.18807" lon="6.62124">
        <ele>539.4</ele>
        <time>2024-12-11T12:54:04Z</time>
      </trkpt>
      <trkpt lat="48.18813" lon="6.62135">
        <ele>539.7</ele>
        <time>2024-12-11T12:54:12Z</time>
      </trkpt>
      <trkpt lat="48.18819" lon="6.62146">
        <ele>540.1</ele>
        <time>2024-12-11T12:54:20Z</time>
      </trkpt>
      <trkpt lat="48.18825" lon="6.62157">
        <ele>540.4</ele>
        <time>2024-12-11T12:54:28Z</time>
      </trkpt>
      <trkpt lat="48.18826" lon="6.6216">
        <ele>540.5</ele>
        <time>2024-12-11T12:54:34Z</time>
      </trkpt>
      <trkpt lat="48.18826" lon="6.6216">
        <ele>540.5</ele>
        <time>2024-12-11T12:54:35Z</time>
      </trkpt>
      <trkpt lat="48.18826" lon="6.6216">
        <ele>540.5</ele>
        <time>2024-12-11T12:54:36Z</time>
      </trkpt>
      <trkpt lat="48.18827" lon="6.62162">
        <ele>540.5</ele>
        <time>2024-12-11T12:54:39Z</time>
      </trkpt>
      <trkpt lat="48.18828" lon="6.62163">
        <ele>540.6</ele>
        <time>2024-12-11T12:54:40Z</time>
      </trkpt>
      <trkpt lat="48.18828" lon="6.62165">
        <ele>540.6</ele>
        <time>2024-12-11T12:54:41Z</time>
      </trkpt>
      <trkpt lat="48.18833" lon="6.62176">
        <ele>540.7</ele>
        <time>2024-12-11T12:54:49Z</time>
      </trkpt>
      <trkpt lat="48.18839" lon="6.62188">
        <ele>540.8</ele>
        <time>2024-12-11T12:54:57Z</time>
      </trkpt>
      <trkpt lat="48.18844" lon="6.622">
        <ele>540.8</ele>
        <time>2024-12-11T12:55:04Z</time>
      </trkpt>
      <trkpt lat="48.1885" lon="6.6221">
        <ele>540.7</ele>
        <time>2024-12-11T12:55:11Z</time>
      </trkpt>
      <trkpt lat="48.18856" lon="6.62221">
        <ele>540.5</ele>
        <time>2024-12-11T12:55:18Z</time>
      </trkpt>
      <trkpt lat="48.18861" lon="6.62234">
        <ele>540.3</ele>
        <time>2024-12-11T12:55:25Z</time>
      </trkpt>
      <trkpt lat="48.18868" lon="6.62244">
        <ele>539.9</ele>
        <time>2024-12-11T12:55:33Z</time>
      </trkpt>
      <trkpt lat="48.18876" lon="6.62252">
        <ele>539.5</ele>
        <time>2024-12-11T12:55:40Z</time>
      </trkpt>
      <trkpt lat="48.18881" lon="6.62265">
        <ele>538.9</ele>
        <time>2024-12-11T12:55:49Z</time>
      </trkpt>
      <trkpt lat="48.18884" lon="6.6228">
        <ele>538.1</ele>
        <time>2024-12-11T12:55:57Z</time>
      </trkpt>
      <trkpt lat="48.18885" lon="6.62293">
        <ele>537.3</ele>
        <time>2024-12-11T12:56:05Z</time>
      </trkpt>
      <trkpt lat="48.18884" lon="6.62307">
        <ele>536.4</ele>
        <time>2024-12-11T12:56:14Z</time>
      </trkpt>
      <trkpt lat="48.18882" lon="6.62321">
        <ele>535.5</ele>
        <time>2024-12-11T12:56:23Z</time>
      </trkpt>
      <trkpt lat="48.18878" lon="6.62335">
        <ele>534.6</ele>
        <time>2024-12-11T12:56:32Z</time>
      </trkpt>
      <trkpt lat="48.18876" lon="6.62349">
        <ele>533.9</ele>
        <time>2024-12-11T12:56:39Z</time>
      </trkpt>
      <trkpt lat="48.18873" lon="6.62364">
        <ele>533.2</ele>
        <time>2024-12-11T12:56:46Z</time>
      </trkpt>
      <trkpt lat="48.18871" lon="6.62378">
        <ele>532.8</ele>
        <time>2024-12-11T12:56:53Z</time>
      </trkpt>
      <trkpt lat="48.18872" lon="6.62393">
        <ele>532.5</ele>
        <time>2024-12-11T12:57:01Z</time>
      </trkpt>
      <trkpt lat="48.18872" lon="6.62407">
        <ele>532.2</ele>
        <time>2024-12-11T12:57:08Z</time>
      </trkpt>
      <trkpt lat="48.18873" lon="6.62421">
        <ele>532.1</ele>
        <time>2024-12-11T12:57:16Z</time>
      </trkpt>
      <trkpt lat="48.18873" lon="6.62435">
        <ele>532</ele>
        <time>2024-12-11T12:57:25Z</time>
      </trkpt>
      <trkpt lat="48.18874" lon="6.62449">
        <ele>531.9</ele>
        <time>2024-12-11T12:57:33Z</time>
      </trkpt>
      <trkpt lat="48.18876" lon="6.62463">
        <ele>532</ele>
        <time>2024-12-11T12:57:42Z</time>
      </trkpt>
      <trkpt lat="48.18876" lon="6.62474">
        <ele>532</ele>
        <time>2024-12-11T12:57:53Z</time>
      </trkpt>
      <trkpt lat="48.18876" lon="6.62474">
        <ele>532</ele>
        <time>2024-12-11T12:57:54Z</time>
      </trkpt>
      <trkpt lat="48.18876" lon="6.62474">
        <ele>532</ele>
        <time>2024-12-11T12:57:55Z</time>
      </trkpt>
      <trkpt lat="48.18876" lon="6.62475">
        <ele>532</ele>
        <time>2024-12-11T12:58:06Z</time>
      </trkpt>
      <trkpt lat="48.18876" lon="6.62476">
        <ele>532</ele>
        <time>2024-12-11T12:58:07Z</time>
      </trkpt>
      <trkpt lat="48.18876" lon="6.62475">
        <ele>532</ele>
        <time>2024-12-11T12:58:08Z</time>
      </trkpt>
      <trkpt lat="48.18876" lon="6.62475">
        <ele>532</ele>
        <time>2024-12-11T12:58:09Z</time>
      </trkpt>
      <trkpt lat="48.18876" lon="6.62476">
        <ele>532</ele>
        <time>2024-12-11T12:58:10Z</time>
      </trkpt>
      <trkpt lat="48.18876" lon="6.62478">
        <ele>532</ele>
        <time>2024-12-11T12:58:16Z</time>
      </trkpt>
      <trkpt lat="48.18876" lon="6.62479">
        <ele>532</ele>
        <time>2024-12-11T12:58:17Z</time>
      </trkpt>
      <trkpt lat="48.18877" lon="6.62481">
        <ele>532</ele>
        <time>2024-12-11T12:58:21Z</time>
      </trkpt>
      <trkpt lat="48.18877" lon="6.62481">
        <ele>532</ele>
        <time>2024-12-11T12:58:22Z</time>
      </trkpt>
      <trkpt lat="48.18877" lon="6.62481">
        <ele>532</ele>
        <time>2024-12-11T12:58:54Z</time>
      </trkpt>
      <trkpt lat="48.18876" lon="6.62481">
        <ele>532</ele>
        <time>2024-12-11T12:58:55Z</time>
      </trkpt>
      <trkpt lat="48.18875" lon="6.62484">
        <ele>532.1</ele>
        <time>2024-12-11T12:59:04Z</time>
      </trkpt>
      <trkpt lat="48.18875" lon="6.62484">
        <ele>532.1</ele>
        <time>2024-12-11T12:59:05Z</time>
      </trkpt>
      <trkpt lat="48.18876" lon="6.62488">
        <ele>532.1</ele>
        <time>2024-12-11T12:59:21Z</time>
      </trkpt>
      <trkpt lat="48.18877" lon="6.62489">
        <ele>532.1</ele>
        <time>2024-12-11T12:59:22Z</time>
      </trkpt>
      <trkpt lat="48.18877" lon="6.62503">
        <ele>532.3</ele>
        <time>2024-12-11T12:59:30Z</time>
      </trkpt>
      <trkpt lat="48.18877" lon="6.62518">
        <ele>532.4</ele>
        <time>2024-12-11T12:59:37Z</time>
      </trkpt>
      <trkpt lat="48.18878" lon="6.62532">
        <ele>532.5</ele>
        <time>2024-12-11T12:59:43Z</time>
      </trkpt>
      <trkpt lat="48.18879" lon="6.62546">
        <ele>532.7</ele>
        <time>2024-12-11T12:59:51Z</time>
      </trkpt>
      <trkpt lat="48.18879" lon="6.62561">
        <ele>532.8</ele>
        <time>2024-12-11T12:59:57Z</time>
      </trkpt>
      <trkpt lat="48.18878" lon="6.62575">
        <ele>533</ele>
        <time>2024-12-11T13:00:04Z</time>
      </trkpt>
      <trkpt lat="48.18872" lon="6.62586">
        <ele>533.3</ele>
        <time>2024-12-11T13:00:13Z</time>
      </trkpt>
      <trkpt lat="48.18863" lon="6.62592">
        <ele>533.6</ele>
        <time>2024-12-11T13:00:22Z</time>
      </trkpt>
      <trkpt lat="48.18854" lon="6.62594">
        <ele>533.9</ele>
        <time>2024-12-11T13:00:30Z</time>
      </trkpt>
      <trkpt lat="48.18856" lon="6.62607">
        <ele>534.3</ele>
        <time>2024-12-11T13:00:37Z</time>
      </trkpt>
      <trkpt lat="48.18862" lon="6.62617">
        <ele>534.7</ele>
        <time>2024-12-11T13:00:43Z</time>
      </trkpt>
      <trkpt lat="48.18867" lon="6.6263">
        <ele>535.3</ele>
        <time>2024-12-11T13:00:50Z</time>
      </trkpt>
      <trkpt lat="48.18872" lon="6.62642">
        <ele>536</ele>
        <time>2024-12-11T13:00:57Z</time>
      </trkpt>
      <trkpt lat="48.18877" lon="6.62654">
        <ele>536.9</ele>
        <time>2024-12-11T13:01:04Z</time>
      </trkpt>
      <trkpt lat="48.1888" lon="6.62667">
        <ele>537.7</ele>
        <time>2024-12-11T13:01:12Z</time>
      </trkpt>
      <trkpt lat="48.18882" lon="6.62682">
        <ele>538.8</ele>
        <time>2024-12-11T13:01:20Z</time>
      </trkpt>
      <trkpt lat="48.18885" lon="6.62694">
        <ele>539.7</ele>
        <time>2024-12-11T13:01:31Z</time>
      </trkpt>
      <trkpt lat="48.18887" lon="6.62708">
        <ele>540.7</ele>
        <time>2024-12-11T13:01:39Z</time>
      </trkpt>
      <trkpt lat="48.18891" lon="6.62721">
        <ele>541.6</ele>
        <time>2024-12-11T13:01:47Z</time>
      </trkpt>
      <trkpt lat="48.18893" lon="6.62734">
        <ele>542.4</ele>
        <time>2024-12-11T13:01:57Z</time>
      </trkpt>
      <trkpt lat="48.18893" lon="6.62734">
        <ele>542.4</ele>
        <time>2024-12-11T13:01:59Z</time>
      </trkpt>
      <trkpt lat="48.18893" lon="6.62734">
        <ele>542.4</ele>
        <time>2024-12-11T13:02:00Z</time>
      </trkpt>
      <trkpt lat="48.18893" lon="6.62734">
        <ele>542.4</ele>
        <time>2024-12-11T13:02:01Z</time>
      </trkpt>
      <trkpt lat="48.18894" lon="6.62736">
        <ele>542.5</ele>
        <time>2024-12-11T13:02:06Z</time>
      </trkpt>
      <trkpt lat="48.18894" lon="6.62738">
        <ele>542.6</ele>
        <time>2024-12-11T13:02:07Z</time>
      </trkpt>
      <trkpt lat="48.189" lon="6.62749">
        <ele>542.9</ele>
        <time>2024-12-11T13:02:18Z</time>
      </trkpt>
      <trkpt lat="48.18909" lon="6.62757">
        <ele>542.9</ele>
        <time>2024-12-11T13:02:26Z</time>
      </trkpt>
      <trkpt lat="48.18917" lon="6.62763">
        <ele>542.8</ele>
        <time>2024-12-11T13:02:32Z</time>
      </trkpt>
      <trkpt lat="48.18924" lon="6.62773">
        <ele>542.8</ele>
        <time>2024-12-11T13:02:40Z</time>
      </trkpt>
      <trkpt lat="48.18933" lon="6.62779">
        <ele>542.8</ele>
        <time>2024-12-11T13:02:47Z</time>
      </trkpt>
      <trkpt lat="48.18937" lon="6.6278">
        <ele>542.8</ele>
        <time>2024-12-11T13:02:53Z</time>
      </trkpt>
      <trkpt lat="48.18938" lon="6.6278">
        <ele>542.8</ele>
        <time>2024-12-11T13:02:54Z</time>
      </trkpt>
      <trkpt lat="48.18938" lon="6.6278">
        <ele>542.8</ele>
        <time>2024-12-11T13:02:55Z</time>
      </trkpt>
      <trkpt lat="48.18939" lon="6.62781">
        <ele>542.8</ele>
        <time>2024-12-11T13:02:56Z</time>
      </trkpt>
      <trkpt lat="48.1894" lon="6.62781">
        <ele>542.9</ele>
        <time>2024-12-11T13:02:57Z</time>
      </trkpt>
      <trkpt lat="48.18941" lon="6.62782">
        <ele>542.9</ele>
        <time>2024-12-11T13:02:58Z</time>
      </trkpt>
      <trkpt lat="48.18949" lon="6.62785">
        <ele>542.9</ele>
        <time>2024-12-11T13:03:06Z</time>
      </trkpt>
      <trkpt lat="48.18958" lon="6.62791">
        <ele>542.9</ele>
        <time>2024-12-11T13:03:16Z</time>
      </trkpt>
      <trkpt lat="48.18967" lon="6.62794">
        <ele>542.9</ele>
        <time>2024-12-11T13:03:24Z</time>
      </trkpt>
      <trkpt lat="48.18975" lon="6.628">
        <ele>543</ele>
        <time>2024-12-11T13:03:32Z</time>
      </trkpt>
      <trkpt lat="48.18983" lon="6.62809">
        <ele>543</ele>
        <time>2024-12-11T13:03:43Z</time>
      </trkpt>
      <trkpt lat="48.18991" lon="6.62815">
        <ele>543.1</ele>
        <time>2024-12-11T13:03:52Z</time>
      </trkpt>
      <trkpt lat="48.19" lon="6.62822">
        <ele>543.2</ele>
        <time>2024-12-11T13:04:00Z</time>
      </trkpt>
      <trkpt lat="48.19009" lon="6.62829">
        <ele>543.2</ele>
        <time>2024-12-11T13:04:07Z</time>
      </trkpt>
      <trkpt lat="48.19018" lon="6.6283">
        <ele>543.1</ele>
        <time>2024-12-11T13:04:13Z</time>
      </trkpt>
      <trkpt lat="48.19028" lon="6.62831">
        <ele>543</ele>
        <time>2024-12-11T13:04:18Z</time>
      </trkpt>
      <trkpt lat="48.19037" lon="6.62838">
        <ele>543</ele>
        <time>2024-12-11T13:04:27Z</time>
      </trkpt>
      <trkpt lat="48.19045" lon="6.62844">
        <ele>543</ele>
        <time>2024-12-11T13:04:34Z</time>
      </trkpt>
      <trkpt lat="48.19053" lon="6.62853">
        <ele>543.1</ele>
        <time>2024-12-11T13:04:42Z</time>
      </trkpt>
      <trkpt lat="48.19062" lon="6.62858">
        <ele>543.2</ele>
        <time>2024-12-11T13:04:50Z</time>
      </trkpt>
      <trkpt lat="48.1907" lon="6.62867">
        <ele>543.4</ele>
        <time>2024-12-11T13:05:00Z</time>
      </trkpt>
      <trkpt lat="48.19078" lon="6.62874">
        <ele>543.6</ele>
        <time>2024-12-11T13:05:10Z</time>
      </trkpt>
      <trkpt lat="48.19088" lon="6.62876">
        <ele>543.7</ele>
        <time>2024-12-11T13:05:18Z</time>
      </trkpt>
      <trkpt lat="48.19098" lon="6.62878">
        <ele>543.7</ele>
        <time>2024-12-11T13:05:26Z</time>
      </trkpt>
      <trkpt lat="48.19107" lon="6.62881">
        <ele>543.6</ele>
        <time>2024-12-11T13:05:33Z</time>
      </trkpt>
      <trkpt lat="48.19115" lon="6.62888">
        <ele>543.6</ele>
        <time>2024-12-11T13:05:40Z</time>
      </trkpt>
      <trkpt lat="48.19124" lon="6.62894">
        <ele>543.6</ele>
        <time>2024-12-11T13:05:48Z</time>
      </trkpt>
      <trkpt lat="48.19131" lon="6.62902">
        <ele>543.6</ele>
        <time>2024-12-11T13:05:56Z</time>
      </trkpt>
      <trkpt lat="48.19141" lon="6.62905">
        <ele>543.7</ele>
        <time>2024-12-11T13:06:01Z</time>
      </trkpt>
      <trkpt lat="48.19151" lon="6.62906">
        <ele>543.8</ele>
        <time>2024-12-11T13:06:07Z</time>
      </trkpt>
      <trkpt lat="48.1916" lon="6.62912">
        <ele>544</ele>
        <time>2024-12-11T13:06:14Z</time>
      </trkpt>
      <trkpt lat="48.19167" lon="6.62922">
        <ele>544.1</ele>
        <time>2024-12-11T13:06:22Z</time>
      </trkpt>
      <trkpt lat="48.19172" lon="6.62933">
        <ele>544.2</ele>
        <time>2024-12-11T13:06:31Z</time>
      </trkpt>
      <trkpt lat="48.19181" lon="6.62941">
        <ele>544.2</ele>
        <time>2024-12-11T13:06:40Z</time>
      </trkpt>
      <trkpt lat="48.19189" lon="6.62947">
        <ele>544.2</ele>
        <time>2024-12-11T13:06:47Z</time>
      </trkpt>
      <trkpt lat="48.19197" lon="6.62956">
        <ele>544.2</ele>
        <time>2024-12-11T13:06:55Z</time>
      </trkpt>
      <trkpt lat="48.19205" lon="6.62963">
        <ele>544.2</ele>
        <time>2024-12-11T13:07:01Z</time>
      </trkpt>
      <trkpt lat="48.19214" lon="6.62968">
        <ele>544.2</ele>
        <time>2024-12-11T13:07:07Z</time>
      </trkpt>
      <trkpt lat="48.19222" lon="6.62974">
        <ele>544.2</ele>
        <time>2024-12-11T13:07:14Z</time>
      </trkpt>
      <trkpt lat="48.19228" lon="6.62985">
        <ele>544.2</ele>
        <time>2024-12-11T13:07:22Z</time>
      </trkpt>
      <trkpt lat="48.19236" lon="6.62995">
        <ele>544.2</ele>
        <time>2024-12-11T13:07:30Z</time>
      </trkpt>
      <trkpt lat="48.19243" lon="6.63005">
        <ele>544.2</ele>
        <time>2024-12-11T13:07:38Z</time>
      </trkpt>
      <trkpt lat="48.19251" lon="6.63015">
        <ele>544.2</ele>
        <time>2024-12-11T13:07:46Z</time>
      </trkpt>
      <trkpt lat="48.19259" lon="6.63022">
        <ele>544.3</ele>
        <time>2024-12-11T13:07:53Z</time>
      </trkpt>
      <trkpt lat="48.19267" lon="6.63029">
        <ele>544.4</ele>
        <time>2024-12-11T13:08:01Z</time>
      </trkpt>
      <trkpt lat="48.19273" lon="6.63041">
        <ele>544.5</ele>
        <time>2024-12-11T13:08:09Z</time>
      </trkpt>
      <trkpt lat="48.19278" lon="6.63053">
        <ele>544.7</ele>
        <time>2024-12-11T13:08:17Z</time>
      </trkpt>
      <trkpt lat="48.19283" lon="6.63065">
        <ele>544.9</ele>
        <time>2024-12-11T13:08:25Z</time>
      </trkpt>
      <trkpt lat="48.19291" lon="6.63074">
        <ele>545.1</ele>
        <time>2024-12-11T13:08:33Z</time>
      </trkpt>
      <trkpt lat="48.19298" lon="6.63084">
        <ele>545.3</ele>
        <time>2024-12-11T13:08:42Z</time>
      </trkpt>
      <trkpt lat="48.19305" lon="6.63093">
        <ele>545.3</ele>
        <time>2024-12-11T13:08:50Z</time>
      </trkpt>
      <trkpt lat="48.19312" lon="6.63101">
        <ele>545.3</ele>
        <time>2024-12-11T13:08:57Z</time>
      </trkpt>
      <trkpt lat="48.19321" lon="6.63105">
        <ele>545.2</ele>
        <time>2024-12-11T13:09:03Z</time>
      </trkpt>
      <trkpt lat="48.19331" lon="6.63107">
        <ele>545</ele>
        <time>2024-12-11T13:09:09Z</time>
      </trkpt>
      <trkpt lat="48.19341" lon="6.63113">
        <ele>544.8</ele>
        <time>2024-12-11T13:09:15Z</time>
      </trkpt>
      <trkpt lat="48.19346" lon="6.63126">
        <ele>544.6</ele>
        <time>2024-12-11T13:09:22Z</time>
      </trkpt>
      <trkpt lat="48.19354" lon="6.63134">
        <ele>544.5</ele>
        <time>2024-12-11T13:09:29Z</time>
      </trkpt>
      <trkpt lat="48.19361" lon="6.63143">
        <ele>544.3</ele>
        <time>2024-12-11T13:09:36Z</time>
      </trkpt>
      <trkpt lat="48.19367" lon="6.63154">
        <ele>544.2</ele>
        <time>2024-12-11T13:09:44Z</time>
      </trkpt>
      <trkpt lat="48.19368" lon="6.63167">
        <ele>544</ele>
        <time>2024-12-11T13:09:51Z</time>
      </trkpt>
      <trkpt lat="48.19371" lon="6.6318">
        <ele>543.8</ele>
        <time>2024-12-11T13:09:59Z</time>
      </trkpt>
      <trkpt lat="48.19378" lon="6.6319">
        <ele>543.5</ele>
        <time>2024-12-11T13:10:07Z</time>
      </trkpt>
      <trkpt lat="48.19387" lon="6.63197">
        <ele>542.9</ele>
        <time>2024-12-11T13:10:15Z</time>
      </trkpt>
      <trkpt lat="48.19395" lon="6.63204">
        <ele>542.2</ele>
        <time>2024-12-11T13:10:27Z</time>
      </trkpt>
      <trkpt lat="48.19404" lon="6.6321">
        <ele>541.3</ele>
        <time>2024-12-11T13:10:34Z</time>
      </trkpt>
      <trkpt lat="48.19411" lon="6.63218">
        <ele>540.5</ele>
        <time>2024-12-11T13:10:41Z</time>
      </trkpt>
      <trkpt lat="48.19421" lon="6.63222">
        <ele>539.6</ele>
        <time>2024-12-11T13:10:48Z</time>
      </trkpt>
      <trkpt lat="48.19429" lon="6.6323">
        <ele>538.9</ele>
        <time>2024-12-11T13:10:55Z</time>
      </trkpt>
      <trkpt lat="48.19437" lon="6.63238">
        <ele>538.4</ele>
        <time>2024-12-11T13:11:01Z</time>
      </trkpt>
      <trkpt lat="48.19446" lon="6.63243">
        <ele>537.9</ele>
        <time>2024-12-11T13:11:07Z</time>
      </trkpt>
      <trkpt lat="48.19454" lon="6.63252">
        <ele>537.4</ele>
        <time>2024-12-11T13:11:14Z</time>
      </trkpt>
      <trkpt lat="48.19461" lon="6.63263">
        <ele>536.8</ele>
        <time>2024-12-11T13:11:22Z</time>
      </trkpt>
      <trkpt lat="48.19468" lon="6.63274">
        <ele>536.2</ele>
        <time>2024-12-11T13:11:30Z</time>
      </trkpt>
      <trkpt lat="48.19474" lon="6.63284">
        <ele>535.6</ele>
        <time>2024-12-11T13:11:37Z</time>
      </trkpt>
      <trkpt lat="48.19482" lon="6.63293">
        <ele>535</ele>
        <time>2024-12-11T13:11:45Z</time>
      </trkpt>
      <trkpt lat="48.19488" lon="6.63305">
        <ele>534.4</ele>
        <time>2024-12-11T13:11:54Z</time>
      </trkpt>
      <trkpt lat="48.19495" lon="6.63314">
        <ele>533.8</ele>
        <time>2024-12-11T13:12:02Z</time>
      </trkpt>
      <trkpt lat="48.19502" lon="6.63323">
        <ele>533.1</ele>
        <time>2024-12-11T13:12:10Z</time>
      </trkpt>
      <trkpt lat="48.19509" lon="6.63332">
        <ele>532.5</ele>
        <time>2024-12-11T13:12:18Z</time>
      </trkpt>
      <trkpt lat="48.19518" lon="6.63338">
        <ele>531.8</ele>
        <time>2024-12-11T13:12:25Z</time>
      </trkpt>
      <trkpt lat="48.19528" lon="6.63343">
        <ele>531.1</ele>
        <time>2024-12-11T13:12:32Z</time>
      </trkpt>
      <trkpt lat="48.19536" lon="6.63351">
        <ele>530.5</ele>
        <time>2024-12-11T13:12:39Z</time>
      </trkpt>
      <trkpt lat="48.19543" lon="6.6336">
        <ele>529.9</ele>
        <time>2024-12-11T13:12:47Z</time>
      </trkpt>
      <trkpt lat="48.19547" lon="6.63374">
        <ele>529.4</ele>
        <time>2024-12-11T13:12:55Z</time>
      </trkpt>
      <trkpt lat="48.19552" lon="6.63386">
        <ele>528.9</ele>
        <time>2024-12-11T13:13:03Z</time>
      </trkpt>
      <trkpt lat="48.19558" lon="6.63399">
        <ele>528.4</ele>
        <time>2024-12-11T13:13:11Z</time>
      </trkpt>
      <trkpt lat="48.19561" lon="6.63411">
        <ele>528</ele>
        <time>2024-12-11T13:13:18Z</time>
      </trkpt>
      <trkpt lat="48.19566" lon="6.63421">
        <ele>527.6</ele>
        <time>2024-12-11T13:13:29Z</time>
      </trkpt>
      <trkpt lat="48.19566" lon="6.63421">
        <ele>527.6</ele>
        <time>2024-12-11T13:13:30Z</time>
      </trkpt>
      <trkpt lat="48.19566" lon="6.63424">
        <ele>527.5</ele>
        <time>2024-12-11T13:13:41Z</time>
      </trkpt>
      <trkpt lat="48.19566" lon="6.63424">
        <ele>527.5</ele>
        <time>2024-12-11T13:13:42Z</time>
      </trkpt>
      <trkpt lat="48.19566" lon="6.63424">
        <ele>527.5</ele>
        <time>2024-12-11T13:13:43Z</time>
      </trkpt>
      <trkpt lat="48.19566" lon="6.63424">
        <ele>527.5</ele>
        <time>2024-12-11T13:13:44Z</time>
      </trkpt>
      <trkpt lat="48.19566" lon="6.63424">
        <ele>527.5</ele>
        <time>2024-12-11T13:13:45Z</time>
      </trkpt>
      <trkpt lat="48.19567" lon="6.63428">
        <ele>527.3</ele>
        <time>2024-12-11T13:13:58Z</time>
      </trkpt>
      <trkpt lat="48.19567" lon="6.6343">
        <ele>527.3</ele>
        <time>2024-12-11T13:13:59Z</time>
      </trkpt>
      <trkpt lat="48.19567" lon="6.63431">
        <ele>527.3</ele>
        <time>2024-12-11T13:14:00Z</time>
      </trkpt>
      <trkpt lat="48.19569" lon="6.63445">
        <ele>527</ele>
        <time>2024-12-11T13:14:09Z</time>
      </trkpt>
      <trkpt lat="48.19571" lon="6.63455">
        <ele>526.8</ele>
        <time>2024-12-11T13:14:21Z</time>
      </trkpt>
      <trkpt lat="48.19571" lon="6.63455">
        <ele>526.8</ele>
        <time>2024-12-11T13:14:22Z</time>
      </trkpt>
      <trkpt lat="48.19572" lon="6.63455">
        <ele>526.8</ele>
        <time>2024-12-11T13:15:31Z</time>
      </trkpt>
      <trkpt lat="48.19572" lon="6.63456">
        <ele>526.8</ele>
        <time>2024-12-11T13:15:32Z</time>
      </trkpt>
      <trkpt lat="48.19575" lon="6.63469">
        <ele>526.5</ele>
        <time>2024-12-11T13:15:42Z</time>
      </trkpt>
      <trkpt lat="48.1958" lon="6.63478">
        <ele>526.1</ele>
        <time>2024-12-11T13:15:54Z</time>
      </trkpt>
      <trkpt lat="48.1958" lon="6.63478">
        <ele>526.1</ele>
        <time>2024-12-11T13:15:55Z</time>
      </trkpt>
      <trkpt lat="48.19581" lon="6.6348">
        <ele>526</ele>
        <time>2024-12-11T13:16:41Z</time>
      </trkpt>
      <trkpt lat="48.19581" lon="6.63481">
        <ele>525.9</ele>
        <time>2024-12-11T13:16:42Z</time>
      </trkpt>
      <trkpt lat="48.19582" lon="6.63482">
        <ele>525.8</ele>
        <time>2024-12-11T13:16:43Z</time>
      </trkpt>
      <trkpt lat="48.19587" lon="6.63494">
        <ele>524.8</ele>
        <time>2024-12-11T13:16:52Z</time>
      </trkpt>
      <trkpt lat="48.19593" lon="6.63505">
        <ele>523.8</ele>
        <time>2024-12-11T13:17:01Z</time>
      </trkpt>
      <trkpt lat="48.19593" lon="6.63513">
        <ele>523.2</ele>
        <time>2024-12-11T13:17:13Z</time>
      </trkpt>
      <trkpt lat="48.19593" lon="6.63513">
        <ele>523.2</ele>
        <time>2024-12-11T13:17:14Z</time>
      </trkpt>
      <trkpt lat="48.19593" lon="6.63513">
        <ele>523.2</ele>
        <time>2024-12-11T13:17:15Z</time>
      </trkpt>
      <trkpt lat="48.19594" lon="6.63517">
        <ele>522.9</ele>
        <time>2024-12-11T13:17:41Z</time>
      </trkpt>
      <trkpt lat="48.19594" lon="6.63518">
        <ele>522.8</ele>
        <time>2024-12-11T13:17:42Z</time>
      </trkpt>
      <trkpt lat="48.19594" lon="6.6352">
        <ele>522.7</ele>
        <time>2024-12-11T13:17:43Z</time>
      </trkpt>
      <trkpt lat="48.19598" lon="6.63533">
        <ele>521.7</ele>
        <time>2024-12-11T13:17:51Z</time>
      </trkpt>
      <trkpt lat="48.19601" lon="6.63546">
        <ele>520.9</ele>
        <time>2024-12-11T13:17:59Z</time>
      </trkpt>
      <trkpt lat="48.19605" lon="6.6356">
        <ele>520.1</ele>
        <time>2024-12-11T13:18:07Z</time>
      </trkpt>
      <trkpt lat="48.1961" lon="6.63573">
        <ele>519.6</ele>
        <time>2024-12-11T13:18:15Z</time>
      </trkpt>
      <trkpt lat="48.19615" lon="6.63583">
        <ele>519.1</ele>
        <time>2024-12-11T13:18:23Z</time>
      </trkpt>
      <trkpt lat="48.19623" lon="6.6359">
        <ele>518.6</ele>
        <time>2024-12-11T13:18:31Z</time>
      </trkpt>
      <trkpt lat="48.19633" lon="6.63593">
        <ele>517.9</ele>
        <time>2024-12-11T13:18:40Z</time>
      </trkpt>
      <trkpt lat="48.19642" lon="6.63592">
        <ele>517.1</ele>
        <time>2024-12-11T13:18:49Z</time>
      </trkpt>
      <trkpt lat="48.19652" lon="6.63595">
        <ele>516.1</ele>
        <time>2024-12-11T13:18:56Z</time>
      </trkpt>
      <trkpt lat="48.19661" lon="6.63597">
        <ele>515.3</ele>
        <time>2024-12-11T13:19:03Z</time>
      </trkpt>
      <trkpt lat="48.1967" lon="6.63604">
        <ele>514.4</ele>
        <time>2024-12-11T13:19:10Z</time>
      </trkpt>
      <trkpt lat="48.19679" lon="6.63609">
        <ele>513.6</ele>
        <time>2024-12-11T13:19:17Z</time>
      </trkpt>
      <trkpt lat="48.19688" lon="6.63613">
        <ele>513.1</ele>
        <time>2024-12-11T13:19:24Z</time>
      </trkpt>
      <trkpt lat="48.19696" lon="6.63609">
        <ele>512.8</ele>
        <time>2024-12-11T13:19:33Z</time>
      </trkpt>
      <trkpt lat="48.19696" lon="6.63609">
        <ele>512.8</ele>
        <time>2024-12-11T13:19:34Z</time>
      </trkpt>
      <trkpt lat="48.19696" lon="6.63609">
        <ele>512.8</ele>
        <time>2024-12-11T13:19:35Z</time>
      </trkpt>
      <trkpt lat="48.19697" lon="6.6361">
        <ele>512.8</ele>
        <time>2024-12-11T13:19:41Z</time>
      </trkpt>
      <trkpt lat="48.19697" lon="6.63611">
        <ele>512.8</ele>
        <time>2024-12-11T13:19:42Z</time>
      </trkpt>
      <trkpt lat="48.19698" lon="6.63611">
        <ele>512.8</ele>
        <time>2024-12-11T13:19:43Z</time>
      </trkpt>
      <trkpt lat="48.19706" lon="6.63605">
        <ele>512.5</ele>
        <time>2024-12-11T13:19:50Z</time>
      </trkpt>
      <trkpt lat="48.19697" lon="6.63603">
        <ele>512.3</ele>
        <time>2024-12-11T13:20:07Z</time>
      </trkpt>
      <trkpt lat="48.19705" lon="6.63605">
        <ele>512.1</ele>
        <time>2024-12-11T13:20:28Z</time>
      </trkpt>
      <trkpt lat="48.19705" lon="6.63605">
        <ele>512.1</ele>
        <time>2024-12-11T13:20:29Z</time>
      </trkpt>
      <trkpt lat="48.19705" lon="6.63605">
        <ele>512.1</ele>
        <time>2024-12-11T13:20:30Z</time>
      </trkpt>
      <trkpt lat="48.19707" lon="6.63604">
        <ele>512.1</ele>
        <time>2024-12-11T13:21:23Z</time>
      </trkpt>
      <trkpt lat="48.19708" lon="6.63603">
        <ele>511.9</ele>
        <time>2024-12-11T13:21:24Z</time>
      </trkpt>
      <trkpt lat="48.19709" lon="6.63602">
        <ele>511.8</ele>
        <time>2024-12-11T13:21:25Z</time>
      </trkpt>
      <trkpt lat="48.19716" lon="6.63593">
        <ele>510.4</ele>
        <time>2024-12-11T13:21:33Z</time>
      </trkpt>
      <trkpt lat="48.19725" lon="6.63587">
        <ele>509</ele>
        <time>2024-12-11T13:21:41Z</time>
      </trkpt>
      <trkpt lat="48.19733" lon="6.63579">
        <ele>507.6</ele>
        <time>2024-12-11T13:21:50Z</time>
      </trkpt>
      <trkpt lat="48.19741" lon="6.63574">
        <ele>506.3</ele>
        <time>2024-12-11T13:21:57Z</time>
      </trkpt>
      <trkpt lat="48.19749" lon="6.63564">
        <ele>505</ele>
        <time>2024-12-11T13:22:05Z</time>
      </trkpt>
      <trkpt lat="48.19756" lon="6.63553">
        <ele>503.7</ele>
        <time>2024-12-11T13:22:13Z</time>
      </trkpt>
      <trkpt lat="48.19764" lon="6.63545">
        <ele>502.4</ele>
        <time>2024-12-11T13:22:21Z</time>
      </trkpt>
      <trkpt lat="48.19771" lon="6.63534">
        <ele>501.3</ele>
        <time>2024-12-11T13:22:30Z</time>
      </trkpt>
      <trkpt lat="48.19777" lon="6.63524">
        <ele>500.3</ele>
        <time>2024-12-11T13:22:38Z</time>
      </trkpt>
      <trkpt lat="48.19784" lon="6.63514">
        <ele>499.4</ele>
        <time>2024-12-11T13:22:46Z</time>
      </trkpt>
      <trkpt lat="48.1979" lon="6.63503">
        <ele>498.5</ele>
        <time>2024-12-11T13:22:54Z</time>
      </trkpt>
      <trkpt lat="48.19798" lon="6.63494">
        <ele>497.5</ele>
        <time>2024-12-11T13:23:04Z</time>
      </trkpt>
      <trkpt lat="48.19805" lon="6.63485">
        <ele>496.5</ele>
        <time>2024-12-11T13:23:13Z</time>
      </trkpt>
      <trkpt lat="48.19813" lon="6.63478">
        <ele>495.5</ele>
        <time>2024-12-11T13:23:21Z</time>
      </trkpt>
      <trkpt lat="48.19822" lon="6.63473">
        <ele>494.5</ele>
        <time>2024-12-11T13:23:29Z</time>
      </trkpt>
      <trkpt lat="48.19831" lon="6.63468">
        <ele>493.7</ele>
        <time>2024-12-11T13:23:40Z</time>
      </trkpt>
      <trkpt lat="48.1984" lon="6.63464">
        <ele>492.9</ele>
        <time>2024-12-11T13:23:46Z</time>
      </trkpt>
      <trkpt lat="48.19849" lon="6.6346">
        <ele>492</ele>
        <time>2024-12-11T13:23:54Z</time>
      </trkpt>
      <trkpt lat="48.19858" lon="6.6346">
        <ele>491</ele>
        <time>2024-12-11T13:24:02Z</time>
      </trkpt>
      <trkpt lat="48.19868" lon="6.63455">
        <ele>490</ele>
        <time>2024-12-11T13:24:11Z</time>
      </trkpt>
      <trkpt lat="48.19878" lon="6.63452">
        <ele>488.8</ele>
        <time>2024-12-11T13:24:19Z</time>
      </trkpt>
      <trkpt lat="48.19888" lon="6.63449">
        <ele>487.7</ele>
        <time>2024-12-11T13:24:27Z</time>
      </trkpt>
      <trkpt lat="48.19897" lon="6.63449">
        <ele>486.8</ele>
        <time>2024-12-11T13:24:35Z</time>
      </trkpt>
      <trkpt lat="48.19907" lon="6.63448">
        <ele>486</ele>
        <time>2024-12-11T13:24:44Z</time>
      </trkpt>
      <trkpt lat="48.19916" lon="6.6345">
        <ele>485.2</ele>
        <time>2024-12-11T13:24:52Z</time>
      </trkpt>
      <trkpt lat="48.19925" lon="6.63453">
        <ele>484.4</ele>
        <time>2024-12-11T13:24:58Z</time>
      </trkpt>
      <trkpt lat="48.19934" lon="6.63456">
        <ele>483.7</ele>
        <time>2024-12-11T13:25:04Z</time>
      </trkpt>
      <trkpt lat="48.19943" lon="6.63462">
        <ele>482.9</ele>
        <time>2024-12-11T13:25:14Z</time>
      </trkpt>
      <trkpt lat="48.19948" lon="6.63473">
        <ele>482</ele>
        <time>2024-12-11T13:25:22Z</time>
      </trkpt>
      <trkpt lat="48.19953" lon="6.63486">
        <ele>481.1</ele>
        <time>2024-12-11T13:25:30Z</time>
      </trkpt>
      <trkpt lat="48.19959" lon="6.63497">
        <ele>480.1</ele>
        <time>2024-12-11T13:25:38Z</time>
      </trkpt>
      <trkpt lat="48.19966" lon="6.63506">
        <ele>479.1</ele>
        <time>2024-12-11T13:25:46Z</time>
      </trkpt>
      <trkpt lat="48.19974" lon="6.63514">
        <ele>478.1</ele>
        <time>2024-12-11T13:25:53Z</time>
      </trkpt>
      <trkpt lat="48.19982" lon="6.6352">
        <ele>477.1</ele>
        <time>2024-12-11T13:26:00Z</time>
      </trkpt>
      <trkpt lat="48.1999" lon="6.6353">
        <ele>476.1</ele>
        <time>2024-12-11T13:26:08Z</time>
      </trkpt>
      <trkpt lat="48.19997" lon="6.63538">
        <ele>475.1</ele>
        <time>2024-12-11T13:26:15Z</time>
      </trkpt>
      <trkpt lat="48.20005" lon="6.63547">
        <ele>474.1</ele>
        <time>2024-12-11T13:26:22Z</time>
      </trkpt>
      <trkpt lat="48.20011" lon="6.63557">
        <ele>473.3</ele>
        <time>2024-12-11T13:26:30Z</time>
      </trkpt>
      <trkpt lat="48.20016" lon="6.63569">
        <ele>472.6</ele>
        <time>2024-12-11T13:26:37Z</time>
      </trkpt>
      <trkpt lat="48.20024" lon="6.63577">
        <ele>472</ele>
        <time>2024-12-11T13:26:46Z</time>
      </trkpt>
      <trkpt lat="48.20034" lon="6.63579">
        <ele>471.4</ele>
        <time>2024-12-11T13:26:56Z</time>
      </trkpt>
      <trkpt lat="48.20043" lon="6.63579">
        <ele>470.8</ele>
        <time>2024-12-11T13:27:03Z</time>
      </trkpt>
      <trkpt lat="48.20053" lon="6.63579">
        <ele>470.2</ele>
        <time>2024-12-11T13:27:11Z</time>
      </trkpt>
      <trkpt lat="48.20063" lon="6.63578">
        <ele>469.6</ele>
        <time>2024-12-11T13:27:20Z</time>
      </trkpt>
      <trkpt lat="48.20072" lon="6.63579">
        <ele>469.1</ele>
        <time>2024-12-11T13:27:27Z</time>
      </trkpt>
      <trkpt lat="48.20082" lon="6.63576">
        <ele>468.5</ele>
        <time>2024-12-11T13:27:35Z</time>
      </trkpt>
      <trkpt lat="48.20091" lon="6.63571">
        <ele>467.9</ele>
        <time>2024-12-11T13:27:44Z</time>
      </trkpt>
      <trkpt lat="48.20101" lon="6.63564">
        <ele>467.2</ele>
        <time>2024-12-11T13:27:52Z</time>
      </trkpt>
      <trkpt lat="48.2011" lon="6.6356">
        <ele>466.6</ele>
        <time>2024-12-11T13:28:00Z</time>
      </trkpt>
      <trkpt lat="48.20119" lon="6.63554">
        <ele>465.9</ele>
        <time>2024-12-11T13:28:09Z</time>
      </trkpt>
      <trkpt lat="48.20128" lon="6.63548">
        <ele>465.1</ele>
        <time>2024-12-11T13:28:19Z</time>
      </trkpt>
      <trkpt lat="48.20137" lon="6.63541">
        <ele>464.5</ele>
        <time>2024-12-11T13:28:26Z</time>
      </trkpt>
      <trkpt lat="48.20146" lon="6.63536">
        <ele>464</ele>
        <time>2024-12-11T13:28:33Z</time>
      </trkpt>
      <trkpt lat="48.20156" lon="6.63533">
        <ele>463.6</ele>
        <time>2024-12-11T13:28:41Z</time>
      </trkpt>
      <trkpt lat="48.20165" lon="6.63528">
        <ele>463.3</ele>
        <time>2024-12-11T13:28:49Z</time>
      </trkpt>
      <trkpt lat="48.20174" lon="6.6352">
        <ele>463.1</ele>
        <time>2024-12-11T13:28:57Z</time>
      </trkpt>
      <trkpt lat="48.20183" lon="6.63515">
        <ele>462.8</ele>
        <time>2024-12-11T13:29:05Z</time>
      </trkpt>
      <trkpt lat="48.20187" lon="6.63501">
        <ele>462.7</ele>
        <time>2024-12-11T13:29:14Z</time>
      </trkpt>
      <trkpt lat="48.20181" lon="6.63491">
        <ele>462.8</ele>
        <time>2024-12-11T13:29:25Z</time>
      </trkpt>
      <trkpt lat="48.20172" lon="6.63484">
        <ele>463</ele>
        <time>2024-12-11T13:29:38Z</time>
      </trkpt>
      <trkpt lat="48.20161" lon="6.63481">
        <ele>463.1</ele>
        <time>2024-12-11T13:29:46Z</time>
      </trkpt>
      <trkpt lat="48.20152" lon="6.6348">
        <ele>463.2</ele>
        <time>2024-12-11T13:29:53Z</time>
      </trkpt>
      <trkpt lat="48.20142" lon="6.63481">
        <ele>463.4</ele>
        <time>2024-12-11T13:30:00Z</time>
      </trkpt>
      <trkpt lat="48.20133" lon="6.63484">
        <ele>463.5</ele>
        <time>2024-12-11T13:30:09Z</time>
      </trkpt>
      <trkpt lat="48.20128" lon="6.63492">
        <ele>463.7</ele>
        <time>2024-12-11T13:30:28Z</time>
      </trkpt>
      <trkpt lat="48.20128" lon="6.63492">
        <ele>463.7</ele>
        <time>2024-12-11T13:30:29Z</time>
      </trkpt>
      <trkpt lat="48.20128" lon="6.63492">
        <ele>463.7</ele>
        <time>2024-12-11T13:30:30Z</time>
      </trkpt>
      <trkpt lat="48.20128" lon="6.63494">
        <ele>463.7</ele>
        <time>2024-12-11T13:30:37Z</time>
      </trkpt>
      <trkpt lat="48.20128" lon="6.63494">
        <ele>463.7</ele>
        <time>2024-12-11T13:30:38Z</time>
      </trkpt>
      <trkpt lat="48.20129" lon="6.63493">
        <ele>463.7</ele>
        <time>2024-12-11T13:30:44Z</time>
      </trkpt>
      <trkpt lat="48.2013" lon="6.63492">
        <ele>463.8</ele>
        <time>2024-12-11T13:30:45Z</time>
      </trkpt>
      <trkpt lat="48.2013" lon="6.63491">
        <ele>463.8</ele>
        <time>2024-12-11T13:30:56Z</time>
      </trkpt>
      <trkpt lat="48.20131" lon="6.6349">
        <ele>463.8</ele>
        <time>2024-12-11T13:30:57Z</time>
      </trkpt>
      <trkpt lat="48.20132" lon="6.63487">
        <ele>463.9</ele>
        <time>2024-12-11T13:31:04Z</time>
      </trkpt>
      <trkpt lat="48.20132" lon="6.63487">
        <ele>463.9</ele>
        <time>2024-12-11T13:31:05Z</time>
      </trkpt>
      <trkpt lat="48.20132" lon="6.63487">
        <ele>463.9</ele>
        <time>2024-12-11T13:31:06Z</time>
      </trkpt>
      <trkpt lat="48.2013" lon="6.63485">
        <ele>463.9</ele>
        <time>2024-12-11T13:31:16Z</time>
      </trkpt>
      <trkpt lat="48.20131" lon="6.63485">
        <ele>463.9</ele>
        <time>2024-12-11T13:31:17Z</time>
      </trkpt>
      <trkpt lat="48.2014" lon="6.63487">
        <ele>463.7</ele>
        <time>2024-12-11T13:31:27Z</time>
      </trkpt>
      <trkpt lat="48.2015" lon="6.63488">
        <ele>463.5</ele>
        <time>2024-12-11T13:31:36Z</time>
      </trkpt>
      <trkpt lat="48.20159" lon="6.6349">
        <ele>463.3</ele>
        <time>2024-12-11T13:31:45Z</time>
      </trkpt>
      <trkpt lat="48.20168" lon="6.63492">
        <ele>463.2</ele>
        <time>2024-12-11T13:31:52Z</time>
      </trkpt>
      <trkpt lat="48.20178" lon="6.63493">
        <ele>463</ele>
        <time>2024-12-11T13:31:59Z</time>
      </trkpt>
      <trkpt lat="48.20181" lon="6.63493">
        <ele>463</ele>
        <time>2024-12-11T13:32:14Z</time>
      </trkpt>
      <trkpt lat="48.20181" lon="6.63493">
        <ele>463</ele>
        <time>2024-12-11T13:32:15Z</time>
      </trkpt>
      <trkpt lat="48.20181" lon="6.63493">
        <ele>463</ele>
        <time>2024-12-11T13:32:16Z</time>
      </trkpt>
      <trkpt lat="48.20179" lon="6.63497">
        <ele>462.9</ele>
        <time>2024-12-11T13:47:02Z</time>
      </trkpt>
      <trkpt lat="48.20179" lon="6.63497">
        <ele>462.9</ele>
        <time>2024-12-11T13:47:03Z</time>
      </trkpt>
      <trkpt lat="48.20179" lon="6.63497">
        <ele>462.9</ele>
        <time>2024-12-11T13:47:06Z</time>
      </trkpt>
      <trkpt lat="48.20179" lon="6.63497">
        <ele>462.9</ele>
        <time>2024-12-11T13:47:07Z</time>
      </trkpt>
      <trkpt lat="48.20179" lon="6.63497">
        <ele>462.9</ele>
        <time>2024-12-11T13:47:08Z</time>
      </trkpt>
      <trkpt lat="48.20179" lon="6.63497">
        <ele>462.9</ele>
        <time>2024-12-11T13:47:09Z</time>
      </trkpt>
      <trkpt lat="48.20179" lon="6.63497">
        <ele>462.9</ele>
        <time>2024-12-11T13:47:10Z</time>
      </trkpt>
      <trkpt lat="48.20179" lon="6.63497">
        <ele>462.9</ele>
        <time>2024-12-11T13:47:11Z</time>
      </trkpt>
      <trkpt lat="48.20179" lon="6.63497">
        <ele>462.9</ele>
        <time>2024-12-11T13:47:12Z</time>
      </trkpt>
      <trkpt lat="48.20179" lon="6.63497">
        <ele>462.9</ele>
        <time>2024-12-11T13:47:26Z</time>
      </trkpt>
      <trkpt lat="48.20179" lon="6.63497">
        <ele>462.9</ele>
        <time>2024-12-11T13:47:27Z</time>
      </trkpt>
      <trkpt lat="48.20179" lon="6.63497">
        <ele>462.9</ele>
        <time>2024-12-11T13:47:28Z</time>
      </trkpt>
      <trkpt lat="48.20179" lon="6.63497">
        <ele>462.9</ele>
        <time>2024-12-11T13:47:29Z</time>
      </trkpt>
      <trkpt lat="48.20179" lon="6.63497">
        <ele>462.9</ele>
        <time>2024-12-11T13:47:30Z</time>
      </trkpt>
      <trkpt lat="48.20179" lon="6.63498">
        <ele>462.9</ele>
        <time>2024-12-11T13:47:41Z</time>
      </trkpt>
      <trkpt lat="48.20179" lon="6.63498">
        <ele>462.9</ele>
        <time>2024-12-11T13:47:42Z</time>
      </trkpt>
      <trkpt lat="48.20179" lon="6.63498">
        <ele>462.9</ele>
        <time>2024-12-11T13:47:43Z</time>
      </trkpt>
      <trkpt lat="48.20179" lon="6.63498">
        <ele>462.9</ele>
        <time>2024-12-11T13:47:44Z</time>
      </trkpt>
      <trkpt lat="48.20179" lon="6.63498">
        <ele>462.9</ele>
        <time>2024-12-11T13:47:45Z</time>
      </trkpt>
      <trkpt lat="48.20179" lon="6.63498">
        <ele>462.9</ele>
        <time>2024-12-11T13:47:46Z</time>
      </trkpt>
      <trkpt lat="48.20179" lon="6.63497">
        <ele>462.9</ele>
        <time>2024-12-11T13:48:13Z</time>
      </trkpt>
      <trkpt lat="48.20179" lon="6.63497">
        <ele>462.9</ele>
        <time>2024-12-11T13:48:14Z</time>
      </trkpt>
      <trkpt lat="48.20179" lon="6.63497">
        <ele>462.9</ele>
        <time>2024-12-11T13:48:15Z</time>
      </trkpt>
      <trkpt lat="48.20179" lon="6.63497">
        <ele>462.9</ele>
        <time>2024-12-11T13:48:16Z</time>
      </trkpt>
      <trkpt lat="48.20179" lon="6.63497">
        <ele>462.9</ele>
        <time>2024-12-11T13:48:17Z</time>
      </trkpt>
      <trkpt lat="48.20179" lon="6.63497">
        <ele>462.9</ele>
        <time>2024-12-11T13:48:33Z</time>
      </trkpt>
      <trkpt lat="48.20179" lon="6.63497">
        <ele>462.9</ele>
        <time>2024-12-11T13:48:34Z</time>
      </trkpt>
      <trkpt lat="48.20179" lon="6.63497">
        <ele>462.9</ele>
        <time>2024-12-11T13:48:35Z</time>
      </trkpt>
      <trkpt lat="48.20179" lon="6.63497">
        <ele>462.9</ele>
        <time>2024-12-11T13:48:36Z</time>
      </trkpt>
      <trkpt lat="48.20179" lon="6.63497">
        <ele>462.9</ele>
        <time>2024-12-11T13:48:37Z</time>
      </trkpt>
      <trkpt lat="48.20179" lon="6.63497">
        <ele>462.9</ele>
        <time>2024-12-11T13:48:38Z</time>
      </trkpt>
      <trkpt lat="48.2018" lon="6.63498">
        <ele>462.9</ele>
        <time>2024-12-11T13:49:58Z</time>
      </trkpt>
      <trkpt lat="48.2018" lon="6.63498">
        <ele>462.9</ele>
        <time>2024-12-11T13:49:59Z</time>
      </trkpt>
      <trkpt lat="48.2018" lon="6.63498">
        <ele>462.9</ele>
        <time>2024-12-11T13:50:00Z</time>
      </trkpt>
      <trkpt lat="48.2018" lon="6.63498">
        <ele>462.9</ele>
        <time>2024-12-11T13:50:04Z</time>
      </trkpt>
      <trkpt lat="48.2018" lon="6.63498">
        <ele>462.9</ele>
        <time>2024-12-11T13:50:05Z</time>
      </trkpt>
      <trkpt lat="48.2018" lon="6.63498">
        <ele>462.9</ele>
        <time>2024-12-11T13:50:06Z</time>
      </trkpt>
      <trkpt lat="48.20181" lon="6.63497">
        <ele>462.9</ele>
        <time>2024-12-11T13:55:21Z</time>
      </trkpt>
      <trkpt lat="48.20181" lon="6.63497">
        <ele>462.9</ele>
        <time>2024-12-11T13:55:22Z</time>
      </trkpt>
      <trkpt lat="48.20181" lon="6.63497">
        <ele>462.9</ele>
        <time>2024-12-11T13:55:26Z</time>
      </trkpt>
      <trkpt lat="48.20181" lon="6.63497">
        <ele>462.9</ele>
        <time>2024-12-11T13:55:27Z</time>
      </trkpt>
      <trkpt lat="48.20182" lon="6.63496">
        <ele>462.9</ele>
        <time>2024-12-11T13:55:31Z</time>
      </trkpt>
      <trkpt lat="48.20181" lon="6.63496">
        <ele>462.9</ele>
        <time>2024-12-11T13:55:32Z</time>
      </trkpt>
      <trkpt lat="48.20187" lon="6.63509">
        <ele>462.7</ele>
        <time>2024-12-11T13:56:04Z</time>
      </trkpt>
      <trkpt lat="48.20197" lon="6.63512">
        <ele>462.4</ele>
        <time>2024-12-11T13:56:12Z</time>
      </trkpt>
      <trkpt lat="48.20206" lon="6.63512">
        <ele>462.2</ele>
        <time>2024-12-11T13:56:20Z</time>
      </trkpt>
      <trkpt lat="48.20215" lon="6.63508">
        <ele>461.9</ele>
        <time>2024-12-11T13:56:28Z</time>
      </trkpt>
      <trkpt lat="48.20224" lon="6.63508">
        <ele>461.6</ele>
        <time>2024-12-11T13:56:35Z</time>
      </trkpt>
      <trkpt lat="48.20234" lon="6.63511">
        <ele>461.2</ele>
        <time>2024-12-11T13:56:44Z</time>
      </trkpt>
      <trkpt lat="48.20244" lon="6.63512">
        <ele>460.8</ele>
        <time>2024-12-11T13:56:52Z</time>
      </trkpt>
      <trkpt lat="48.20253" lon="6.63516">
        <ele>460.3</ele>
        <time>2024-12-11T13:57:00Z</time>
      </trkpt>
      <trkpt lat="48.20261" lon="6.63525">
        <ele>459.9</ele>
        <time>2024-12-11T13:57:07Z</time>
      </trkpt>
      <trkpt lat="48.20269" lon="6.63531">
        <ele>459.5</ele>
        <time>2024-12-11T13:57:14Z</time>
      </trkpt>
      <trkpt lat="48.20277" lon="6.63539">
        <ele>459.2</ele>
        <time>2024-12-11T13:57:21Z</time>
      </trkpt>
      <trkpt lat="48.20285" lon="6.63545">
        <ele>459</ele>
        <time>2024-12-11T13:57:28Z</time>
      </trkpt>
      <trkpt lat="48.20295" lon="6.6355">
        <ele>458.8</ele>
        <time>2024-12-11T13:57:38Z</time>
      </trkpt>
      <trkpt lat="48.20305" lon="6.63554">
        <ele>458.7</ele>
        <time>2024-12-11T13:57:45Z</time>
      </trkpt>
      <trkpt lat="48.20314" lon="6.63556">
        <ele>458.7</ele>
        <time>2024-12-11T13:57:52Z</time>
      </trkpt>
      <trkpt lat="48.20323" lon="6.6356">
        <ele>458.6</ele>
        <time>2024-12-11T13:57:59Z</time>
      </trkpt>
      <trkpt lat="48.20333" lon="6.63564">
        <ele>458.5</ele>
        <time>2024-12-11T13:58:06Z</time>
      </trkpt>
      <trkpt lat="48.20343" lon="6.63566">
        <ele>458.2</ele>
        <time>2024-12-11T13:58:14Z</time>
      </trkpt>
      <trkpt lat="48.20353" lon="6.6357">
        <ele>457.9</ele>
        <time>2024-12-11T13:58:24Z</time>
      </trkpt>
      <trkpt lat="48.20362" lon="6.63572">
        <ele>457.5</ele>
        <time>2024-12-11T13:58:30Z</time>
      </trkpt>
      <trkpt lat="48.20372" lon="6.63573">
        <ele>457.1</ele>
        <time>2024-12-11T13:58:37Z</time>
      </trkpt>
      <trkpt lat="48.20382" lon="6.63574">
        <ele>456.8</ele>
        <time>2024-12-11T13:58:44Z</time>
      </trkpt>
      <trkpt lat="48.20392" lon="6.63574">
        <ele>456.5</ele>
        <time>2024-12-11T13:58:52Z</time>
      </trkpt>
      <trkpt lat="48.20401" lon="6.63574">
        <ele>456.2</ele>
        <time>2024-12-11T13:59:00Z</time>
      </trkpt>
      <trkpt lat="48.20411" lon="6.63576">
        <ele>456</ele>
        <time>2024-12-11T13:59:08Z</time>
      </trkpt>
      <trkpt lat="48.20421" lon="6.6358">
        <ele>455.8</ele>
        <time>2024-12-11T13:59:17Z</time>
      </trkpt>
      <trkpt lat="48.20431" lon="6.63581">
        <ele>455.7</ele>
        <time>2024-12-11T13:59:23Z</time>
      </trkpt>
      <trkpt lat="48.2044" lon="6.63583">
        <ele>455.5</ele>
        <time>2024-12-11T13:59:30Z</time>
      </trkpt>
      <trkpt lat="48.2045" lon="6.63586">
        <ele>455.3</ele>
        <time>2024-12-11T13:59:39Z</time>
      </trkpt>
      <trkpt lat="48.20459" lon="6.63588">
        <ele>455.1</ele>
        <time>2024-12-11T13:59:46Z</time>
      </trkpt>
      <trkpt lat="48.20469" lon="6.63592">
        <ele>454.8</ele>
        <time>2024-12-11T13:59:53Z</time>
      </trkpt>
      <trkpt lat="48.20478" lon="6.63595">
        <ele>454.6</ele>
        <time>2024-12-11T14:00:00Z</time>
      </trkpt>
      <trkpt lat="48.20487" lon="6.63592">
        <ele>454.4</ele>
        <time>2024-12-11T14:00:07Z</time>
      </trkpt>
      <trkpt lat="48.20496" lon="6.63595">
        <ele>454.2</ele>
        <time>2024-12-11T14:00:15Z</time>
      </trkpt>
      <trkpt lat="48.20504" lon="6.63603">
        <ele>454</ele>
        <time>2024-12-11T14:00:21Z</time>
      </trkpt>
      <trkpt lat="48.20513" lon="6.63609">
        <ele>453.9</ele>
        <time>2024-12-11T14:00:28Z</time>
      </trkpt>
      <trkpt lat="48.20522" lon="6.63614">
        <ele>453.8</ele>
        <time>2024-12-11T14:00:36Z</time>
      </trkpt>
      <trkpt lat="48.2053" lon="6.6362">
        <ele>453.6</ele>
        <time>2024-12-11T14:00:43Z</time>
      </trkpt>
      <trkpt lat="48.2054" lon="6.63623">
        <ele>453.5</ele>
        <time>2024-12-11T14:00:51Z</time>
      </trkpt>
      <trkpt lat="48.20548" lon="6.63628">
        <ele>453.4</ele>
        <time>2024-12-11T14:00:59Z</time>
      </trkpt>
      <trkpt lat="48.20557" lon="6.63634">
        <ele>453.2</ele>
        <time>2024-12-11T14:01:07Z</time>
      </trkpt>
      <trkpt lat="48.20566" lon="6.6364">
        <ele>453</ele>
        <time>2024-12-11T14:01:14Z</time>
      </trkpt>
      <trkpt lat="48.20575" lon="6.63645">
        <ele>452.9</ele>
        <time>2024-12-11T14:01:21Z</time>
      </trkpt>
      <trkpt lat="48.20583" lon="6.63653">
        <ele>452.7</ele>
        <time>2024-12-11T14:01:29Z</time>
      </trkpt>
      <trkpt lat="48.20591" lon="6.6366">
        <ele>452.5</ele>
        <time>2024-12-11T14:01:36Z</time>
      </trkpt>
      <trkpt lat="48.20599" lon="6.6367">
        <ele>452.2</ele>
        <time>2024-12-11T14:01:46Z</time>
      </trkpt>
      <trkpt lat="48.20607" lon="6.63678">
        <ele>451.9</ele>
        <time>2024-12-11T14:01:52Z</time>
      </trkpt>
      <trkpt lat="48.20614" lon="6.63687">
        <ele>451.6</ele>
        <time>2024-12-11T14:01:59Z</time>
      </trkpt>
      <trkpt lat="48.20621" lon="6.63697">
        <ele>451.3</ele>
        <time>2024-12-11T14:02:09Z</time>
      </trkpt>
      <trkpt lat="48.20629" lon="6.63703">
        <ele>451</ele>
        <time>2024-12-11T14:02:15Z</time>
      </trkpt>
      <trkpt lat="48.20636" lon="6.63714">
        <ele>450.7</ele>
        <time>2024-12-11T14:02:22Z</time>
      </trkpt>
      <trkpt lat="48.20644" lon="6.63724">
        <ele>450.4</ele>
        <time>2024-12-11T14:02:29Z</time>
      </trkpt>
      <trkpt lat="48.20651" lon="6.63732">
        <ele>450.3</ele>
        <time>2024-12-11T14:02:36Z</time>
      </trkpt>
      <trkpt lat="48.20661" lon="6.63739">
        <ele>450.2</ele>
        <time>2024-12-11T14:02:43Z</time>
      </trkpt>
      <trkpt lat="48.2067" lon="6.63746">
        <ele>450.1</ele>
        <time>2024-12-11T14:02:51Z</time>
      </trkpt>
      <trkpt lat="48.20679" lon="6.63751">
        <ele>450</ele>
        <time>2024-12-11T14:02:59Z</time>
      </trkpt>
      <trkpt lat="48.20689" lon="6.63755">
        <ele>449.9</ele>
        <time>2024-12-11T14:03:07Z</time>
      </trkpt>
      <trkpt lat="48.20698" lon="6.63761">
        <ele>449.4</ele>
        <time>2024-12-11T14:03:16Z</time>
      </trkpt>
      <trkpt lat="48.20707" lon="6.63768">
        <ele>449</ele>
        <time>2024-12-11T14:03:24Z</time>
      </trkpt>
      <trkpt lat="48.20715" lon="6.63773">
        <ele>448.7</ele>
        <time>2024-12-11T14:03:34Z</time>
      </trkpt>
      <trkpt lat="48.20723" lon="6.63778">
        <ele>448.5</ele>
        <time>2024-12-11T14:03:42Z</time>
      </trkpt>
      <trkpt lat="48.20732" lon="6.63785">
        <ele>448.3</ele>
        <time>2024-12-11T14:03:50Z</time>
      </trkpt>
      <trkpt lat="48.20741" lon="6.63792">
        <ele>448</ele>
        <time>2024-12-11T14:03:58Z</time>
      </trkpt>
      <trkpt lat="48.2075" lon="6.63796">
        <ele>447.8</ele>
        <time>2024-12-11T14:04:05Z</time>
      </trkpt>
      <trkpt lat="48.20758" lon="6.63803">
        <ele>447.5</ele>
        <time>2024-12-11T14:04:12Z</time>
      </trkpt>
      <trkpt lat="48.20767" lon="6.63811">
        <ele>447.1</ele>
        <time>2024-12-11T14:04:20Z</time>
      </trkpt>
      <trkpt lat="48.20775" lon="6.63815">
        <ele>446.7</ele>
        <time>2024-12-11T14:04:27Z</time>
      </trkpt>
      <trkpt lat="48.20784" lon="6.63821">
        <ele>446.2</ele>
        <time>2024-12-11T14:04:34Z</time>
      </trkpt>
      <trkpt lat="48.20793" lon="6.63825">
        <ele>445.5</ele>
        <time>2024-12-11T14:04:41Z</time>
      </trkpt>
      <trkpt lat="48.20801" lon="6.6383">
        <ele>444.7</ele>
        <time>2024-12-11T14:04:48Z</time>
      </trkpt>
      <trkpt lat="48.20811" lon="6.63835">
        <ele>443.8</ele>
        <time>2024-12-11T14:04:56Z</time>
      </trkpt>
      <trkpt lat="48.20819" lon="6.63841">
        <ele>443.1</ele>
        <time>2024-12-11T14:05:03Z</time>
      </trkpt>
      <trkpt lat="48.20827" lon="6.63847">
        <ele>442.4</ele>
        <time>2024-12-11T14:05:10Z</time>
      </trkpt>
      <trkpt lat="48.20836" lon="6.63853">
        <ele>441.9</ele>
        <time>2024-12-11T14:05:17Z</time>
      </trkpt>
      <trkpt lat="48.20844" lon="6.63862">
        <ele>441.3</ele>
        <time>2024-12-11T14:05:25Z</time>
      </trkpt>
      <trkpt lat="48.20852" lon="6.6387">
        <ele>440.7</ele>
        <time>2024-12-11T14:05:32Z</time>
      </trkpt>
      <trkpt lat="48.20861" lon="6.63877">
        <ele>440.1</ele>
        <time>2024-12-11T14:05:39Z</time>
      </trkpt>
      <trkpt lat="48.20868" lon="6.63887">
        <ele>439.5</ele>
        <time>2024-12-11T14:05:46Z</time>
      </trkpt>
      <trkpt lat="48.20876" lon="6.63897">
        <ele>438.8</ele>
        <time>2024-12-11T14:05:54Z</time>
      </trkpt>
      <trkpt lat="48.20884" lon="6.63906">
        <ele>438.2</ele>
        <time>2024-12-11T14:06:03Z</time>
      </trkpt>
      <trkpt lat="48.20891" lon="6.63915">
        <ele>437.6</ele>
        <time>2024-12-11T14:06:09Z</time>
      </trkpt>
      <trkpt lat="48.20897" lon="6.63925">
        <ele>436.9</ele>
        <time>2024-12-11T14:06:15Z</time>
      </trkpt>
      <trkpt lat="48.20905" lon="6.63933">
        <ele>436.3</ele>
        <time>2024-12-11T14:06:22Z</time>
      </trkpt>
      <trkpt lat="48.20913" lon="6.63943">
        <ele>435.7</ele>
        <time>2024-12-11T14:06:29Z</time>
      </trkpt>
      <trkpt lat="48.2092" lon="6.63951">
        <ele>435.2</ele>
        <time>2024-12-11T14:06:36Z</time>
      </trkpt>
      <trkpt lat="48.20927" lon="6.63958">
        <ele>434.7</ele>
        <time>2024-12-11T14:06:43Z</time>
      </trkpt>
      <trkpt lat="48.20935" lon="6.63969">
        <ele>434.3</ele>
        <time>2024-12-11T14:06:50Z</time>
      </trkpt>
      <trkpt lat="48.20941" lon="6.63978">
        <ele>433.8</ele>
        <time>2024-12-11T14:06:57Z</time>
      </trkpt>
      <trkpt lat="48.20948" lon="6.63989">
        <ele>433.3</ele>
        <time>2024-12-11T14:07:05Z</time>
      </trkpt>
      <trkpt lat="48.20955" lon="6.63998">
        <ele>432.9</ele>
        <time>2024-12-11T14:07:12Z</time>
      </trkpt>
      <trkpt lat="48.20961" lon="6.64008">
        <ele>432.6</ele>
        <time>2024-12-11T14:07:19Z</time>
      </trkpt>
      <trkpt lat="48.20969" lon="6.64017">
        <ele>432.2</ele>
        <time>2024-12-11T14:07:26Z</time>
      </trkpt>
      <trkpt lat="48.20975" lon="6.64027">
        <ele>431.9</ele>
        <time>2024-12-11T14:07:35Z</time>
      </trkpt>
      <trkpt lat="48.20983" lon="6.64038">
        <ele>431.5</ele>
        <time>2024-12-11T14:07:42Z</time>
      </trkpt>
      <trkpt lat="48.2099" lon="6.64048">
        <ele>431.1</ele>
        <time>2024-12-11T14:07:49Z</time>
      </trkpt>
      <trkpt lat="48.20998" lon="6.64058">
        <ele>430.6</ele>
        <time>2024-12-11T14:07:56Z</time>
      </trkpt>
      <trkpt lat="48.21006" lon="6.64067">
        <ele>430.2</ele>
        <time>2024-12-11T14:08:03Z</time>
      </trkpt>
      <trkpt lat="48.21014" lon="6.64077">
        <ele>429.8</ele>
        <time>2024-12-11T14:08:10Z</time>
      </trkpt>
      <trkpt lat="48.21021" lon="6.64086">
        <ele>429.5</ele>
        <time>2024-12-11T14:08:17Z</time>
      </trkpt>
      <trkpt lat="48.21028" lon="6.64095">
        <ele>429.3</ele>
        <time>2024-12-11T14:08:24Z</time>
      </trkpt>
      <trkpt lat="48.21036" lon="6.64103">
        <ele>429</ele>
        <time>2024-12-11T14:08:31Z</time>
      </trkpt>
      <trkpt lat="48.21042" lon="6.64113">
        <ele>428.8</ele>
        <time>2024-12-11T14:08:38Z</time>
      </trkpt>
      <trkpt lat="48.2105" lon="6.64119">
        <ele>428.4</ele>
        <time>2024-12-11T14:08:45Z</time>
      </trkpt>
      <trkpt lat="48.2106" lon="6.64126">
        <ele>428</ele>
        <time>2024-12-11T14:08:53Z</time>
      </trkpt>
      <trkpt lat="48.21067" lon="6.64135">
        <ele>427.6</ele>
        <time>2024-12-11T14:09:00Z</time>
      </trkpt>
      <trkpt lat="48.21074" lon="6.64145">
        <ele>427.1</ele>
        <time>2024-12-11T14:09:08Z</time>
      </trkpt>
      <trkpt lat="48.2108" lon="6.64155">
        <ele>426.7</ele>
        <time>2024-12-11T14:09:15Z</time>
      </trkpt>
      <trkpt lat="48.21086" lon="6.64165">
        <ele>426.3</ele>
        <time>2024-12-11T14:09:22Z</time>
      </trkpt>
      <trkpt lat="48.21095" lon="6.64173">
        <ele>425.8</ele>
        <time>2024-12-11T14:09:29Z</time>
      </trkpt>
      <trkpt lat="48.21101" lon="6.64183">
        <ele>425.3</ele>
        <time>2024-12-11T14:09:36Z</time>
      </trkpt>
      <trkpt lat="48.21108" lon="6.64192">
        <ele>424.6</ele>
        <time>2024-12-11T14:09:43Z</time>
      </trkpt>
      <trkpt lat="48.21117" lon="6.64197">
        <ele>423.9</ele>
        <time>2024-12-11T14:09:50Z</time>
      </trkpt>
      <trkpt lat="48.21125" lon="6.64205">
        <ele>423.2</ele>
        <time>2024-12-11T14:09:57Z</time>
      </trkpt>
      <trkpt lat="48.21134" lon="6.64212">
        <ele>422.5</ele>
        <time>2024-12-11T14:10:04Z</time>
      </trkpt>
      <trkpt lat="48.21142" lon="6.64218">
        <ele>421.9</ele>
        <time>2024-12-11T14:10:11Z</time>
      </trkpt>
      <trkpt lat="48.21152" lon="6.64222">
        <ele>421.3</ele>
        <time>2024-12-11T14:10:19Z</time>
      </trkpt>
      <trkpt lat="48.21161" lon="6.64225">
        <ele>420.9</ele>
        <time>2024-12-11T14:10:27Z</time>
      </trkpt>
      <trkpt lat="48.21162" lon="6.64225">
        <ele>420.8</ele>
        <time>2024-12-11T14:10:31Z</time>
      </trkpt>
      <trkpt lat="48.21162" lon="6.64225">
        <ele>420.8</ele>
        <time>2024-12-11T14:10:32Z</time>
      </trkpt>
      <trkpt lat="48.21162" lon="6.64229">
        <ele>420.7</ele>
        <time>2024-12-11T14:10:42Z</time>
      </trkpt>
      <trkpt lat="48.21163" lon="6.64229">
        <ele>420.7</ele>
        <time>2024-12-11T14:10:43Z</time>
      </trkpt>
      <trkpt lat="48.21173" lon="6.64231">
        <ele>420.3</ele>
        <time>2024-12-11T14:10:51Z</time>
      </trkpt>
      <trkpt lat="48.21182" lon="6.64236">
        <ele>420</ele>
        <time>2024-12-11T14:10:59Z</time>
      </trkpt>
      <trkpt lat="48.21191" lon="6.6424">
        <ele>419.7</ele>
        <time>2024-12-11T14:11:06Z</time>
      </trkpt>
      <trkpt lat="48.212" lon="6.64243">
        <ele>419.4</ele>
        <time>2024-12-11T14:11:13Z</time>
      </trkpt>
      <trkpt lat="48.21208" lon="6.64249">
        <ele>419.1</ele>
        <time>2024-12-11T14:11:22Z</time>
      </trkpt>
      <trkpt lat="48.21217" lon="6.64253">
        <ele>418.7</ele>
        <time>2024-12-11T14:11:30Z</time>
      </trkpt>
      <trkpt lat="48.21226" lon="6.64259">
        <ele>418.2</ele>
        <time>2024-12-11T14:11:38Z</time>
      </trkpt>
      <trkpt lat="48.21234" lon="6.64264">
        <ele>417.7</ele>
        <time>2024-12-11T14:11:46Z</time>
      </trkpt>
      <trkpt lat="48.21243" lon="6.64269">
        <ele>417.2</ele>
        <time>2024-12-11T14:11:54Z</time>
      </trkpt>
      <trkpt lat="48.21252" lon="6.64273">
        <ele>416.7</ele>
        <time>2024-12-11T14:12:01Z</time>
      </trkpt>
      <trkpt lat="48.21258" lon="6.64283">
        <ele>416.3</ele>
        <time>2024-12-11T14:12:08Z</time>
      </trkpt>
      <trkpt lat="48.21266" lon="6.6429">
        <ele>415.9</ele>
        <time>2024-12-11T14:12:14Z</time>
      </trkpt>
      <trkpt lat="48.21274" lon="6.64298">
        <ele>415.5</ele>
        <time>2024-12-11T14:12:21Z</time>
      </trkpt>
      <trkpt lat="48.21282" lon="6.64306">
        <ele>415.1</ele>
        <time>2024-12-11T14:12:29Z</time>
      </trkpt>
      <trkpt lat="48.2129" lon="6.64314">
        <ele>414.7</ele>
        <time>2024-12-11T14:12:35Z</time>
      </trkpt>
      <trkpt lat="48.21299" lon="6.64321">
        <ele>414.3</ele>
        <time>2024-12-11T14:12:43Z</time>
      </trkpt>
      <trkpt lat="48.21308" lon="6.64327">
        <ele>413.8</ele>
        <time>2024-12-11T14:12:50Z</time>
      </trkpt>
      <trkpt lat="48.21317" lon="6.6433">
        <ele>413.4</ele>
        <time>2024-12-11T14:12:58Z</time>
      </trkpt>
      <trkpt lat="48.21327" lon="6.64337">
        <ele>413</ele>
        <time>2024-12-11T14:13:06Z</time>
      </trkpt>
      <trkpt lat="48.21335" lon="6.6434">
        <ele>412.6</ele>
        <time>2024-12-11T14:13:13Z</time>
      </trkpt>
      <trkpt lat="48.21345" lon="6.64346">
        <ele>412.2</ele>
        <time>2024-12-11T14:13:20Z</time>
      </trkpt>
      <trkpt lat="48.21352" lon="6.64356">
        <ele>411.7</ele>
        <time>2024-12-11T14:13:26Z</time>
      </trkpt>
      <trkpt lat="48.21358" lon="6.64366">
        <ele>411.3</ele>
        <time>2024-12-11T14:13:33Z</time>
      </trkpt>
      <trkpt lat="48.21368" lon="6.64374">
        <ele>411</ele>
        <time>2024-12-11T14:13:40Z</time>
      </trkpt>
      <trkpt lat="48.21369" lon="6.64386">
        <ele>410.8</ele>
        <time>2024-12-11T14:13:54Z</time>
      </trkpt>
      <trkpt lat="48.21369" lon="6.64386">
        <ele>410.8</ele>
        <time>2024-12-11T14:13:55Z</time>
      </trkpt>
      <trkpt lat="48.21369" lon="6.64386">
        <ele>410.8</ele>
        <time>2024-12-11T14:13:56Z</time>
      </trkpt>
      <trkpt lat="48.21376" lon="6.64395">
        <ele>410.6</ele>
        <time>2024-12-11T14:14:05Z</time>
      </trkpt>
      <trkpt lat="48.21381" lon="6.64407">
        <ele>410.5</ele>
        <time>2024-12-11T14:14:12Z</time>
      </trkpt>
      <trkpt lat="48.21388" lon="6.64416">
        <ele>410.4</ele>
        <time>2024-12-11T14:14:19Z</time>
      </trkpt>
      <trkpt lat="48.21396" lon="6.64424">
        <ele>410.3</ele>
        <time>2024-12-11T14:14:27Z</time>
      </trkpt>
      <trkpt lat="48.21403" lon="6.64433">
        <ele>410.2</ele>
        <time>2024-12-11T14:14:33Z</time>
      </trkpt>
      <trkpt lat="48.21412" lon="6.6444">
        <ele>410.1</ele>
        <time>2024-12-11T14:14:42Z</time>
      </trkpt>
      <trkpt lat="48.21419" lon="6.64449">
        <ele>410</ele>
        <time>2024-12-11T14:14:53Z</time>
      </trkpt>
      <trkpt lat="48.21427" lon="6.64458">
        <ele>409.9</ele>
        <time>2024-12-11T14:14:59Z</time>
      </trkpt>
      <trkpt lat="48.21434" lon="6.64467">
        <ele>409.7</ele>
        <time>2024-12-11T14:15:06Z</time>
      </trkpt>
      <trkpt lat="48.2144" lon="6.64478">
        <ele>409.5</ele>
        <time>2024-12-11T14:15:13Z</time>
      </trkpt>
      <trkpt lat="48.21447" lon="6.64488">
        <ele>409.3</ele>
        <time>2024-12-11T14:15:20Z</time>
      </trkpt>
      <trkpt lat="48.21454" lon="6.64498">
        <ele>409.1</ele>
        <time>2024-12-11T14:15:30Z</time>
      </trkpt>
      <trkpt lat="48.21462" lon="6.64505">
        <ele>408.9</ele>
        <time>2024-12-11T14:15:37Z</time>
      </trkpt>
      <trkpt lat="48.21469" lon="6.64517">
        <ele>408.7</ele>
        <time>2024-12-11T14:15:44Z</time>
      </trkpt>
      <trkpt lat="48.21476" lon="6.64525">
        <ele>408.5</ele>
        <time>2024-12-11T14:15:51Z</time>
      </trkpt>
      <trkpt lat="48.21484" lon="6.64534">
        <ele>408.3</ele>
        <time>2024-12-11T14:15:58Z</time>
      </trkpt>
      <trkpt lat="48.2149" lon="6.64544">
        <ele>408.2</ele>
        <time>2024-12-11T14:16:08Z</time>
      </trkpt>
      <trkpt lat="48.21497" lon="6.64553">
        <ele>408</ele>
        <time>2024-12-11T14:16:14Z</time>
      </trkpt>
      <trkpt lat="48.21505" lon="6.64562">
        <ele>407.7</ele>
        <time>2024-12-11T14:16:20Z</time>
      </trkpt>
      <trkpt lat="48.21512" lon="6.64573">
        <ele>407.5</ele>
        <time>2024-12-11T14:16:27Z</time>
      </trkpt>
      <trkpt lat="48.21517" lon="6.64584">
        <ele>407.3</ele>
        <time>2024-12-11T14:16:35Z</time>
      </trkpt>
      <trkpt lat="48.21522" lon="6.64596">
        <ele>407.1</ele>
        <time>2024-12-11T14:16:45Z</time>
      </trkpt>
      <trkpt lat="48.21529" lon="6.64607">
        <ele>406.9</ele>
        <time>2024-12-11T14:16:52Z</time>
      </trkpt>
      <trkpt lat="48.21536" lon="6.64618">
        <ele>406.8</ele>
        <time>2024-12-11T14:16:59Z</time>
      </trkpt>
      <trkpt lat="48.21542" lon="6.6463">
        <ele>406.7</ele>
        <time>2024-12-11T14:17:07Z</time>
      </trkpt>
      <trkpt lat="48.21547" lon="6.64642">
        <ele>406.5</ele>
        <time>2024-12-11T14:17:17Z</time>
      </trkpt>
      <trkpt lat="48.21552" lon="6.64654">
        <ele>406.4</ele>
        <time>2024-12-11T14:17:26Z</time>
      </trkpt>
      <trkpt lat="48.21558" lon="6.64666">
        <ele>406.2</ele>
        <time>2024-12-11T14:17:33Z</time>
      </trkpt>
      <trkpt lat="48.21563" lon="6.64678">
        <ele>406.1</ele>
        <time>2024-12-11T14:17:40Z</time>
      </trkpt>
      <trkpt lat="48.21569" lon="6.6469">
        <ele>405.9</ele>
        <time>2024-12-11T14:17:47Z</time>
      </trkpt>
      <trkpt lat="48.21575" lon="6.64701">
        <ele>405.7</ele>
        <time>2024-12-11T14:17:54Z</time>
      </trkpt>
      <trkpt lat="48.21581" lon="6.64713">
        <ele>405.5</ele>
        <time>2024-12-11T14:18:02Z</time>
      </trkpt>
      <trkpt lat="48.21587" lon="6.64725">
        <ele>405.3</ele>
        <time>2024-12-11T14:18:10Z</time>
      </trkpt>
      <trkpt lat="48.21593" lon="6.64737">
        <ele>405.1</ele>
        <time>2024-12-11T14:18:18Z</time>
      </trkpt>
      <trkpt lat="48.21599" lon="6.64749">
        <ele>404.9</ele>
        <time>2024-12-11T14:18:26Z</time>
      </trkpt>
      <trkpt lat="48.21608" lon="6.64754">
        <ele>404.6</ele>
        <time>2024-12-11T14:18:34Z</time>
      </trkpt>
      <trkpt lat="48.21618" lon="6.6475">
        <ele>404.2</ele>
        <time>2024-12-11T14:18:42Z</time>
      </trkpt>
      <trkpt lat="48.21628" lon="6.64744">
        <ele>403.8</ele>
        <time>2024-12-11T14:18:50Z</time>
      </trkpt>
      <trkpt lat="48.21635" lon="6.64734">
        <ele>403.2</ele>
        <time>2024-12-11T14:18:58Z</time>
      </trkpt>
      <trkpt lat="48.21644" lon="6.64728">
        <ele>402.8</ele>
        <time>2024-12-11T14:19:06Z</time>
      </trkpt>
      <trkpt lat="48.21652" lon="6.6472">
        <ele>402.4</ele>
        <time>2024-12-11T14:19:15Z</time>
      </trkpt>
      <trkpt lat="48.21659" lon="6.64712">
        <ele>402.1</ele>
        <time>2024-12-11T14:19:29Z</time>
      </trkpt>
      <trkpt lat="48.21664" lon="6.64699">
        <ele>401.9</ele>
        <time>2024-12-11T14:19:36Z</time>
      </trkpt>
      <trkpt lat="48.2167" lon="6.64687">
        <ele>401.9</ele>
        <time>2024-12-11T14:19:44Z</time>
      </trkpt>
      <trkpt lat="48.21676" lon="6.64675">
        <ele>401.8</ele>
        <time>2024-12-11T14:19:53Z</time>
      </trkpt>
      <trkpt lat="48.21683" lon="6.64665">
        <ele>401.8</ele>
        <time>2024-12-11T14:20:00Z</time>
      </trkpt>
      <trkpt lat="48.2169" lon="6.64655">
        <ele>401.8</ele>
        <time>2024-12-11T14:20:08Z</time>
      </trkpt>
      <trkpt lat="48.21698" lon="6.64647">
        <ele>401.7</ele>
        <time>2024-12-11T14:20:15Z</time>
      </trkpt>
      <trkpt lat="48.21705" lon="6.64637">
        <ele>401.7</ele>
        <time>2024-12-11T14:20:23Z</time>
      </trkpt>
      <trkpt lat="48.21712" lon="6.64625">
        <ele>401.7</ele>
        <time>2024-12-11T14:20:31Z</time>
      </trkpt>
      <trkpt lat="48.21718" lon="6.64613">
        <ele>401.7</ele>
        <time>2024-12-11T14:20:38Z</time>
      </trkpt>
      <trkpt lat="48.21723" lon="6.646">
        <ele>401.7</ele>
        <time>2024-12-11T14:20:46Z</time>
      </trkpt>
      <trkpt lat="48.21726" lon="6.64586">
        <ele>401.8</ele>
        <time>2024-12-11T14:20:54Z</time>
      </trkpt>
      <trkpt lat="48.2173" lon="6.64573">
        <ele>402</ele>
        <time>2024-12-11T14:21:01Z</time>
      </trkpt>
      <trkpt lat="48.21733" lon="6.64569">
        <ele>402</ele>
        <time>2024-12-11T14:21:09Z</time>
      </trkpt>
      <trkpt lat="48.21733" lon="6.64568">
        <ele>402.1</ele>
        <time>2024-12-11T14:21:10Z</time>
      </trkpt>
      <trkpt lat="48.21733" lon="6.64566">
        <ele>402.1</ele>
        <time>2024-12-11T14:21:11Z</time>
      </trkpt>
      <trkpt lat="48.21733" lon="6.64565">
        <ele>402.1</ele>
        <time>2024-12-11T14:21:12Z</time>
      </trkpt>
      <trkpt lat="48.21733" lon="6.64563">
        <ele>402.1</ele>
        <time>2024-12-11T14:21:13Z</time>
      </trkpt>
      <trkpt lat="48.21735" lon="6.64548">
        <ele>402.6</ele>
        <time>2024-12-11T14:21:21Z</time>
      </trkpt>
      <trkpt lat="48.21736" lon="6.64534">
        <ele>403.1</ele>
        <time>2024-12-11T14:21:29Z</time>
      </trkpt>
      <trkpt lat="48.21738" lon="6.64519">
        <ele>403.6</ele>
        <time>2024-12-11T14:21:37Z</time>
      </trkpt>
      <trkpt lat="48.2174" lon="6.64505">
        <ele>404.1</ele>
        <time>2024-12-11T14:21:45Z</time>
      </trkpt>
      <trkpt lat="48.21744" lon="6.64491">
        <ele>404.6</ele>
        <time>2024-12-11T14:21:53Z</time>
      </trkpt>
      <trkpt lat="48.21746" lon="6.64476">
        <ele>405.2</ele>
        <time>2024-12-11T14:22:01Z</time>
      </trkpt>
      <trkpt lat="48.21749" lon="6.64463">
        <ele>405.8</ele>
        <time>2024-12-11T14:22:09Z</time>
      </trkpt>
      <trkpt lat="48.21751" lon="6.64448">
        <ele>406.4</ele>
        <time>2024-12-11T14:22:17Z</time>
      </trkpt>
      <trkpt lat="48.21753" lon="6.64434">
        <ele>407.1</ele>
        <time>2024-12-11T14:22:25Z</time>
      </trkpt>
      <trkpt lat="48.21757" lon="6.64421">
        <ele>407.9</ele>
        <time>2024-12-11T14:22:33Z</time>
      </trkpt>
      <trkpt lat="48.21759" lon="6.64407">
        <ele>408.6</ele>
        <time>2024-12-11T14:22:41Z</time>
      </trkpt>
      <trkpt lat="48.21762" lon="6.64393">
        <ele>409.3</ele>
        <time>2024-12-11T14:22:49Z</time>
      </trkpt>
      <trkpt lat="48.21765" lon="6.6438">
        <ele>409.9</ele>
        <time>2024-12-11T14:22:57Z</time>
      </trkpt>
      <trkpt lat="48.21769" lon="6.64367">
        <ele>410.6</ele>
        <time>2024-12-11T14:23:05Z</time>
      </trkpt>
      <trkpt lat="48.21771" lon="6.64353">
        <ele>411.3</ele>
        <time>2024-12-11T14:23:13Z</time>
      </trkpt>
      <trkpt lat="48.21774" lon="6.64339">
        <ele>411.9</ele>
        <time>2024-12-11T14:23:21Z</time>
      </trkpt>
      <trkpt lat="48.21776" lon="6.64325">
        <ele>412.6</ele>
        <time>2024-12-11T14:23:29Z</time>
      </trkpt>
      <trkpt lat="48.21779" lon="6.64312">
        <ele>413.2</ele>
        <time>2024-12-11T14:23:36Z</time>
      </trkpt>
      <trkpt lat="48.21782" lon="6.64299">
        <ele>413.8</ele>
        <time>2024-12-11T14:23:43Z</time>
      </trkpt>
      <trkpt lat="48.21783" lon="6.64285">
        <ele>414.4</ele>
        <time>2024-12-11T14:23:50Z</time>
      </trkpt>
      <trkpt lat="48.21786" lon="6.64271">
        <ele>414.9</ele>
        <time>2024-12-11T14:23:58Z</time>
      </trkpt>
      <trkpt lat="48.21788" lon="6.64257">
        <ele>415.5</ele>
        <time>2024-12-11T14:24:06Z</time>
      </trkpt>
      <trkpt lat="48.21791" lon="6.64242">
        <ele>416</ele>
        <time>2024-12-11T14:24:14Z</time>
      </trkpt>
      <trkpt lat="48.21793" lon="6.64228">
        <ele>416.6</ele>
        <time>2024-12-11T14:24:22Z</time>
      </trkpt>
      <trkpt lat="48.21795" lon="6.64214">
        <ele>417</ele>
        <time>2024-12-11T14:24:29Z</time>
      </trkpt>
      <trkpt lat="48.21798" lon="6.642">
        <ele>417.5</ele>
        <time>2024-12-11T14:24:37Z</time>
      </trkpt>
      <trkpt lat="48.21801" lon="6.64185">
        <ele>417.9</ele>
        <time>2024-12-11T14:24:45Z</time>
      </trkpt>
      <trkpt lat="48.21804" lon="6.64171">
        <ele>418.4</ele>
        <time>2024-12-11T14:24:53Z</time>
      </trkpt>
      <trkpt lat="48.21806" lon="6.64156">
        <ele>418.8</ele>
        <time>2024-12-11T14:25:01Z</time>
      </trkpt>
      <trkpt lat="48.21809" lon="6.64142">
        <ele>419.2</ele>
        <time>2024-12-11T14:25:09Z</time>
      </trkpt>
      <trkpt lat="48.21812" lon="6.64128">
        <ele>419.6</ele>
        <time>2024-12-11T14:25:17Z</time>
      </trkpt>
      <trkpt lat="48.21815" lon="6.64113">
        <ele>420</ele>
        <time>2024-12-11T14:25:25Z</time>
      </trkpt>
      <trkpt lat="48.21818" lon="6.64099">
        <ele>420.2</ele>
        <time>2024-12-11T14:25:33Z</time>
      </trkpt>
      <trkpt lat="48.21821" lon="6.64085">
        <ele>420.4</ele>
        <time>2024-12-11T14:25:41Z</time>
      </trkpt>
      <trkpt lat="48.21823" lon="6.64072">
        <ele>420.4</ele>
        <time>2024-12-11T14:25:48Z</time>
      </trkpt>
      <trkpt lat="48.21827" lon="6.64057">
        <ele>420.4</ele>
        <time>2024-12-11T14:25:56Z</time>
      </trkpt>
      <trkpt lat="48.2183" lon="6.64044">
        <ele>420.4</ele>
        <time>2024-12-11T14:26:03Z</time>
      </trkpt>
      <trkpt lat="48.21833" lon="6.64031">
        <ele>420.4</ele>
        <time>2024-12-11T14:26:10Z</time>
      </trkpt>
      <trkpt lat="48.21836" lon="6.64018">
        <ele>420.2</ele>
        <time>2024-12-11T14:26:17Z</time>
      </trkpt>
      <trkpt lat="48.21838" lon="6.64006">
        <ele>420.1</ele>
        <time>2024-12-11T14:26:24Z</time>
      </trkpt>
      <trkpt lat="48.21841" lon="6.63991">
        <ele>420</ele>
        <time>2024-12-11T14:26:32Z</time>
      </trkpt>
      <trkpt lat="48.21844" lon="6.63977">
        <ele>419.8</ele>
        <time>2024-12-11T14:26:40Z</time>
      </trkpt>
      <trkpt lat="48.21846" lon="6.63962">
        <ele>419.6</ele>
        <time>2024-12-11T14:26:48Z</time>
      </trkpt>
      <trkpt lat="48.21848" lon="6.63948">
        <ele>419.5</ele>
        <time>2024-12-11T14:26:56Z</time>
      </trkpt>
      <trkpt lat="48.2185" lon="6.63933">
        <ele>419.3</ele>
        <time>2024-12-11T14:27:04Z</time>
      </trkpt>
      <trkpt lat="48.21851" lon="6.63919">
        <ele>419.1</ele>
        <time>2024-12-11T14:27:12Z</time>
      </trkpt>
      <trkpt lat="48.21852" lon="6.63904">
        <ele>418.9</ele>
        <time>2024-12-11T14:27:20Z</time>
      </trkpt>
      <trkpt lat="48.21853" lon="6.6389">
        <ele>418.7</ele>
        <time>2024-12-11T14:27:27Z</time>
      </trkpt>
      <trkpt lat="48.21853" lon="6.63877">
        <ele>418.4</ele>
        <time>2024-12-11T14:27:34Z</time>
      </trkpt>
      <trkpt lat="48.21854" lon="6.63862">
        <ele>418.1</ele>
        <time>2024-12-11T14:27:42Z</time>
      </trkpt>
      <trkpt lat="48.21855" lon="6.63848">
        <ele>417.8</ele>
        <time>2024-12-11T14:27:50Z</time>
      </trkpt>
      <trkpt lat="48.21857" lon="6.63834">
        <ele>417.3</ele>
        <time>2024-12-11T14:27:57Z</time>
      </trkpt>
      <trkpt lat="48.21855" lon="6.63843">
        <ele>417</ele>
        <time>2024-12-11T14:28:13Z</time>
      </trkpt>
      <trkpt lat="48.21855" lon="6.63843">
        <ele>417</ele>
        <time>2024-12-11T14:28:14Z</time>
      </trkpt>
      <trkpt lat="48.21855" lon="6.63843">
        <ele>417</ele>
        <time>2024-12-11T14:28:15Z</time>
      </trkpt>
      <trkpt lat="48.21855" lon="6.63843">
        <ele>417</ele>
        <time>2024-12-11T14:28:23Z</time>
      </trkpt>
      <trkpt lat="48.21854" lon="6.63843">
        <ele>416.9</ele>
        <time>2024-12-11T14:28:24Z</time>
      </trkpt>
      <trkpt lat="48.21854" lon="6.63843">
        <ele>416.9</ele>
        <time>2024-12-11T14:28:25Z</time>
      </trkpt>
      <trkpt lat="48.21854" lon="6.63843">
        <ele>416.9</ele>
        <time>2024-12-11T14:28:26Z</time>
      </trkpt>
      <trkpt lat="48.21854" lon="6.63843">
        <ele>416.9</ele>
        <time>2024-12-11T14:28:27Z</time>
      </trkpt>
      <trkpt lat="48.21854" lon="6.63843">
        <ele>416.9</ele>
        <time>2024-12-11T14:28:28Z</time>
      </trkpt>
      <trkpt lat="48.21854" lon="6.63843">
        <ele>416.9</ele>
        <time>2024-12-11T14:28:31Z</time>
      </trkpt>
      <trkpt lat="48.21854" lon="6.63843">
        <ele>416.9</ele>
        <time>2024-12-11T14:28:32Z</time>
      </trkpt>
      <trkpt lat="48.21854" lon="6.63843">
        <ele>416.9</ele>
        <time>2024-12-11T14:28:33Z</time>
      </trkpt>
      <trkpt lat="48.21854" lon="6.63843">
        <ele>416.9</ele>
        <time>2024-12-11T14:28:34Z</time>
      </trkpt>
      <trkpt lat="48.21854" lon="6.63843">
        <ele>416.9</ele>
        <time>2024-12-11T14:28:35Z</time>
      </trkpt>
      <trkpt lat="48.21855" lon="6.63841">
        <ele>416.8</ele>
        <time>2024-12-11T14:28:41Z</time>
      </trkpt>
      <trkpt lat="48.21856" lon="6.6384">
        <ele>416.7</ele>
        <time>2024-12-11T14:28:42Z</time>
      </trkpt>
      <trkpt lat="48.21859" lon="6.63826">
        <ele>416.1</ele>
        <time>2024-12-11T14:28:50Z</time>
      </trkpt>
      <trkpt lat="48.21861" lon="6.63812">
        <ele>415.5</ele>
        <time>2024-12-11T14:28:58Z</time>
      </trkpt>
      <trkpt lat="48.21864" lon="6.63798">
        <ele>414.9</ele>
        <time>2024-12-11T14:29:06Z</time>
      </trkpt>
      <trkpt lat="48.21871" lon="6.63786">
        <ele>414.3</ele>
        <time>2024-12-11T14:29:14Z</time>
      </trkpt>
      <trkpt lat="48.21877" lon="6.63775">
        <ele>413.7</ele>
        <time>2024-12-11T14:29:22Z</time>
      </trkpt>
      <trkpt lat="48.21885" lon="6.63765">
        <ele>413.1</ele>
        <time>2024-12-11T14:29:30Z</time>
      </trkpt>
      <trkpt lat="48.21892" lon="6.63757">
        <ele>412.6</ele>
        <time>2024-12-11T14:29:37Z</time>
      </trkpt>
      <trkpt lat="48.219" lon="6.63748">
        <ele>412</ele>
        <time>2024-12-11T14:29:45Z</time>
      </trkpt>
      <trkpt lat="48.21908" lon="6.63739">
        <ele>411.3</ele>
        <time>2024-12-11T14:29:53Z</time>
      </trkpt>
      <trkpt lat="48.21916" lon="6.63731">
        <ele>410.7</ele>
        <time>2024-12-11T14:30:01Z</time>
      </trkpt>
      <trkpt lat="48.21923" lon="6.63721">
        <ele>410.1</ele>
        <time>2024-12-11T14:30:09Z</time>
      </trkpt>
      <trkpt lat="48.21931" lon="6.63712">
        <ele>409.5</ele>
        <time>2024-12-11T14:30:17Z</time>
      </trkpt>
      <trkpt lat="48.21939" lon="6.63702">
        <ele>408.8</ele>
        <time>2024-12-11T14:30:25Z</time>
      </trkpt>
      <trkpt lat="48.21947" lon="6.63693">
        <ele>408.3</ele>
        <time>2024-12-11T14:30:33Z</time>
      </trkpt>
      <trkpt lat="48.21954" lon="6.63683">
        <ele>407.8</ele>
        <time>2024-12-11T14:30:40Z</time>
      </trkpt>
      <trkpt lat="48.21961" lon="6.63674">
        <ele>407.3</ele>
        <time>2024-12-11T14:30:47Z</time>
      </trkpt>
      <trkpt lat="48.21969" lon="6.63665">
        <ele>406.8</ele>
        <time>2024-12-11T14:30:55Z</time>
      </trkpt>
      <trkpt lat="48.21976" lon="6.63656">
        <ele>406.3</ele>
        <time>2024-12-11T14:31:02Z</time>
      </trkpt>
      <trkpt lat="48.21984" lon="6.63646">
        <ele>405.8</ele>
        <time>2024-12-11T14:31:10Z</time>
      </trkpt>
      <trkpt lat="48.21991" lon="6.63638">
        <ele>405.4</ele>
        <time>2024-12-11T14:31:17Z</time>
      </trkpt>
      <trkpt lat="48.21997" lon="6.63628">
        <ele>405</ele>
        <time>2024-12-11T14:31:24Z</time>
      </trkpt>
      <trkpt lat="48.22005" lon="6.63619">
        <ele>404.6</ele>
        <time>2024-12-11T14:31:31Z</time>
      </trkpt>
      <trkpt lat="48.22012" lon="6.63609">
        <ele>404.1</ele>
        <time>2024-12-11T14:31:38Z</time>
      </trkpt>
      <trkpt lat="48.22019" lon="6.63598">
        <ele>403.6</ele>
        <time>2024-12-11T14:31:46Z</time>
      </trkpt>
      <trkpt lat="48.22026" lon="6.63587">
        <ele>403.1</ele>
        <time>2024-12-11T14:31:54Z</time>
      </trkpt>
      <trkpt lat="48.22032" lon="6.63576">
        <ele>402.7</ele>
        <time>2024-12-11T14:32:02Z</time>
      </trkpt>
      <trkpt lat="48.22038" lon="6.63565">
        <ele>402.2</ele>
        <time>2024-12-11T14:32:10Z</time>
      </trkpt>
      <trkpt lat="48.22044" lon="6.63554">
        <ele>401.7</ele>
        <time>2024-12-11T14:32:18Z</time>
      </trkpt>
      <trkpt lat="48.22049" lon="6.63542">
        <ele>401.2</ele>
        <time>2024-12-11T14:32:26Z</time>
      </trkpt>
      <trkpt lat="48.22055" lon="6.63531">
        <ele>400.6</ele>
        <time>2024-12-11T14:32:34Z</time>
      </trkpt>
      <trkpt lat="48.22061" lon="6.6352">
        <ele>400</ele>
        <time>2024-12-11T14:32:42Z</time>
      </trkpt>
      <trkpt lat="48.22067" lon="6.63508">
        <ele>399.4</ele>
        <time>2024-12-11T14:32:50Z</time>
      </trkpt>
      <trkpt lat="48.22073" lon="6.63497">
        <ele>398.8</ele>
        <time>2024-12-11T14:32:58Z</time>
      </trkpt>
      <trkpt lat="48.22078" lon="6.63485">
        <ele>398.1</ele>
        <time>2024-12-11T14:33:06Z</time>
      </trkpt>
      <trkpt lat="48.22085" lon="6.63473">
        <ele>397.4</ele>
        <time>2024-12-11T14:33:14Z</time>
      </trkpt>
      <trkpt lat="48.22091" lon="6.63461">
        <ele>396.8</ele>
        <time>2024-12-11T14:33:22Z</time>
      </trkpt>
      <trkpt lat="48.22097" lon="6.63449">
        <ele>396.1</ele>
        <time>2024-12-11T14:33:30Z</time>
      </trkpt>
      <trkpt lat="48.22103" lon="6.63438">
        <ele>395.4</ele>
        <time>2024-12-11T14:33:38Z</time>
      </trkpt>
      <trkpt lat="48.22109" lon="6.63426">
        <ele>394.9</ele>
        <time>2024-12-11T14:33:46Z</time>
      </trkpt>
      <trkpt lat="48.22115" lon="6.63415">
        <ele>394.3</ele>
        <time>2024-12-11T14:33:54Z</time>
      </trkpt>
      <trkpt lat="48.22122" lon="6.63404">
        <ele>393.7</ele>
        <time>2024-12-11T14:34:02Z</time>
      </trkpt>
      <trkpt lat="48.22128" lon="6.63394">
        <ele>393.2</ele>
        <time>2024-12-11T14:34:09Z</time>
      </trkpt>
      <trkpt lat="48.22136" lon="6.63384">
        <ele>392.8</ele>
        <time>2024-12-11T14:34:17Z</time>
      </trkpt>
      <trkpt lat="48.22144" lon="6.63375">
        <ele>392.7</ele>
        <time>2024-12-11T14:34:25Z</time>
      </trkpt>
      <trkpt lat="48.22142" lon="6.63361">
        <ele>392.6</ele>
        <time>2024-12-11T14:34:39Z</time>
      </trkpt>
      <trkpt lat="48.22136" lon="6.63349">
        <ele>392.4</ele>
        <time>2024-12-11T14:34:49Z</time>
      </trkpt>
      <trkpt lat="48.22146" lon="6.63345">
        <ele>392.3</ele>
        <time>2024-12-11T14:35:02Z</time>
      </trkpt>
      <trkpt lat="48.22152" lon="6.63345">
        <ele>392.3</ele>
        <time>2024-12-11T14:35:11Z</time>
      </trkpt>
      <trkpt lat="48.22152" lon="6.63345">
        <ele>392.3</ele>
        <time>2024-12-11T14:35:12Z</time>
      </trkpt>
      <trkpt lat="48.22152" lon="6.63345">
        <ele>392.3</ele>
        <time>2024-12-11T14:35:16Z</time>
      </trkpt>
      <trkpt lat="48.22152" lon="6.63345">
        <ele>392.3</ele>
        <time>2024-12-11T14:35:17Z</time>
      </trkpt>
      <trkpt lat="48.22152" lon="6.63345">
        <ele>392.3</ele>
        <time>2024-12-11T14:35:18Z</time>
      </trkpt>
      <trkpt lat="48.22152" lon="6.63345">
        <ele>392.3</ele>
        <time>2024-12-11T14:35:19Z</time>
      </trkpt>
      <trkpt lat="48.22152" lon="6.63345">
        <ele>392.3</ele>
        <time>2024-12-11T14:35:20Z</time>
      </trkpt>
      <trkpt lat="48.22152" lon="6.63345">
        <ele>392.2</ele>
        <time>2024-12-11T14:35:23Z</time>
      </trkpt>
      <trkpt lat="48.22152" lon="6.63345">
        <ele>392.2</ele>
        <time>2024-12-11T14:35:24Z</time>
      </trkpt>
      <trkpt lat="48.22153" lon="6.63345">
        <ele>392.2</ele>
        <time>2024-12-11T14:35:25Z</time>
      </trkpt>
      <trkpt lat="48.22161" lon="6.6335">
        <ele>392.1</ele>
        <time>2024-12-11T14:35:43Z</time>
      </trkpt>
      <trkpt lat="48.22161" lon="6.6335">
        <ele>392.1</ele>
        <time>2024-12-11T14:35:44Z</time>
      </trkpt>
      <trkpt lat="48.22161" lon="6.6335">
        <ele>392.1</ele>
        <time>2024-12-11T14:35:45Z</time>
      </trkpt>
      <trkpt lat="48.2216" lon="6.63348">
        <ele>392.1</ele>
        <time>2024-12-11T14:35:56Z</time>
      </trkpt>
      <trkpt lat="48.22159" lon="6.63347">
        <ele>392.1</ele>
        <time>2024-12-11T14:35:57Z</time>
      </trkpt>
      <trkpt lat="48.22152" lon="6.63345">
        <ele>392</ele>
        <time>2024-12-11T14:36:06Z</time>
      </trkpt>
      <trkpt lat="48.22152" lon="6.63345">
        <ele>392</ele>
        <time>2024-12-11T14:36:07Z</time>
      </trkpt>
      <trkpt lat="48.22153" lon="6.63345">
        <ele>392</ele>
        <time>2024-12-11T14:36:08Z</time>
      </trkpt>
      <trkpt lat="48.22152" lon="6.63344">
        <ele>392</ele>
        <time>2024-12-11T14:36:09Z</time>
      </trkpt>
      <trkpt lat="48.22151" lon="6.63344">
        <ele>392</ele>
        <time>2024-12-11T14:36:10Z</time>
      </trkpt>
      <trkpt lat="48.2215" lon="6.63345">
        <ele>392</ele>
        <time>2024-12-11T14:36:16Z</time>
      </trkpt>
      <trkpt lat="48.2215" lon="6.63345">
        <ele>392</ele>
        <time>2024-12-11T14:36:17Z</time>
      </trkpt>
      <trkpt lat="48.2215" lon="6.63345">
        <ele>392</ele>
        <time>2024-12-11T14:36:18Z</time>
      </trkpt>
      <trkpt lat="48.22151" lon="6.63346">
        <ele>392</ele>
        <time>2024-12-11T14:36:31Z</time>
      </trkpt>
      <trkpt lat="48.22152" lon="6.63346">
        <ele>392</ele>
        <time>2024-12-11T14:36:32Z</time>
      </trkpt>
      <trkpt lat="48.22153" lon="6.63346">
        <ele>392</ele>
        <time>2024-12-11T14:36:36Z</time>
      </trkpt>
      <trkpt lat="48.22153" lon="6.63346">
        <ele>392</ele>
        <time>2024-12-11T14:36:37Z</time>
      </trkpt>
      <trkpt lat="48.22155" lon="6.63346">
        <ele>392</ele>
        <time>2024-12-11T14:36:43Z</time>
      </trkpt>
      <trkpt lat="48.22156" lon="6.63346">
        <ele>391.9</ele>
        <time>2024-12-11T14:36:44Z</time>
      </trkpt>
      <trkpt lat="48.22158" lon="6.63347">
        <ele>391.9</ele>
        <time>2024-12-11T14:36:45Z</time>
      </trkpt>
      <trkpt lat="48.22168" lon="6.6335">
        <ele>391.8</ele>
        <time>2024-12-11T14:36:52Z</time>
      </trkpt>
      <trkpt lat="48.22177" lon="6.6335">
        <ele>391.5</ele>
        <time>2024-12-11T14:36:59Z</time>
      </trkpt>
      <trkpt lat="48.22182" lon="6.63349">
        <ele>391.2</ele>
        <time>2024-12-11T14:37:08Z</time>
      </trkpt>
      <trkpt lat="48.22182" lon="6.63349">
        <ele>391.2</ele>
        <time>2024-12-11T14:37:09Z</time>
      </trkpt>
      <trkpt lat="48.22182" lon="6.63349">
        <ele>391.2</ele>
        <time>2024-12-11T14:37:10Z</time>
      </trkpt>
      <trkpt lat="48.22182" lon="6.63349">
        <ele>391.1</ele>
        <time>2024-12-11T14:37:13Z</time>
      </trkpt>
      <trkpt lat="48.22182" lon="6.63349">
        <ele>391.1</ele>
        <time>2024-12-11T14:37:14Z</time>
      </trkpt>
      <trkpt lat="48.22182" lon="6.63349">
        <ele>391.1</ele>
        <time>2024-12-11T14:37:15Z</time>
      </trkpt>
      <trkpt lat="48.22182" lon="6.63349">
        <ele>391.1</ele>
        <time>2024-12-11T14:37:16Z</time>
      </trkpt>
      <trkpt lat="48.22182" lon="6.63349">
        <ele>391.1</ele>
        <time>2024-12-11T14:37:17Z</time>
      </trkpt>
      <trkpt lat="48.22183" lon="6.63345">
        <ele>391</ele>
        <time>2024-12-11T14:37:27Z</time>
      </trkpt>
      <trkpt lat="48.22184" lon="6.63344">
        <ele>390.9</ele>
        <time>2024-12-11T14:37:28Z</time>
      </trkpt>
      <trkpt lat="48.22186" lon="6.63342">
        <ele>390.7</ele>
        <time>2024-12-11T14:37:36Z</time>
      </trkpt>
      <trkpt lat="48.22186" lon="6.63342">
        <ele>390.7</ele>
        <time>2024-12-11T14:37:37Z</time>
      </trkpt>
      <trkpt lat="48.22189" lon="6.6334">
        <ele>390.6</ele>
        <time>2024-12-11T14:38:09Z</time>
      </trkpt>
      <trkpt lat="48.2219" lon="6.6334">
        <ele>390.5</ele>
        <time>2024-12-11T14:38:10Z</time>
      </trkpt>
      <trkpt lat="48.22199" lon="6.63335">
        <ele>389.9</ele>
        <time>2024-12-11T14:38:17Z</time>
      </trkpt>
      <trkpt lat="48.22208" lon="6.63329">
        <ele>389.3</ele>
        <time>2024-12-11T14:38:26Z</time>
      </trkpt>
      <trkpt lat="48.22208" lon="6.63329">
        <ele>389.3</ele>
        <time>2024-12-11T14:38:31Z</time>
      </trkpt>
      <trkpt lat="48.22208" lon="6.63329">
        <ele>389.3</ele>
        <time>2024-12-11T14:38:32Z</time>
      </trkpt>
      <trkpt lat="48.22211" lon="6.63327">
        <ele>389.1</ele>
        <time>2024-12-11T14:38:38Z</time>
      </trkpt>
      <trkpt lat="48.22212" lon="6.63326">
        <ele>389</ele>
        <time>2024-12-11T14:38:39Z</time>
      </trkpt>
      <trkpt lat="48.22213" lon="6.63325">
        <ele>388.9</ele>
        <time>2024-12-11T14:38:40Z</time>
      </trkpt>
      <trkpt lat="48.22222" lon="6.63321">
        <ele>388.4</ele>
        <time>2024-12-11T14:38:47Z</time>
      </trkpt>
      <trkpt lat="48.22225" lon="6.63315">
        <ele>388.1</ele>
        <time>2024-12-11T14:38:54Z</time>
      </trkpt>
      <trkpt lat="48.22225" lon="6.63314">
        <ele>388</ele>
        <time>2024-12-11T14:38:55Z</time>
      </trkpt>
      <trkpt lat="48.22225" lon="6.63313">
        <ele>387.9</ele>
        <time>2024-12-11T14:38:56Z</time>
      </trkpt>
      <trkpt lat="48.22225" lon="6.63313">
        <ele>387.9</ele>
        <time>2024-12-11T14:38:57Z</time>
      </trkpt>
      <trkpt lat="48.22225" lon="6.63313">
        <ele>387.9</ele>
        <time>2024-12-11T14:38:58Z</time>
      </trkpt>
      <trkpt lat="48.22225" lon="6.63313">
        <ele>387.9</ele>
        <time>2024-12-11T14:38:59Z</time>
      </trkpt>
      <trkpt lat="48.22225" lon="6.63313">
        <ele>387.9</ele>
        <time>2024-12-11T14:39:00Z</time>
      </trkpt>
      <trkpt lat="48.22225" lon="6.63313">
        <ele>387.9</ele>
        <time>2024-12-11T14:39:08Z</time>
      </trkpt>
      <trkpt lat="48.22226" lon="6.63313">
        <ele>387.8</ele>
        <time>2024-12-11T14:39:09Z</time>
      </trkpt>
      <trkpt lat="48.22228" lon="6.63313">
        <ele>387.7</ele>
        <time>2024-12-11T14:39:10Z</time>
      </trkpt>
      <trkpt lat="48.22237" lon="6.63312">
        <ele>387</ele>
        <time>2024-12-11T14:39:17Z</time>
      </trkpt>
      <trkpt lat="48.22244" lon="6.63301">
        <ele>386.8</ele>
        <time>2024-12-11T14:39:25Z</time>
      </trkpt>
      <trkpt lat="48.22254" lon="6.63302">
        <ele>386.6</ele>
        <time>2024-12-11T14:39:40Z</time>
      </trkpt>
      <trkpt lat="48.22264" lon="6.63304">
        <ele>386.4</ele>
        <time>2024-12-11T14:39:46Z</time>
      </trkpt>
      <trkpt lat="48.22274" lon="6.63306">
        <ele>386.1</ele>
        <time>2024-12-11T14:39:52Z</time>
      </trkpt>
      <trkpt lat="48.22283" lon="6.63308">
        <ele>385.8</ele>
        <time>2024-12-11T14:39:58Z</time>
      </trkpt>
      <trkpt lat="48.22293" lon="6.6331">
        <ele>385.5</ele>
        <time>2024-12-11T14:40:05Z</time>
      </trkpt>
      <trkpt lat="48.22303" lon="6.63311">
        <ele>385.1</ele>
        <time>2024-12-11T14:40:12Z</time>
      </trkpt>
      <trkpt lat="48.22313" lon="6.63313">
        <ele>384.8</ele>
        <time>2024-12-11T14:40:19Z</time>
      </trkpt>
      <trkpt lat="48.22322" lon="6.63315">
        <ele>384.4</ele>
        <time>2024-12-11T14:40:26Z</time>
      </trkpt>
      <trkpt lat="48.22331" lon="6.63316">
        <ele>384.1</ele>
        <time>2024-12-11T14:40:33Z</time>
      </trkpt>
      <trkpt lat="48.22341" lon="6.63318">
        <ele>383.8</ele>
        <time>2024-12-11T14:40:40Z</time>
      </trkpt>
      <trkpt lat="48.2235" lon="6.6332">
        <ele>383.4</ele>
        <time>2024-12-11T14:40:47Z</time>
      </trkpt>
      <trkpt lat="48.22359" lon="6.63322">
        <ele>383.1</ele>
        <time>2024-12-11T14:40:54Z</time>
      </trkpt>
      <trkpt lat="48.22369" lon="6.63324">
        <ele>382.8</ele>
        <time>2024-12-11T14:41:02Z</time>
      </trkpt>
      <trkpt lat="48.22379" lon="6.63326">
        <ele>382.6</ele>
        <time>2024-12-11T14:41:10Z</time>
      </trkpt>
      <trkpt lat="48.22388" lon="6.63327">
        <ele>382.3</ele>
        <time>2024-12-11T14:41:17Z</time>
      </trkpt>
      <trkpt lat="48.22398" lon="6.63328">
        <ele>382</ele>
        <time>2024-12-11T14:41:24Z</time>
      </trkpt>
      <trkpt lat="48.22408" lon="6.63328">
        <ele>381.7</ele>
        <time>2024-12-11T14:41:31Z</time>
      </trkpt>
      <trkpt lat="48.22418" lon="6.63328">
        <ele>381.5</ele>
        <time>2024-12-11T14:41:39Z</time>
      </trkpt>
      <trkpt lat="48.22427" lon="6.63328">
        <ele>381.3</ele>
        <time>2024-12-11T14:41:46Z</time>
      </trkpt>
      <trkpt lat="48.22436" lon="6.63328">
        <ele>381.1</ele>
        <time>2024-12-11T14:41:53Z</time>
      </trkpt>
      <trkpt lat="48.22445" lon="6.63327">
        <ele>381</ele>
        <time>2024-12-11T14:42:00Z</time>
      </trkpt>
      <trkpt lat="48.22454" lon="6.63326">
        <ele>380.9</ele>
        <time>2024-12-11T14:42:07Z</time>
      </trkpt>
      <trkpt lat="48.22464" lon="6.63326">
        <ele>380.8</ele>
        <time>2024-12-11T14:42:14Z</time>
      </trkpt>
      <trkpt lat="48.22473" lon="6.63324">
        <ele>380.7</ele>
        <time>2024-12-11T14:42:21Z</time>
      </trkpt>
      <trkpt lat="48.22482" lon="6.63322">
        <ele>380.6</ele>
        <time>2024-12-11T14:42:28Z</time>
      </trkpt>
      <trkpt lat="48.22491" lon="6.63318">
        <ele>380.5</ele>
        <time>2024-12-11T14:42:35Z</time>
      </trkpt>
      <trkpt lat="48.22499" lon="6.63313">
        <ele>380.3</ele>
        <time>2024-12-11T14:42:42Z</time>
      </trkpt>
      <trkpt lat="48.22508" lon="6.63309">
        <ele>380.1</ele>
        <time>2024-12-11T14:42:49Z</time>
      </trkpt>
      <trkpt lat="48.22515" lon="6.63299">
        <ele>379.7</ele>
        <time>2024-12-11T14:42:56Z</time>
      </trkpt>
      <trkpt lat="48.22523" lon="6.63291">
        <ele>379.4</ele>
        <time>2024-12-11T14:43:03Z</time>
      </trkpt>
      <trkpt lat="48.22532" lon="6.63283">
        <ele>379.1</ele>
        <time>2024-12-11T14:43:10Z</time>
      </trkpt>
      <trkpt lat="48.22539" lon="6.63276">
        <ele>378.9</ele>
        <time>2024-12-11T14:43:17Z</time>
      </trkpt>
      <trkpt lat="48.22547" lon="6.63269">
        <ele>378.6</ele>
        <time>2024-12-11T14:43:24Z</time>
      </trkpt>
      <trkpt lat="48.22556" lon="6.63261">
        <ele>378.4</ele>
        <time>2024-12-11T14:43:32Z</time>
      </trkpt>
      <trkpt lat="48.22565" lon="6.63254">
        <ele>378.1</ele>
        <time>2024-12-11T14:43:40Z</time>
      </trkpt>
      <trkpt lat="48.22573" lon="6.63246">
        <ele>377.8</ele>
        <time>2024-12-11T14:43:48Z</time>
      </trkpt>
      <trkpt lat="48.22582" lon="6.63239">
        <ele>377.6</ele>
        <time>2024-12-11T14:43:56Z</time>
      </trkpt>
      <trkpt lat="48.22588" lon="6.63228">
        <ele>377.3</ele>
        <time>2024-12-11T14:44:04Z</time>
      </trkpt>
      <trkpt lat="48.22588" lon="6.63213">
        <ele>377.2</ele>
        <time>2024-12-11T14:44:12Z</time>
      </trkpt>
      <trkpt lat="48.22586" lon="6.632">
        <ele>376.9</ele>
        <time>2024-12-11T14:44:19Z</time>
      </trkpt>
      <trkpt lat="48.22584" lon="6.63185">
        <ele>376.6</ele>
        <time>2024-12-11T14:44:27Z</time>
      </trkpt>
      <trkpt lat="48.22583" lon="6.6317">
        <ele>376.2</ele>
        <time>2024-12-11T14:44:35Z</time>
      </trkpt>
      <trkpt lat="48.22581" lon="6.63155">
        <ele>375.8</ele>
        <time>2024-12-11T14:44:43Z</time>
      </trkpt>
      <trkpt lat="48.22581" lon="6.63141">
        <ele>375.5</ele>
        <time>2024-12-11T14:44:50Z</time>
      </trkpt>
      <trkpt lat="48.22579" lon="6.63126">
        <ele>375.1</ele>
        <time>2024-12-11T14:44:58Z</time>
      </trkpt>
      <trkpt lat="48.22573" lon="6.63116">
        <ele>374.6</ele>
        <time>2024-12-11T14:45:04Z</time>
      </trkpt>
      <trkpt lat="48.22564" lon="6.63111">
        <ele>374</ele>
        <time>2024-12-11T14:45:11Z</time>
      </trkpt>
      <trkpt lat="48.22554" lon="6.63109">
        <ele>373.5</ele>
        <time>2024-12-11T14:45:18Z</time>
      </trkpt>
      <trkpt lat="48.22545" lon="6.63105">
        <ele>373.2</ele>
        <time>2024-12-11T14:45:25Z</time>
      </trkpt>
      <trkpt lat="48.22536" lon="6.63099">
        <ele>373.1</ele>
        <time>2024-12-11T14:45:33Z</time>
      </trkpt>
      <trkpt lat="48.2253" lon="6.63088">
        <ele>373.3</ele>
        <time>2024-12-11T14:45:41Z</time>
      </trkpt>
      <trkpt lat="48.22529" lon="6.63074">
        <ele>373.6</ele>
        <time>2024-12-11T14:45:49Z</time>
      </trkpt>
      <trkpt lat="48.22534" lon="6.6306">
        <ele>374</ele>
        <time>2024-12-11T14:45:57Z</time>
      </trkpt>
      <trkpt lat="48.2254" lon="6.63049">
        <ele>374.3</ele>
        <time>2024-12-11T14:46:05Z</time>
      </trkpt>
      <trkpt lat="48.22548" lon="6.63038">
        <ele>374.4</ele>
        <time>2024-12-11T14:46:13Z</time>
      </trkpt>
      <trkpt lat="48.22552" lon="6.63024">
        <ele>374.7</ele>
        <time>2024-12-11T14:46:21Z</time>
      </trkpt>
      <trkpt lat="48.22555" lon="6.63011">
        <ele>374.9</ele>
        <time>2024-12-11T14:46:28Z</time>
      </trkpt>
      <trkpt lat="48.22556" lon="6.62997">
        <ele>375.3</ele>
        <time>2024-12-11T14:46:35Z</time>
      </trkpt>
      <trkpt lat="48.22556" lon="6.62983">
        <ele>375.8</ele>
        <time>2024-12-11T14:46:42Z</time>
      </trkpt>
      <trkpt lat="48.22555" lon="6.62969">
        <ele>376.4</ele>
        <time>2024-12-11T14:46:49Z</time>
      </trkpt>
      <trkpt lat="48.22554" lon="6.62954">
        <ele>377</ele>
        <time>2024-12-11T14:46:56Z</time>
      </trkpt>
      <trkpt lat="48.22553" lon="6.62941">
        <ele>377.4</ele>
        <time>2024-12-11T14:47:03Z</time>
      </trkpt>
      <trkpt lat="48.22551" lon="6.62926">
        <ele>377.6</ele>
        <time>2024-12-11T14:47:10Z</time>
      </trkpt>
      <trkpt lat="48.22551" lon="6.62912">
        <ele>377.8</ele>
        <time>2024-12-11T14:47:18Z</time>
      </trkpt>
      <trkpt lat="48.22551" lon="6.62897">
        <ele>378.2</ele>
        <time>2024-12-11T14:47:26Z</time>
      </trkpt>
      <trkpt lat="48.22553" lon="6.62882">
        <ele>378.7</ele>
        <time>2024-12-11T14:47:34Z</time>
      </trkpt>
      <trkpt lat="48.22554" lon="6.62869">
        <ele>379.4</ele>
        <time>2024-12-11T14:47:41Z</time>
      </trkpt>
      <trkpt lat="48.22554" lon="6.62855">
        <ele>380</ele>
        <time>2024-12-11T14:47:48Z</time>
      </trkpt>
      <trkpt lat="48.22555" lon="6.62841">
        <ele>380.5</ele>
        <time>2024-12-11T14:47:58Z</time>
      </trkpt>
      <trkpt lat="48.22555" lon="6.62827">
        <ele>381</ele>
        <time>2024-12-11T14:48:10Z</time>
      </trkpt>
      <trkpt lat="48.22557" lon="6.62814">
        <ele>381.3</ele>
        <time>2024-12-11T14:48:23Z</time>
      </trkpt>
      <trkpt lat="48.22557" lon="6.62798">
        <ele>381.3</ele>
        <time>2024-12-11T14:48:34Z</time>
      </trkpt>
      <trkpt lat="48.22558" lon="6.62784">
        <ele>381.4</ele>
        <time>2024-12-11T14:48:42Z</time>
      </trkpt>
      <trkpt lat="48.22559" lon="6.6277">
        <ele>381.4</ele>
        <time>2024-12-11T14:48:50Z</time>
      </trkpt>
      <trkpt lat="48.22558" lon="6.62756">
        <ele>381.3</ele>
        <time>2024-12-11T14:48:58Z</time>
      </trkpt>
      <trkpt lat="48.2256" lon="6.62742">
        <ele>381.1</ele>
        <time>2024-12-11T14:49:06Z</time>
      </trkpt>
      <trkpt lat="48.2256" lon="6.62728">
        <ele>380.8</ele>
        <time>2024-12-11T14:49:14Z</time>
      </trkpt>
      <trkpt lat="48.22561" lon="6.62716">
        <ele>380.7</ele>
        <time>2024-12-11T14:49:28Z</time>
      </trkpt>
      <trkpt lat="48.22561" lon="6.62716">
        <ele>380.7</ele>
        <time>2024-12-11T14:49:29Z</time>
      </trkpt>
      <trkpt lat="48.22561" lon="6.62716">
        <ele>380.7</ele>
        <time>2024-12-11T14:49:30Z</time>
      </trkpt>
      <trkpt lat="48.22561" lon="6.62716">
        <ele>380.8</ele>
        <time>2024-12-11T14:49:44Z</time>
      </trkpt>
      <trkpt lat="48.22561" lon="6.62716">
        <ele>380.8</ele>
        <time>2024-12-11T14:49:45Z</time>
      </trkpt>
      <trkpt lat="48.22561" lon="6.62716">
        <ele>380.8</ele>
        <time>2024-12-11T14:49:52Z</time>
      </trkpt>
      <trkpt lat="48.22561" lon="6.62716">
        <ele>380.8</ele>
        <time>2024-12-11T14:49:53Z</time>
      </trkpt>
      <trkpt lat="48.2256" lon="6.62716">
        <ele>380.7</ele>
        <time>2024-12-11T14:49:57Z</time>
      </trkpt>
      <trkpt lat="48.2256" lon="6.62716">
        <ele>380.8</ele>
        <time>2024-12-11T14:49:58Z</time>
      </trkpt>
      <trkpt lat="48.22551" lon="6.62723">
        <ele>380.9</ele>
        <time>2024-12-11T14:50:08Z</time>
      </trkpt>
      <trkpt lat="48.22551" lon="6.62724">
        <ele>381</ele>
        <time>2024-12-11T14:50:12Z</time>
      </trkpt>
      <trkpt lat="48.22551" lon="6.62724">
        <ele>381</ele>
        <time>2024-12-11T14:50:13Z</time>
      </trkpt>
      <trkpt lat="48.22551" lon="6.62724">
        <ele>381</ele>
        <time>2024-12-11T14:50:46Z</time>
      </trkpt>
      <trkpt lat="48.2255" lon="6.62724">
        <ele>381</ele>
        <time>2024-12-11T14:50:47Z</time>
      </trkpt>
      <trkpt lat="48.22545" lon="6.62712">
        <ele>381</ele>
        <time>2024-12-11T14:50:56Z</time>
      </trkpt>
      <trkpt lat="48.22547" lon="6.62698">
        <ele>380.9</ele>
        <time>2024-12-11T14:51:16Z</time>
      </trkpt>
      <trkpt lat="48.22553" lon="6.62687">
        <ele>380.7</ele>
        <time>2024-12-11T14:51:25Z</time>
      </trkpt>
      <trkpt lat="48.2256" lon="6.62677">
        <ele>380.6</ele>
        <time>2024-12-11T14:51:35Z</time>
      </trkpt>
      <trkpt lat="48.22564" lon="6.62665">
        <ele>380.6</ele>
        <time>2024-12-11T14:51:42Z</time>
      </trkpt>
      <trkpt lat="48.22566" lon="6.6265">
        <ele>380.6</ele>
        <time>2024-12-11T14:51:50Z</time>
      </trkpt>
      <trkpt lat="48.22574" lon="6.62642">
        <ele>380.4</ele>
        <time>2024-12-11T14:51:59Z</time>
      </trkpt>
      <trkpt lat="48.22582" lon="6.62635">
        <ele>380.1</ele>
        <time>2024-12-11T14:52:06Z</time>
      </trkpt>
      <trkpt lat="48.22583" lon="6.62626">
        <ele>380</ele>
        <time>2024-12-11T14:52:14Z</time>
      </trkpt>
      <trkpt lat="48.22583" lon="6.62625">
        <ele>380</ele>
        <time>2024-12-11T14:52:15Z</time>
      </trkpt>
      <trkpt lat="48.22583" lon="6.6262">
        <ele>380</ele>
        <time>2024-12-11T14:52:19Z</time>
      </trkpt>
      <trkpt lat="48.22582" lon="6.62618">
        <ele>380</ele>
        <time>2024-12-11T14:52:20Z</time>
      </trkpt>
      <trkpt lat="48.22582" lon="6.62617">
        <ele>380.1</ele>
        <time>2024-12-11T14:52:21Z</time>
      </trkpt>
      <trkpt lat="48.22577" lon="6.62603">
        <ele>380.2</ele>
        <time>2024-12-11T14:52:28Z</time>
      </trkpt>
      <trkpt lat="48.22571" lon="6.62592">
        <ele>380.4</ele>
        <time>2024-12-11T14:52:35Z</time>
      </trkpt>
      <trkpt lat="48.22564" lon="6.62583">
        <ele>380.7</ele>
        <time>2024-12-11T14:52:41Z</time>
      </trkpt>
      <trkpt lat="48.22562" lon="6.62568">
        <ele>380.5</ele>
        <time>2024-12-11T14:52:50Z</time>
      </trkpt>
      <trkpt lat="48.22562" lon="6.62567">
        <ele>380.5</ele>
        <time>2024-12-11T14:52:54Z</time>
      </trkpt>
      <trkpt lat="48.22562" lon="6.62567">
        <ele>380.5</ele>
        <time>2024-12-11T14:52:55Z</time>
      </trkpt>
      <trkpt lat="48.22562" lon="6.62567">
        <ele>380.5</ele>
        <time>2024-12-11T14:52:56Z</time>
      </trkpt>
      <trkpt lat="48.22563" lon="6.62567">
        <ele>380.5</ele>
        <time>2024-12-11T14:53:07Z</time>
      </trkpt>
      <trkpt lat="48.22563" lon="6.62567">
        <ele>380.5</ele>
        <time>2024-12-11T14:53:08Z</time>
      </trkpt>
      <trkpt lat="48.22563" lon="6.62567">
        <ele>380.5</ele>
        <time>2024-12-11T14:53:09Z</time>
      </trkpt>
      <trkpt lat="48.22562" lon="6.62567">
        <ele>380.5</ele>
        <time>2024-12-11T14:53:10Z</time>
      </trkpt>
      <trkpt lat="48.22562" lon="6.62566">
        <ele>380.5</ele>
        <time>2024-12-11T14:53:11Z</time>
      </trkpt>
      <trkpt lat="48.22562" lon="6.62564">
        <ele>380.5</ele>
        <time>2024-12-11T14:53:12Z</time>
      </trkpt>
      <trkpt lat="48.22562" lon="6.62563">
        <ele>380.5</ele>
        <time>2024-12-11T14:53:13Z</time>
      </trkpt>
      <trkpt lat="48.22561" lon="6.62549">
        <ele>380.6</ele>
        <time>2024-12-11T14:53:20Z</time>
      </trkpt>
      <trkpt lat="48.22557" lon="6.62536">
        <ele>380.5</ele>
        <time>2024-12-11T14:53:27Z</time>
      </trkpt>
      <trkpt lat="48.22555" lon="6.62521">
        <ele>380.3</ele>
        <time>2024-12-11T14:53:34Z</time>
      </trkpt>
      <trkpt lat="48.22553" lon="6.62507">
        <ele>380.2</ele>
        <time>2024-12-11T14:53:41Z</time>
      </trkpt>
      <trkpt lat="48.22553" lon="6.62492">
        <ele>380.1</ele>
        <time>2024-12-11T14:53:48Z</time>
      </trkpt>
      <trkpt lat="48.22551" lon="6.62478">
        <ele>379.9</ele>
        <time>2024-12-11T14:53:56Z</time>
      </trkpt>
      <trkpt lat="48.22547" lon="6.62464">
        <ele>379.9</ele>
        <time>2024-12-11T14:54:03Z</time>
      </trkpt>
      <trkpt lat="48.22546" lon="6.6245">
        <ele>379.8</ele>
        <time>2024-12-11T14:54:10Z</time>
      </trkpt>
      <trkpt lat="48.22543" lon="6.62436">
        <ele>379.8</ele>
        <time>2024-12-11T14:54:16Z</time>
      </trkpt>
      <trkpt lat="48.2254" lon="6.62422">
        <ele>379.8</ele>
        <time>2024-12-11T14:54:24Z</time>
      </trkpt>
      <trkpt lat="48.2254" lon="6.62407">
        <ele>379.6</ele>
        <time>2024-12-11T14:54:32Z</time>
      </trkpt>
      <trkpt lat="48.22539" lon="6.62393">
        <ele>379.5</ele>
        <time>2024-12-11T14:54:39Z</time>
      </trkpt>
      <trkpt lat="48.22537" lon="6.6238">
        <ele>379.3</ele>
        <time>2024-12-11T14:54:46Z</time>
      </trkpt>
      <trkpt lat="48.22534" lon="6.62366">
        <ele>379.1</ele>
        <time>2024-12-11T14:54:53Z</time>
      </trkpt>
      <trkpt lat="48.22534" lon="6.62352">
        <ele>378.9</ele>
        <time>2024-12-11T14:55:00Z</time>
      </trkpt>
      <trkpt lat="48.22534" lon="6.62337">
        <ele>378.7</ele>
        <time>2024-12-11T14:55:08Z</time>
      </trkpt>
      <trkpt lat="48.22533" lon="6.62322">
        <ele>378.7</ele>
        <time>2024-12-11T14:55:16Z</time>
      </trkpt>
      <trkpt lat="48.2253" lon="6.62307">
        <ele>378.6</ele>
        <time>2024-12-11T14:55:24Z</time>
      </trkpt>
      <trkpt lat="48.22529" lon="6.62293">
        <ele>378.4</ele>
        <time>2024-12-11T14:55:32Z</time>
      </trkpt>
      <trkpt lat="48.22528" lon="6.62279">
        <ele>378.3</ele>
        <time>2024-12-11T14:55:40Z</time>
      </trkpt>
      <trkpt lat="48.22527" lon="6.62265">
        <ele>378.1</ele>
        <time>2024-12-11T14:55:48Z</time>
      </trkpt>
      <trkpt lat="48.22524" lon="6.62252">
        <ele>377.9</ele>
        <time>2024-12-11T14:55:55Z</time>
      </trkpt>
      <trkpt lat="48.22521" lon="6.62237">
        <ele>377.7</ele>
        <time>2024-12-11T14:56:02Z</time>
      </trkpt>
      <trkpt lat="48.22519" lon="6.62223">
        <ele>377.6</ele>
        <time>2024-12-11T14:56:09Z</time>
      </trkpt>
      <trkpt lat="48.22516" lon="6.62209">
        <ele>377.4</ele>
        <time>2024-12-11T14:56:17Z</time>
      </trkpt>
      <trkpt lat="48.22514" lon="6.62195">
        <ele>377.2</ele>
        <time>2024-12-11T14:56:24Z</time>
      </trkpt>
      <trkpt lat="48.22513" lon="6.6218">
        <ele>377</ele>
        <time>2024-12-11T14:56:32Z</time>
      </trkpt>
      <trkpt lat="48.22511" lon="6.62165">
        <ele>376.7</ele>
        <time>2024-12-11T14:56:40Z</time>
      </trkpt>
      <trkpt lat="48.22508" lon="6.62151">
        <ele>376.4</ele>
        <time>2024-12-11T14:56:48Z</time>
      </trkpt>
      <trkpt lat="48.22506" lon="6.62137">
        <ele>376.2</ele>
        <time>2024-12-11T14:56:55Z</time>
      </trkpt>
      <trkpt lat="48.22504" lon="6.62123">
        <ele>375.9</ele>
        <time>2024-12-11T14:57:02Z</time>
      </trkpt>
      <trkpt lat="48.22504" lon="6.62119">
        <ele>375.8</ele>
        <time>2024-12-11T14:57:11Z</time>
      </trkpt>
      <trkpt lat="48.22504" lon="6.62119">
        <ele>375.8</ele>
        <time>2024-12-11T14:57:12Z</time>
      </trkpt>
      <trkpt lat="48.22502" lon="6.62119">
        <ele>375.8</ele>
        <time>2024-12-11T14:57:28Z</time>
      </trkpt>
      <trkpt lat="48.22502" lon="6.62119">
        <ele>375.8</ele>
        <time>2024-12-11T14:57:29Z</time>
      </trkpt>
      <trkpt lat="48.22501" lon="6.62117">
        <ele>375.9</ele>
        <time>2024-12-11T14:57:30Z</time>
      </trkpt>
      <trkpt lat="48.225" lon="6.62102">
        <ele>375.5</ele>
        <time>2024-12-11T14:57:39Z</time>
      </trkpt>
      <trkpt lat="48.22499" lon="6.62089">
        <ele>375</ele>
        <time>2024-12-11T14:57:47Z</time>
      </trkpt>
      <trkpt lat="48.22497" lon="6.62074">
        <ele>374.6</ele>
        <time>2024-12-11T14:57:55Z</time>
      </trkpt>
      <trkpt lat="48.22496" lon="6.6206">
        <ele>374.2</ele>
        <time>2024-12-11T14:58:02Z</time>
      </trkpt>
      <trkpt lat="48.22492" lon="6.62048">
        <ele>373.9</ele>
        <time>2024-12-11T14:58:13Z</time>
      </trkpt>
      <trkpt lat="48.22492" lon="6.62045">
        <ele>373.8</ele>
        <time>2024-12-11T14:58:19Z</time>
      </trkpt>
      <trkpt lat="48.22492" lon="6.62045">
        <ele>373.8</ele>
        <time>2024-12-11T14:58:20Z</time>
      </trkpt>
      <trkpt lat="48.22492" lon="6.62045">
        <ele>373.8</ele>
        <time>2024-12-11T14:58:21Z</time>
      </trkpt>
      <trkpt lat="48.22491" lon="6.62041">
        <ele>373.7</ele>
        <time>2024-12-11T14:58:37Z</time>
      </trkpt>
      <trkpt lat="48.22491" lon="6.62039">
        <ele>373.7</ele>
        <time>2024-12-11T14:58:38Z</time>
      </trkpt>
      <trkpt lat="48.2249" lon="6.62024">
        <ele>373.2</ele>
        <time>2024-12-11T14:58:46Z</time>
      </trkpt>
      <trkpt lat="48.22488" lon="6.62009">
        <ele>372.9</ele>
        <time>2024-12-11T14:58:55Z</time>
      </trkpt>
      <trkpt lat="48.22487" lon="6.61995">
        <ele>372.7</ele>
        <time>2024-12-11T14:59:04Z</time>
      </trkpt>
      <trkpt lat="48.22486" lon="6.6198">
        <ele>372.5</ele>
        <time>2024-12-11T14:59:13Z</time>
      </trkpt>
      <trkpt lat="48.22483" lon="6.61966">
        <ele>372.4</ele>
        <time>2024-12-11T14:59:23Z</time>
      </trkpt>
      <trkpt lat="48.22482" lon="6.61952">
        <ele>372.2</ele>
        <time>2024-12-11T14:59:31Z</time>
      </trkpt>
      <trkpt lat="48.2248" lon="6.61937">
        <ele>372.2</ele>
        <time>2024-12-11T14:59:38Z</time>
      </trkpt>
      <trkpt lat="48.2248" lon="6.61922">
        <ele>372.2</ele>
        <time>2024-12-11T14:59:45Z</time>
      </trkpt>
      <trkpt lat="48.22478" lon="6.61908">
        <ele>372.4</ele>
        <time>2024-12-11T14:59:53Z</time>
      </trkpt>
      <trkpt lat="48.22473" lon="6.61895">
        <ele>372.7</ele>
        <time>2024-12-11T15:00:00Z</time>
      </trkpt>
      <trkpt lat="48.22471" lon="6.61882">
        <ele>373</ele>
        <time>2024-12-11T15:00:08Z</time>
      </trkpt>
      <trkpt lat="48.22471" lon="6.61868">
        <ele>373.2</ele>
        <time>2024-12-11T15:00:15Z</time>
      </trkpt>
      <trkpt lat="48.2247" lon="6.61852">
        <ele>373.6</ele>
        <time>2024-12-11T15:00:24Z</time>
      </trkpt>
      <trkpt lat="48.22469" lon="6.61839">
        <ele>373.8</ele>
        <time>2024-12-11T15:00:32Z</time>
      </trkpt>
      <trkpt lat="48.22466" lon="6.61826">
        <ele>374</ele>
        <time>2024-12-11T15:00:39Z</time>
      </trkpt>
      <trkpt lat="48.22465" lon="6.61813">
        <ele>374.2</ele>
        <time>2024-12-11T15:00:46Z</time>
      </trkpt>
      <trkpt lat="48.22463" lon="6.61799">
        <ele>374.3</ele>
        <time>2024-12-11T15:00:53Z</time>
      </trkpt>
      <trkpt lat="48.22462" lon="6.61785">
        <ele>374.4</ele>
        <time>2024-12-11T15:01:01Z</time>
      </trkpt>
      <trkpt lat="48.22458" lon="6.61772">
        <ele>374.2</ele>
        <time>2024-12-11T15:01:10Z</time>
      </trkpt>
      <trkpt lat="48.22456" lon="6.61757">
        <ele>374.1</ele>
        <time>2024-12-11T15:01:19Z</time>
      </trkpt>
      <trkpt lat="48.22456" lon="6.61743">
        <ele>374</ele>
        <time>2024-12-11T15:01:28Z</time>
      </trkpt>
      <trkpt lat="48.22454" lon="6.61729">
        <ele>374</ele>
        <time>2024-12-11T15:01:37Z</time>
      </trkpt>
      <trkpt lat="48.22451" lon="6.61715">
        <ele>373.7</ele>
        <time>2024-12-11T15:01:46Z</time>
      </trkpt>
      <trkpt lat="48.22448" lon="6.61701">
        <ele>373.3</ele>
        <time>2024-12-11T15:01:55Z</time>
      </trkpt>
      <trkpt lat="48.22446" lon="6.61687">
        <ele>372.7</ele>
        <time>2024-12-11T15:02:03Z</time>
      </trkpt>
      <trkpt lat="48.22446" lon="6.61674">
        <ele>371.9</ele>
        <time>2024-12-11T15:02:10Z</time>
      </trkpt>
      <trkpt lat="48.22444" lon="6.6166">
        <ele>370.8</ele>
        <time>2024-12-11T15:02:17Z</time>
      </trkpt>
      <trkpt lat="48.2244" lon="6.61646">
        <ele>369.6</ele>
        <time>2024-12-11T15:02:25Z</time>
      </trkpt>
      <trkpt lat="48.22437" lon="6.61631">
        <ele>368.7</ele>
        <time>2024-12-11T15:02:33Z</time>
      </trkpt>
      <trkpt lat="48.22432" lon="6.61618">
        <ele>367.6</ele>
        <time>2024-12-11T15:02:41Z</time>
      </trkpt>
      <trkpt lat="48.22427" lon="6.61605">
        <ele>366.4</ele>
        <time>2024-12-11T15:02:49Z</time>
      </trkpt>
      <trkpt lat="48.22424" lon="6.61592">
        <ele>365.1</ele>
        <time>2024-12-11T15:02:57Z</time>
      </trkpt>
      <trkpt lat="48.22419" lon="6.6158">
        <ele>364.3</ele>
        <time>2024-12-11T15:03:05Z</time>
      </trkpt>
      <trkpt lat="48.22416" lon="6.61567">
        <ele>363.4</ele>
        <time>2024-12-11T15:03:13Z</time>
      </trkpt>
      <trkpt lat="48.22412" lon="6.61554">
        <ele>362.3</ele>
        <time>2024-12-11T15:03:21Z</time>
      </trkpt>
      <trkpt lat="48.22406" lon="6.61542">
        <ele>361.1</ele>
        <time>2024-12-11T15:03:29Z</time>
      </trkpt>
      <trkpt lat="48.22402" lon="6.61529">
        <ele>359.8</ele>
        <time>2024-12-11T15:03:37Z</time>
      </trkpt>
      <trkpt lat="48.22397" lon="6.61516">
        <ele>358.7</ele>
        <time>2024-12-11T15:03:45Z</time>
      </trkpt>
      <trkpt lat="48.22391" lon="6.61504">
        <ele>358.1</ele>
        <time>2024-12-11T15:03:53Z</time>
      </trkpt>
      <trkpt lat="48.22386" lon="6.61491">
        <ele>357.8</ele>
        <time>2024-12-11T15:04:02Z</time>
      </trkpt>
      <trkpt lat="48.22377" lon="6.61485">
        <ele>357.6</ele>
        <time>2024-12-11T15:04:09Z</time>
      </trkpt>
      <trkpt lat="48.22369" lon="6.61479">
        <ele>357.4</ele>
        <time>2024-12-11T15:04:16Z</time>
      </trkpt>
      <trkpt lat="48.22363" lon="6.61467">
        <ele>357.3</ele>
        <time>2024-12-11T15:04:24Z</time>
      </trkpt>
      <trkpt lat="48.22361" lon="6.61454">
        <ele>357.2</ele>
        <time>2024-12-11T15:04:35Z</time>
      </trkpt>
      <trkpt lat="48.22361" lon="6.61451">
        <ele>357.2</ele>
        <time>2024-12-11T15:04:46Z</time>
      </trkpt>
      <trkpt lat="48.22361" lon="6.61451">
        <ele>357.2</ele>
        <time>2024-12-11T15:04:47Z</time>
      </trkpt>
      <trkpt lat="48.2236" lon="6.61451">
        <ele>357.2</ele>
        <time>2024-12-11T15:04:48Z</time>
      </trkpt>
      <trkpt lat="48.2236" lon="6.61451">
        <ele>357.2</ele>
        <time>2024-12-11T15:04:49Z</time>
      </trkpt>
      <trkpt lat="48.2236" lon="6.61451">
        <ele>357.2</ele>
        <time>2024-12-11T15:04:50Z</time>
      </trkpt>
      <trkpt lat="48.2236" lon="6.61451">
        <ele>357.2</ele>
        <time>2024-12-11T15:04:51Z</time>
      </trkpt>
      <trkpt lat="48.2236" lon="6.61451">
        <ele>357.2</ele>
        <time>2024-12-11T15:04:52Z</time>
      </trkpt>
      <trkpt lat="48.2236" lon="6.61451">
        <ele>357.2</ele>
        <time>2024-12-11T15:04:53Z</time>
      </trkpt>
      <trkpt lat="48.2236" lon="6.61451">
        <ele>357.2</ele>
        <time>2024-12-11T15:04:54Z</time>
      </trkpt>
      <trkpt lat="48.2236" lon="6.6145">
        <ele>357.2</ele>
        <time>2024-12-11T15:04:55Z</time>
      </trkpt>
      <trkpt lat="48.2236" lon="6.61435">
        <ele>357.2</ele>
        <time>2024-12-11T15:05:03Z</time>
      </trkpt>
      <trkpt lat="48.22364" lon="6.61422">
        <ele>357.2</ele>
        <time>2024-12-11T15:05:10Z</time>
      </trkpt>
      <trkpt lat="48.2237" lon="6.61411">
        <ele>357.3</ele>
        <time>2024-12-11T15:05:17Z</time>
      </trkpt>
      <trkpt lat="48.22376" lon="6.61401">
        <ele>357.5</ele>
        <time>2024-12-11T15:05:24Z</time>
      </trkpt>
      <trkpt lat="48.22383" lon="6.61389">
        <ele>357.7</ele>
        <time>2024-12-11T15:05:32Z</time>
      </trkpt>
      <trkpt lat="48.2239" lon="6.61378">
        <ele>358</ele>
        <time>2024-12-11T15:05:40Z</time>
      </trkpt>
      <trkpt lat="48.22396" lon="6.61368">
        <ele>358.3</ele>
        <time>2024-12-11T15:05:47Z</time>
      </trkpt>
      <trkpt lat="48.224" lon="6.61355">
        <ele>358.7</ele>
        <time>2024-12-11T15:05:55Z</time>
      </trkpt>
      <trkpt lat="48.22403" lon="6.61342">
        <ele>359</ele>
        <time>2024-12-11T15:06:02Z</time>
      </trkpt>
      <trkpt lat="48.22403" lon="6.61327">
        <ele>359.3</ele>
        <time>2024-12-11T15:06:10Z</time>
      </trkpt>
      <trkpt lat="48.22403" lon="6.61313">
        <ele>359.5</ele>
        <time>2024-12-11T15:06:18Z</time>
      </trkpt>
      <trkpt lat="48.224" lon="6.613">
        <ele>359.8</ele>
        <time>2024-12-11T15:06:26Z</time>
      </trkpt>
      <trkpt lat="48.22397" lon="6.61287">
        <ele>360.1</ele>
        <time>2024-12-11T15:06:34Z</time>
      </trkpt>
      <trkpt lat="48.22389" lon="6.61278">
        <ele>360.4</ele>
        <time>2024-12-11T15:06:42Z</time>
      </trkpt>
      <trkpt lat="48.22381" lon="6.61272">
        <ele>360.7</ele>
        <time>2024-12-11T15:06:49Z</time>
      </trkpt>
      <trkpt lat="48.22372" lon="6.61266">
        <ele>361.1</ele>
        <time>2024-12-11T15:06:56Z</time>
      </trkpt>
      <trkpt lat="48.22362" lon="6.61261">
        <ele>361.5</ele>
        <time>2024-12-11T15:07:04Z</time>
      </trkpt>
      <trkpt lat="48.22353" lon="6.61255">
        <ele>361.9</ele>
        <time>2024-12-11T15:07:12Z</time>
      </trkpt>
      <trkpt lat="48.22345" lon="6.61249">
        <ele>362.3</ele>
        <time>2024-12-11T15:07:20Z</time>
      </trkpt>
      <trkpt lat="48.22337" lon="6.6124">
        <ele>362.7</ele>
        <time>2024-12-11T15:07:28Z</time>
      </trkpt>
      <trkpt lat="48.2233" lon="6.61231">
        <ele>363</ele>
        <time>2024-12-11T15:07:36Z</time>
      </trkpt>
      <trkpt lat="48.22321" lon="6.61223">
        <ele>363.1</ele>
        <time>2024-12-11T15:07:44Z</time>
      </trkpt>
      <trkpt lat="48.22313" lon="6.61214">
        <ele>363.1</ele>
        <time>2024-12-11T15:07:52Z</time>
      </trkpt>
      <trkpt lat="48.22307" lon="6.61206">
        <ele>363</ele>
        <time>2024-12-11T15:08:02Z</time>
      </trkpt>
      <trkpt lat="48.22307" lon="6.61206">
        <ele>363</ele>
        <time>2024-12-11T15:08:03Z</time>
      </trkpt>
      <trkpt lat="48.22306" lon="6.61204">
        <ele>363</ele>
        <time>2024-12-11T15:08:07Z</time>
      </trkpt>
      <trkpt lat="48.22306" lon="6.61202">
        <ele>363</ele>
        <time>2024-12-11T15:08:08Z</time>
      </trkpt>
      <trkpt lat="48.22299" lon="6.61193">
        <ele>362.8</ele>
        <time>2024-12-11T15:08:16Z</time>
      </trkpt>
      <trkpt lat="48.22289" lon="6.61189">
        <ele>362.6</ele>
        <time>2024-12-11T15:08:24Z</time>
      </trkpt>
      <trkpt lat="48.2228" lon="6.61184">
        <ele>362.4</ele>
        <time>2024-12-11T15:08:32Z</time>
      </trkpt>
      <trkpt lat="48.22271" lon="6.61177">
        <ele>362</ele>
        <time>2024-12-11T15:08:41Z</time>
      </trkpt>
      <trkpt lat="48.22263" lon="6.6117">
        <ele>361.5</ele>
        <time>2024-12-11T15:08:49Z</time>
      </trkpt>
      <trkpt lat="48.22256" lon="6.61161">
        <ele>361</ele>
        <time>2024-12-11T15:08:57Z</time>
      </trkpt>
      <trkpt lat="48.22248" lon="6.61152">
        <ele>360.4</ele>
        <time>2024-12-11T15:09:05Z</time>
      </trkpt>
      <trkpt lat="48.22241" lon="6.61143">
        <ele>359.9</ele>
        <time>2024-12-11T15:09:13Z</time>
      </trkpt>
      <trkpt lat="48.22234" lon="6.61134">
        <ele>359.5</ele>
        <time>2024-12-11T15:09:21Z</time>
      </trkpt>
      <trkpt lat="48.22226" lon="6.61125">
        <ele>359.1</ele>
        <time>2024-12-11T15:09:29Z</time>
      </trkpt>
      <trkpt lat="48.22219" lon="6.61116">
        <ele>358.8</ele>
        <time>2024-12-11T15:09:37Z</time>
      </trkpt>
      <trkpt lat="48.22211" lon="6.61107">
        <ele>358.5</ele>
        <time>2024-12-11T15:09:45Z</time>
      </trkpt>
      <trkpt lat="48.22204" lon="6.61098">
        <ele>358.2</ele>
        <time>2024-12-11T15:09:53Z</time>
      </trkpt>
      <trkpt lat="48.22196" lon="6.61089">
        <ele>357.9</ele>
        <time>2024-12-11T15:10:01Z</time>
      </trkpt>
      <trkpt lat="48.22188" lon="6.6108">
        <ele>357.7</ele>
        <time>2024-12-11T15:10:09Z</time>
      </trkpt>
      <trkpt lat="48.2218" lon="6.61072">
        <ele>357.4</ele>
        <time>2024-12-11T15:10:17Z</time>
      </trkpt>
      <trkpt lat="48.22172" lon="6.61064">
        <ele>357.3</ele>
        <time>2024-12-11T15:10:25Z</time>
      </trkpt>
      <trkpt lat="48.22164" lon="6.61056">
        <ele>357.1</ele>
        <time>2024-12-11T15:10:33Z</time>
      </trkpt>
      <trkpt lat="48.22155" lon="6.61048">
        <ele>357</ele>
        <time>2024-12-11T15:10:42Z</time>
      </trkpt>
      <trkpt lat="48.22147" lon="6.61042">
        <ele>357</ele>
        <time>2024-12-11T15:10:49Z</time>
      </trkpt>
      <trkpt lat="48.22139" lon="6.61035">
        <ele>357</ele>
        <time>2024-12-11T15:10:56Z</time>
      </trkpt>
      <trkpt lat="48.22129" lon="6.61031">
        <ele>357</ele>
        <time>2024-12-11T15:11:04Z</time>
      </trkpt>
      <trkpt lat="48.22119" lon="6.6103">
        <ele>357</ele>
        <time>2024-12-11T15:11:12Z</time>
      </trkpt>
      <trkpt lat="48.2211" lon="6.61028">
        <ele>356.9</ele>
        <time>2024-12-11T15:11:19Z</time>
      </trkpt>
      <trkpt lat="48.22101" lon="6.61029">
        <ele>356.9</ele>
        <time>2024-12-11T15:11:26Z</time>
      </trkpt>
      <trkpt lat="48.22092" lon="6.61029">
        <ele>356.9</ele>
        <time>2024-12-11T15:11:33Z</time>
      </trkpt>
      <trkpt lat="48.22081" lon="6.61031">
        <ele>357</ele>
        <time>2024-12-11T15:11:41Z</time>
      </trkpt>
      <trkpt lat="48.22071" lon="6.61033">
        <ele>357.1</ele>
        <time>2024-12-11T15:11:49Z</time>
      </trkpt>
      <trkpt lat="48.22061" lon="6.61034">
        <ele>357.3</ele>
        <time>2024-12-11T15:11:57Z</time>
      </trkpt>
      <trkpt lat="48.22052" lon="6.61034">
        <ele>357.5</ele>
        <time>2024-12-11T15:12:05Z</time>
      </trkpt>
      <trkpt lat="48.22042" lon="6.61032">
        <ele>357.6</ele>
        <time>2024-12-11T15:12:13Z</time>
      </trkpt>
      <trkpt lat="48.22034" lon="6.61028">
        <ele>357.7</ele>
        <time>2024-12-11T15:12:20Z</time>
      </trkpt>
      <trkpt lat="48.22024" lon="6.61026">
        <ele>357.8</ele>
        <time>2024-12-11T15:12:28Z</time>
      </trkpt>
      <trkpt lat="48.22014" lon="6.61023">
        <ele>357.9</ele>
        <time>2024-12-11T15:12:36Z</time>
      </trkpt>
      <trkpt lat="48.22004" lon="6.61029">
        <ele>358</ele>
        <time>2024-12-11T15:12:44Z</time>
      </trkpt>
      <trkpt lat="48.22003" lon="6.61032">
        <ele>358.1</ele>
        <time>2024-12-11T15:12:52Z</time>
      </trkpt>
      <trkpt lat="48.22003" lon="6.61034">
        <ele>358.1</ele>
        <time>2024-12-11T15:13:00Z</time>
      </trkpt>
      <trkpt lat="48.22002" lon="6.61037">
        <ele>358.1</ele>
        <time>2024-12-11T15:13:09Z</time>
      </trkpt>
      <trkpt lat="48.22001" lon="6.6104">
        <ele>358.2</ele>
        <time>2024-12-11T15:13:18Z</time>
      </trkpt>
      <trkpt lat="48.22001" lon="6.61042">
        <ele>358.2</ele>
        <time>2024-12-11T15:13:24Z</time>
      </trkpt>
      <trkpt lat="48.22" lon="6.61045">
        <ele>358.2</ele>
        <time>2024-12-11T15:13:25Z</time>
      </trkpt>
      <trkpt lat="48.21999" lon="6.61048">
        <ele>358.3</ele>
        <time>2024-12-11T15:13:28Z</time>
      </trkpt>
      <trkpt lat="48.21999" lon="6.6105">
        <ele>358.3</ele>
        <time>2024-12-11T15:13:29Z</time>
      </trkpt>
      <trkpt lat="48.21998" lon="6.61053">
        <ele>358.3</ele>
        <time>2024-12-11T15:13:30Z</time>
      </trkpt>
      <trkpt lat="48.21997" lon="6.61056">
        <ele>358.4</ele>
        <time>2024-12-11T15:13:41Z</time>
      </trkpt>
      <trkpt lat="48.21996" lon="6.61058">
        <ele>358.4</ele>
        <time>2024-12-11T15:13:42Z</time>
      </trkpt>
      <trkpt lat="48.21996" lon="6.61061">
        <ele>358.4</ele>
        <time>2024-12-11T15:19:16Z</time>
      </trkpt>
      <trkpt lat="48.21995" lon="6.61064">
        <ele>358.5</ele>
        <time>2024-12-11T15:19:17Z</time>
      </trkpt>
      <trkpt lat="48.21994" lon="6.61066">
        <ele>358.5</ele>
        <time>2024-12-11T15:19:18Z</time>
      </trkpt>
      <trkpt lat="48.21994" lon="6.61069">
        <ele>358.6</ele>
        <time>2024-12-11T15:19:19Z</time>
      </trkpt>
      <trkpt lat="48.21993" lon="6.61072">
        <ele>358.6</ele>
        <time>2024-12-11T15:19:20Z</time>
      </trkpt>
      <trkpt lat="48.21992" lon="6.61074">
        <ele>358.7</ele>
        <time>2024-12-11T15:41:21Z</time>
      </trkpt>
      <trkpt lat="48.21992" lon="6.61077">
        <ele>358.7</ele>
        <time>2024-12-11T15:41:22Z</time>
      </trkpt>
      <trkpt lat="48.21991" lon="6.6108">
        <ele>358.7</ele>
        <time>2024-12-11T15:41:28Z</time>
      </trkpt>
      <trkpt lat="48.2199" lon="6.61082">
        <ele>358.8</ele>
        <time>2024-12-11T15:41:28Z</time>
      </trkpt>
      <trkpt lat="48.2199" lon="6.61082">
        <ele>358.8</ele>
        <time>2024-12-11T15:41:28Z</time>
      </trkpt>
    </trkseg>
  </trk>
</gpx>